[[{"header":{"parameterUnit":"m.s-1","parameterCategory":1,"la1":30.6,"la2":28.766,"lo1":-90.7593,"lo2":-88.6598,"dy":0.0162,"dx":0.0183,"nx":116,"ny":114,"refTime":"2023-09-07T18:00:00:Z","depth":0,"parameterNumber":2,"parameterNumberName":"U-component_of_WINDS"},"data":[0.0,0.0,0.0,0.0,0.0,0.0,0.0,0.0,0.0,0.0,0.0,0.0,0.0,0.0,0.0,0.0,0.0,0.0,0.0,0.0,0.0,0.0,0.0,0.0,0.0,0.0,0.0,0.0,0.0,0.0,0.0,0.0,0.0,0.0,0.0,0.0,0.0,0.0,0.0,0.0,0.0,0.0,0.0,0.0,0.0,0.0,0.0,0.0,0.0,0.0,0.0,0.0,0.0,0.0,0.0,0.0,0.0,0.0,0.0,0.0,0.0,0.0,0.0,0.0,0.0,0.0,0.0,0.0,0.0,0.0,0.0,0.0,0.0,0.0,0.0,0.0,0.0,0.0,0.0,0.0,0.0,0.0,0.0,0.0,0.0,0.0,0.0,0.0,0.0,0.0,0.0,0.0,0.0,0.0,0.0,0.0,0.0,0.0,0.0,0.0,0.0,0.0,0.0,0.0,0.0,0.0,0.0,0.0,0.0,0.0,0.0,0.0,0.0,0.0,0.0,0.0,0.0,0.0,0.0,0.0,0.0,0.0,0.0,0.0,0.0,0.0,0.0,0.0,0.0,0.0,0.0,0.0,0.0,0.0,0.0,0.0,0.0,0.0,0.0,0.0,0.0,0.0,0.0,0.0,0.0,0.0,0.0,0.0,0.0,0.0,0.0,0.0,0.0,0.0,0.0,0.0,0.0,0.0,0.0,0.0,0.0,0.0,0.0,0.0,0.0,0.0,0.0,0.0,0.0,0.0,0.0,0.0,0.0,0.0,0.0,0.0,0.0,0.0,0.0,0.0,0.0,0.0,0.0,0.0,0.0,0.0,0.0,0.0,0.0,0.0,0.0,0.0,0.0,0.0,0.0,0.0,0.0,0.0,0.0,0.0,0.0,0.0,0.0,0.0,0.0,0.0,0.0,0.0,0.0,0.0,0.0,0.0,0.0,0.0,0.0,0.0,0.0,0.0,0.0,0.0,0.0,0.0,0.0,0.0,0.0,0.0,0.0,0.0,0.0,0.0,0.0,0.0,0.0,0.0,0.0,0.0,0.0,0.0,0.0,0.0,0.0,0.0,0.0,0.0,0.0,0.0,0.0,0.0,0.0,0.0,0.0,0.0,0.0,0.0,0.0,0.0,0.0,0.0,0.0,0.0,0.0,0.0,0.0,0.0,0.0,0.0,0.0,0.0,0.0,0.0,0.0,0.0,0.0,0.0,0.0,0.0,0.0,0.0,0.0,0.0,0.0,0.0,0.0,0.0,0.0,0.0,0.0,0.0,0.0,0.0,0.0,0.0,0.0,0.0,0.0,0.0,0.0,0.0,0.0,0.0,0.0,0.0,0.0,0.0,0.0,0.0,0.0,0.0,0.0,0.0,0.0,0.0,0.0,0.0,0.0,0.0,0.0,0.0,0.0,0.0,0.0,0.0,0.0,0.0,0.0,0.0,0.0,0.0,0.0,0.0,0.0,0.0,0.0,0.0,0.0,0.0,0.0,0.0,0.0,0.0,0.0,0.0,0.0,0.0,0.0,0.0,0.0,0.0,0.0,0.0,0.0,0.0,0.0,0.0,0.0,0.0,0.0,0.0,0.0,0.0,0.0,0.0,0.0,0.0,0.0,0.0,0.0,0.0,0.0,0.0,0.0,0.0,0.0,0.0,0.0,0.0,0.0,0.0,0.0,0.0,0.0,0.0,0.0,0.0,0.0,0.0,0.0,0.0,0.0,0.0,0.0,0.0,0.0,0.0,0.0,0.0,0.0,0.0,0.0,0.0,0.0,0.0,0.0,0.0,0.0,0.0,0.0,0.0,0.0,0.0,0.0,0.0,0.0,0.0,0.0,0.0,0.0,0.0,0.0,0.0,0.0,0.0,0.0,0.0,0.0,0.0,0.0,0.0,0.0,0.0,0.0,0.0,0.0,0.0,0.0,0.0,0.0,0.0,0.0,0.0,0.0,0.0,0.0,0.0,0.0,0.0,0.0,0.0,0.0,0.0,0.0,0.0,0.0,0.0,0.0,0.0,0.0,0.0,0.0,0.0,0.0,0.0,0.0,0.0,0.0,0.0,0.0,0.0,0.0,0.0,0.0,0.0,0.0,0.0,0.0,0.0,0.0,0.0,0.0,0.0,0.0,0.0,0.0,0.0,0.0,0.0,0.0,0.0,0.0,0.0,0.0,0.0,0.0,0.0,0.0,0.0,0.0,0.0,0.0,0.0,0.0,0.0,0.0,0.0,0.0,0.0,0.0,0.0,0.0,0.0,0.0,0.0,0.0,0.0,0.0,0.0,0.0,0.0,0.0,0.0,0.0,0.0,0.0,0.0,0.0,0.0,0.0,0.0,0.0,0.0,0.0,0.0,0.0,0.0,0.0,0.0,0.0,0.0,0.0,0.0,0.0,0.0,0.0,0.0,0.0,0.0,0.0,0.0,0.0,0.0,0.0,0.0,0.0,0.0,0.0,0.0,0.0,0.0,0.0,0.0,0.0,0.0,0.0,0.0,0.0,0.0,0.0,0.0,0.0,0.0,0.0,0.0,0.0,0.0,0.0,0.0,0.0,0.0,0.0,0.0,0.0,0.0,0.0,0.0,0.0,0.0,0.0,0.0,0.0,0.0,0.0,0.0,0.0,0.0,0.0,0.0,0.0,0.0,0.0,0.0,0.0,0.0,0.0,0.0,0.0,0.0,0.0,0.0,0.0,0.0,0.0,0.0,0.0,0.0,0.0,0.0,0.0,0.0,0.0,0.0,0.0,0.0,0.0,0.0,0.0,0.0,0.0,0.0,0.0,0.0,0.0,0.0,0.0,0.0,0.0,0.0,0.0,0.0,0.0,0.0,0.0,0.0,0.0,0.0,0.0,0.0,0.0,0.0,0.0,0.0,0.0,0.0,0.0,0.0,0.0,0.0,0.0,0.0,0.0,0.0,0.0,0.0,0.0,0.0,0.0,0.0,0.0,0.0,0.0,0.0,0.0,0.0,0.0,0.0,0.0,0.0,0.0,0.0,0.0,0.0,0.0,0.0,0.0,0.0,0.0,0.0,0.0,0.0,0.0,0.0,0.0,0.0,0.0,0.0,0.0,0.0,0.0,0.0,0.0,0.0,0.0,0.0,0.0,0.0,0.0,0.0,0.0,0.0,0.0,0.0,0.0,0.0,0.0,0.0,0.0,0.0,0.0,0.0,0.0,0.0,0.0,0.0,0.0,0.0,0.0,0.0,0.0,0.0,0.0,0.0,0.0,0.0,0.0,0.0,0.0,0.0,0.0,0.0,0.0,0.0,0.0,0.0,0.0,0.0,0.0,0.0,0.0,0.0,0.0,0.0,0.0,0.0,0.0,0.0,0.0,0.0,0.0,0.0,0.0,0.0,0.0,0.0,0.0,0.0,0.0,0.0,0.0,0.0,0.0,0.0,0.0,0.0,0.0,0.0,0.0,0.0,0.0,0.0,0.0,0.0,0.0,0.0,0.0,0.0,0.0,0.0,0.0,0.0,0.0,0.0,0.0,0.0,0.0,0.0,0.0,0.0,0.0,0.0,0.0,0.0,0.0,0.0,0.0,0.0,0.0,0.0,0.0,0.0,0.0,0.0,0.0,0.0,0.0,0.0,0.0,0.0,0.0,0.0,0.0,0.0,0.0,0.0,0.0,0.0,0.0,0.0,0.0,0.0,0.0,0.0,0.0,0.0,0.0,0.0,0.0,0.0,0.0,0.0,0.0,0.0,0.0,0.0,0.0,0.0,0.0,0.0,0.0,0.0,0.0,0.0,0.0,0.0,0.0,0.0,0.0,0.0,0.0,0.0,0.0,0.0,0.0,0.0,0.0,0.0,0.0,0.0,0.0,0.0,0.0,0.0,0.0,0.0,0.0,0.0,0.0,0.0,0.0,0.0,0.0,0.0,0.0,0.0,0.0,0.0,0.0,0.0,0.0,0.0,0.0,0.0,0.0,0.0,0.0,0.0,0.0,0.0,0.0,0.0,0.0,0.0,0.0,0.0,0.0,0.0,0.0,0.0,0.0,0.0,0.0,0.0,0.0,0.0,0.0,0.0,0.0,0.0,0.0,0.0,0.0,0.0,0.0,0.0,0.0,0.0,0.0,0.0,0.0,0.0,0.0,0.0,0.0,0.0,0.0,0.0,0.0,0.0,0.0,0.0,0.0,0.0,0.0,0.0,0.0,0.0,0.0,0.0,0.0,0.0,0.0,0.0,0.0,0.0,0.0,0.0,0.0,0.0,0.0,0.0,0.0,0.0,0.0,0.0,0.0,0.0,0.0,0.0,0.0,0.0,0.0,0.0,0.0,0.0,0.0,0.0,0.0,0.0,0.0,0.0,0.0,0.0,0.0,0.0,0.0,0.0,0.0,0.0,0.0,0.0,0.0,0.0,0.0,0.0,0.0,0.0,0.0,0.0,0.0,0.0,0.0,0.0,0.0,0.0,0.0,0.0,0.0,0.0,0.0,0.0,0.0,0.0,0.0,0.0,0.0,0.0,0.0,0.0,0.0,0.0,0.0,0.0,0.0,0.0,0.0,0.0,0.0,0.0,0.0,0.0,0.0,0.0,0.0,0.0,0.0,0.0,0.0,0.0,0.0,0.0,0.0,0.0,0.0,0.0,0.0,0.0,0.0,0.0,0.0,0.0,0.0,0.0,0.0,0.0,0.0,0.0,0.0,0.0,0.0,0.0,0.0,0.0,0.0,0.0,0.0,0.0,0.0,0.0,0.0,0.0,0.0,0.0,0.0,0.0,0.0,0.0,0.0,0.0,0.0,0.0,0.0,0.0,0.0,0.0,0.0,0.0,0.0,0.0,0.0,0.0,0.0,0.0,0.0,0.0,0.0,0.0,0.0,0.0,0.0,0.0,0.0,0.0,0.0,0.0,0.0,0.0,0.0,0.0,0.0,0.0,0.0,0.0,0.0,0.0,0.0,0.0,0.0,0.0,0.0,0.0,0.0,0.0,0.0,0.0,0.0,0.0,0.0,0.0,0.0,0.0,0.0,0.0,0.0,0.0,0.0,0.0,0.0,0.0,0.0,0.0,0.0,0.0,0.0,0.0,0.0,0.0,0.0,0.0,0.0,0.0,0.0,0.0,0.0,0.0,0.0,0.0,0.0,0.0,0.0,0.0,0.0,0.0,0.0,0.0,0.0,0.0,0.0,0.0,0.0,0.0,0.0,0.0,0.0,0.0,0.0,0.0,0.0,0.0,0.0,0.0,0.0,0.0,0.0,0.0,0.0,0.0,0.0,0.0,0.0,0.0,0.0,0.0,0.0,0.0,0.0,0.0,0.0,0.0,0.0,0.0,0.0,0.0,0.0,0.0,0.0,0.0,0.0,0.0,0.0,0.0,0.0,0.0,0.0,0.0,0.0,0.0,0.0,0.0,0.0,0.0,0.0,0.0,0.0,0.0,0.0,0.0,0.0,0.0,0.0,0.0,0.0,0.0,0.0,0.0,0.0,0.0,0.0,0.0,0.0,0.0,0.0,0.0,0.0,0.0,0.0,0.0,0.0,0.0,0.0,0.0,0.0,0.0,0.0,0.0,0.0,0.0,0.0,0.0,0.0,0.0,0.0,0.0,0.0,0.0,0.0,0.0,0.0,0.0,0.0,0.0,0.0,0.0,0.0,0.0,0.0,0.0,0.0,0.0,0.0,0.0,0.0,0.0,0.0,0.0,0.0,0.0,0.0,0.0,0.0,0.0,0.0,0.0,0.0,0.0,0.0,0.0,0.0,0.0,0.0,0.0,0.0,0.0,0.0,0.0,0.0,0.0,0.0,0.0,0.0,0.0,0.0,0.0,0.0,0.0,0.0,0.0,0.0,0.0,0.0,0.0,0.0,0.0,0.0,0.0,0.0,0.0,0.0,0.0,0.0,0.0,0.0,0.0,0.0,0.0,0.0,0.0,0.0,0.0,0.0,0.0,0.0,0.0,0.0,0.0,0.0,0.0,0.0,0.0,0.0,0.0,0.0,0.0,0.0,0.0,0.0,0.0,0.0,0.0,0.0,0.0,0.0,0.0,0.0,0.0,0.0,0.0,0.0,0.0,0.0,0.0,0.0,0.0,0.0,0.0,0.0,0.0,0.0,0.0,0.0,0.0,0.0,0.0,2.4746,2.5153,0.0,0.0,0.0,0.0,0.0,0.0,0.0,0.0,0.0,0.0,0.0,0.0,0.0,0.0,0.0,0.0,0.0,0.0,0.0,0.0,0.0,0.0,0.0,0.0,0.0,0.0,0.0,0.0,0.0,0.0,0.0,0.0,0.0,0.0,0.0,0.0,0.0,0.0,1.9298,2.036,2.1311,2.1479,2.2083,2.3032,0.0,0.0,0.0,0.0,0.0,0.0,0.0,0.0,0.0,0.0,0.0,0.0,0.0,0.0,0.0,0.0,0.0,0.0,0.0,0.0,0.0,0.0,0.0,0.0,0.0,0.0,0.0,0.0,0.0,0.0,0.0,0.0,0.0,0.0,0.0,0.0,0.0,0.0,0.0,0.0,0.0,0.0,0.0,0.0,0.0,0.0,0.0,0.0,0.0,0.0,0.0,0.0,0.0,0.0,0.0,0.0,0.0,0.0,0.0,0.0,0.0,0.0,0.0,0.0,0.0,0.0,0.0,0.0,0.0,0.0,2.4321,2.467,0.0,0.0,0.0,0.0,0.0,0.0,0.0,0.0,0.0,0.0,0.0,0.0,0.0,0.0,0.0,0.0,0.0,0.0,0.0,0.0,0.0,0.0,0.0,0.0,0.0,0.0,0.0,0.0,0.0,0.0,0.0,0.0,0.0,0.0,0.0,1.7704,1.7929,1.828,1.965,2.1108,2.2608,2.2745,2.3015,2.3422,2.4398,0.0,0.0,0.0,0.0,0.0,0.0,0.0,0.0,0.0,0.0,0.0,0.0,0.0,0.0,0.0,0.0,0.0,0.0,0.0,0.0,0.0,0.0,0.0,0.0,0.0,0.0,0.0,0.0,0.0,0.0,0.0,0.0,0.0,0.0,0.0,0.0,0.0,0.0,0.0,0.0,0.0,0.0,0.0,0.0,0.0,0.0,0.0,0.0,0.0,0.0,0.0,0.0,0.0,0.0,0.0,0.0,0.0,0.0,0.0,0.0,0.0,0.0,0.0,2.4707,2.4487,2.4,2.4083,2.3843,2.3305,2.3875,2.4081,2.4045,2.4185,0.0,0.0,0.0,0.0,0.0,0.0,0.0,0.0,0.0,0.0,0.0,0.0,0.0,0.0,0.0,0.0,0.0,0.0,0.0,0.0,0.0,1.7612,1.8025,1.8824,1.812,1.8002,0.0,0.0,0.0,0.0,0.0,0.0,1.7526,1.7608,1.8205,1.9384,2.1409,2.2738,2.336,2.3603,2.3433,2.2923,2.3479,2.3932,2.4344,0.0,0.0,0.0,0.0,0.0,0.0,0.0,0.0,0.0,0.0,0.0,0.0,0.0,0.0,0.0,0.0,0.0,0.0,0.0,0.0,0.0,0.0,0.0,0.0,0.0,0.0,0.0,0.0,0.0,0.0,0.0,0.0,0.0,0.0,0.0,0.0,0.0,0.0,0.0,0.0,0.0,2.2303,2.3891,0.0,0.0,0.0,0.0,0.0,0.0,0.0,0.0,0.0,0.0,0.0,0.0,0.0,2.4395,2.5153,2.5281,2.5706,2.643,2.6023,2.5439,2.4743,2.4699,2.4144,2.3212,2.331,0.0,2.3428,2.3554,0.0,0.0,0.0,0.0,0.0,0.0,0.0,0.0,0.0,0.0,0.0,0.0,0.0,0.0,0.0,0.0,0.0,0.0,0.0,0.0,0.0,1.812,1.8562,1.9058,1.9019,1.9205,1.9797,0.0,0.0,0.0,0.0,1.7432,1.7549,1.824,1.9549,2.1514,2.2333,2.3097,2.3787,2.3581,2.3216,2.275,2.2805,2.2946,2.3153,2.3466,0.0,0.0,0.0,0.0,0.0,0.0,0.0,0.0,0.0,0.0,0.0,0.0,0.0,0.0,0.0,0.0,0.0,0.0,0.0,0.0,0.0,0.0,0.0,0.0,0.0,0.0,0.0,0.0,0.0,0.0,0.0,0.0,0.0,0.0,0.0,0.0,0.0,0.0,0.0,2.2671,2.3677,2.4153,2.4507,2.471,0.0,0.0,0.0,0.0,0.0,0.0,0.0,0.0,0.0,2.4223,2.4485,2.4777,2.5122,2.5362,2.5677,2.6072,2.6259,2.5963,2.5254,2.5205,2.4733,2.3929,2.3929,2.3957,2.396,2.3794,2.4251,2.5049,0.0,0.0,0.0,0.0,2.6238,2.664,0.0,0.0,0.0,0.0,0.0,0.0,0.0,0.0,0.0,0.0,0.0,0.0,1.8222,1.8887,1.951,1.9906,2.0082,2.035,2.0784,1.9781,0.0,0.0,0.0,1.7883,1.7681,1.916,2.0924,2.2958,2.3107,2.3435,2.3909,2.3512,2.3052,2.2521,2.2337,2.2255,2.2263,2.2664,2.3142,2.3621,0.0,0.0,0.0,0.0,0.0,0.0,0.0,0.0,0.0,0.0,0.0,0.0,0.0,0.0,0.0,0.0,0.0,0.0,0.0,0.0,0.0,0.0,0.0,0.0,0.0,0.0,0.0,0.0,0.0,0.0,0.0,0.0,0.0,0.0,0.0,0.0,0.0,2.387,2.422,2.4173,2.4293,2.4409,0.0,0.0,0.0,0.0,0.0,0.0,2.405,2.4694,2.5013,2.4863,2.537,2.5709,2.587,2.6209,2.6526,2.6846,2.7109,2.7001,2.6551,2.6056,2.5492,2.4961,2.4726,2.4669,2.4743,2.4253,2.4562,2.5386,2.5737,2.6457,2.7251,2.7153,2.7438,2.7846,0.0,0.0,0.0,0.0,0.0,0.0,0.0,0.0,0.0,0.0,0.0,1.8706,1.9097,1.9963,2.0982,2.212,2.1207,2.1025,2.2121,2.0976,1.9857,1.9041,1.8954,1.8608,1.79,2.0186,2.188,2.2923,2.3912,2.4174,2.3714,2.3692,2.3106,2.2124,2.2124,2.2124,2.2118,2.234,2.2614,2.2998,2.347,0.0,0.0,0.0,0.0,0.0,0.0,0.0,0.0,0.0,0.0,0.0,0.0,0.0,0.0,0.0,0.0,0.0,0.0,0.0,0.0,0.0,0.0,0.0,0.0,0.0,0.0,0.0,0.0,0.0,0.0,0.0,0.0,0.0,0.0,0.0,0.0,0.0,0.0,2.3878,2.3422,0.0,0.0,0.0,0.0,2.4626,2.4549,2.4633,2.4995,2.5721,2.5954,2.5569,2.6553,2.7466,2.8209,2.8553,2.9331,3.0502,2.9401,2.9094,2.9411,2.7513,2.6472,2.6161,2.5317,2.5202,2.549,2.476,2.505,2.5949,2.6066,2.743,2.9269,2.8495,2.9041,2.9927,0.0,0.0,0.0,0.0,0.0,0.0,0.0,0.0,0.0,1.7272,1.834,1.9161,1.9299,2.0653,2.1755,2.2236,2.2089,2.2192,2.277,2.1115,2.0187,2.0416,1.9126,1.8982,2.0186,2.1698,2.3052,2.4247,2.4407,2.4476,2.4403,2.3905,2.3504,2.3106,2.2686,2.2344,2.2079,2.1938,2.2153,2.2608,2.3079,2.3769,0.0,0.0,0.0,0.0,0.0,0.0,0.0,0.0,0.0,0.0,0.0,0.0,0.0,0.0,0.0,0.0,0.0,0.0,0.0,0.0,0.0,0.0,0.0,0.0,0.0,0.0,0.0,0.0,0.0,0.0,0.0,0.0,0.0,0.0,0.0,0.0,0.0,2.5372,2.4967,0.0,2.4831,2.4733,2.4731,2.4954,2.5101,2.5274,2.5415,2.6565,2.7148,2.7029,2.8336,2.9093,2.9157,3.0018,3.0581,3.0856,3.064,3.0369,2.9993,2.9589,2.9036,2.8407,2.8097,2.8227,2.8547,2.7725,2.7301,2.7216,2.7743,2.8771,2.9905,2.9621,3.0161,3.0937,0.0,0.0,0.0,0.0,0.0,0.0,0.0,0.0,0.0,1.7593,1.8829,1.9856,2.0322,2.1786,2.2803,2.2944,2.2972,2.3082,2.3312,2.1762,2.0918,2.1028,1.9817,2.0036,2.1933,2.3087,2.4095,2.4924,2.4766,2.4682,2.4685,2.4192,2.3862,2.3671,2.3253,2.283,2.2434,2.2113,2.2023,2.216,2.2588,2.3257,2.4061,0.0,0.0,0.0,0.0,0.0,0.0,0.0,0.0,0.0,0.0,0.0,0.0,0.0,0.0,0.0,0.0,0.0,0.0,0.0,0.0,0.0,0.0,0.0,0.0,0.0,0.0,0.0,0.0,0.0,0.0,0.0,0.0,0.0,0.0,2.5632,2.574,2.6249,2.5781,2.5438,2.542,2.5377,2.5414,2.5631,2.6075,2.6471,2.6725,2.8163,2.8958,2.8958,3.0602,3.1376,3.115,3.2052,3.2371,3.2076,3.2301,3.2083,3.1422,3.1632,3.141,3.0832,3.0703,3.0562,3.0466,3.0403,2.9894,2.9245,2.9757,3.0505,3.1308,3.1643,3.2374,3.3148,0.0,0.0,0.0,0.0,0.0,0.0,0.0,1.7059,1.7469,1.8196,1.9428,2.0767,2.215,2.3321,2.4137,2.4459,2.3892,2.3569,2.3756,2.295,2.1962,2.079,2.1113,2.1826,2.2976,2.4356,2.5012,2.4894,2.5032,2.4907,2.4603,2.4586,2.4303,2.3807,2.3786,2.3594,2.3259,2.2943,2.2364,2.1738,2.1989,2.247,2.3147,0.0,0.0,0.0,0.0,0.0,0.0,0.0,0.0,0.0,0.0,0.0,0.0,0.0,0.0,0.0,0.0,0.0,0.0,0.0,0.0,0.0,0.0,0.0,0.0,0.0,0.0,0.0,0.0,0.0,0.0,0.0,0.0,0.0,2.5406,2.5974,2.641,2.6377,2.5656,2.516,2.516,2.5453,2.5964,2.6674,2.7469,2.8264,2.9008,3.0463,3.1275,3.1297,3.3188,3.422,3.4224,3.4711,3.4773,3.446,3.446,3.4243,3.3853,3.3556,3.3393,3.3364,3.2961,3.208,3.1097,3.256,3.2717,3.202,3.2002,3.2537,3.3495,3.4457,3.5623,3.6565,0.0,0.0,0.0,0.0,0.0,0.0,0.0,1.7134,1.7527,1.8196,1.9703,2.1118,2.217,2.3394,2.4248,2.4478,2.3749,2.331,2.3369,2.2219,2.1593,2.1627,2.2998,2.4167,2.5059,2.6257,2.6937,2.7048,2.6937,2.6841,2.6745,2.6399,2.6154,2.6004,2.5612,2.5384,2.5272,2.4946,2.4531,2.4036,2.2768,2.2529,2.2975,0.0,0.0,0.0,0.0,0.0,0.0,0.0,0.0,0.0,0.0,0.0,0.0,0.0,0.0,0.0,0.0,0.0,0.0,0.0,0.0,0.0,0.0,0.0,0.0,0.0,0.0,0.0,0.0,0.0,0.0,0.0,2.5375,2.6051,2.7114,2.69,2.6925,2.7725,2.6899,2.626,2.626,2.6826,2.7266,2.7503,2.9228,3.0362,3.0581,3.1985,3.2985,3.3348,3.4052,3.4683,3.52,3.5492,3.5663,3.5773,3.5773,3.5538,3.5115,3.5367,3.5289,3.4961,3.4866,3.4803,3.4751,3.4495,3.4668,3.4979,3.3969,3.4147,3.4979,3.5271,3.5828,3.6381,0.0,0.0,0.0,0.0,0.0,0.0,0.0,1.7248,1.7797,1.8825,2.0108,2.147,2.2877,2.3805,2.4375,2.4495,2.383,2.3383,2.3282,2.2323,2.2125,2.2935,2.4504,2.5704,2.644,2.7616,2.8119,2.789,2.7773,2.7803,2.7937,2.7667,2.7625,2.7763,2.7442,2.73,2.73,2.6957,2.6684,2.6383,2.4659,2.3801,2.3638,2.4138,2.4842,2.5595,2.6105,2.6533,2.6912,2.7176,0.0,0.0,0.0,0.0,0.0,0.0,0.0,0.0,0.0,0.0,0.0,0.0,0.0,0.0,0.0,0.0,0.0,0.0,0.0,0.0,0.0,0.0,0.0,0.0,2.6294,2.7126,2.8662,2.82,2.7959,2.8776,2.827,2.7811,2.769,2.8332,2.8907,2.9211,3.0734,3.1799,3.2104,3.3525,3.4601,3.5139,3.5555,3.6168,3.7061,3.6844,3.6744,3.6798,3.7129,3.6808,3.5933,3.6875,3.6955,3.6425,3.6771,3.6765,3.6492,3.6245,3.6309,0.0,0.0,0.0,0.0,0.0,3.7022,3.7027,0.0,0.0,0.0,0.0,0.0,0.0,0.0,1.7321,1.8114,1.9647,2.0523,2.1732,2.3728,2.4173,2.4349,2.4442,2.3858,2.3469,2.3383,2.2955,2.3231,2.4529,2.5798,2.6805,2.7471,2.8638,2.8948,2.8332,2.8332,2.8524,2.8912,2.8846,2.9008,2.9347,2.9297,2.925,2.9269,2.9046,2.8884,2.8662,2.7434,2.6044,2.4815,2.5682,2.6127,2.6444,2.7576,2.7607,2.7194,2.7733,0.0,0.0,0.0,0.0,0.0,0.0,0.0,0.0,0.0,0.0,0.0,0.0,0.0,0.0,0.0,0.0,0.0,0.0,0.0,0.0,0.0,0.0,0.0,0.0,2.7642,2.8366,3.0017,2.966,2.9344,2.9644,2.9679,2.9574,2.9265,2.9922,3.0615,3.1258,3.2154,3.2949,3.3609,3.4979,0.0,0.0,0.0,3.7825,3.8975,3.8202,3.7754,3.7643,3.845,3.8046,3.6615,3.8138,3.8395,3.7661,3.8395,3.8008,3.6961,3.7688,3.7615,3.7015,3.7015,3.7275,3.7757,3.8711,3.859,3.8079,0.0,0.0,0.0,0.0,0.0,0.0,0.0,1.7216,1.7897,1.9386,2.0355,2.1607,2.3394,2.3417,2.3511,2.4045,2.2965,2.2544,2.3255,2.3564,2.4497,2.6233,2.72,2.8147,2.9187,2.983,3.0429,3.0968,3.0968,3.1315,3.2018,3.1625,3.1525,3.156,3.1127,3.0944,3.0962,3.1572,3.1281,3.0468,3.0826,2.8976,2.5888,2.5124,2.5207,2.5829,2.6375,2.6883,2.7379,2.8245,2.7767,2.7043,2.827,2.8237,0.0,0.0,0.0,0.0,0.0,0.0,0.0,0.0,0.0,0.0,0.0,0.0,0.0,0.0,0.0,0.0,0.0,0.0,0.0,2.7239,2.7661,2.856,3.0705,3.0853,3.0793,3.087,3.0849,3.0866,3.0768,3.1427,3.1918,3.207,3.388,3.503,3.5182,3.6062,3.6774,3.7317,3.6429,3.6672,3.8128,3.7613,3.7719,3.8487,0.0,0.0,3.8267,3.9221,3.9221,3.8487,3.8634,3.82,3.7442,3.8217,3.8455,3.8308,3.8308,3.8389,3.8487,3.8707,3.87,3.8559,0.0,0.0,0.0,0.0,0.0,0.0,0.0,1.7224,1.7813,1.911,1.9803,2.0725,2.2103,2.2141,2.2165,2.2473,2.2357,2.2436,2.2869,2.423,2.5551,2.6756,2.7835,2.8962,3.0114,3.0473,3.1051,3.1889,3.1889,3.226,3.2956,3.2845,3.2874,3.3003,3.3308,3.3222,3.2865,3.4129,3.4083,3.3209,3.3405,3.2035,2.9544,2.7334,2.6868,2.7313,2.6901,2.7126,2.7707,2.835,2.8029,2.7549,2.8439,2.8341,2.7839,0.0,0.0,0.0,0.0,0.0,0.0,0.0,0.0,0.0,0.0,0.0,0.0,0.0,0.0,2.5965,2.6499,0.0,2.7396,2.9093,2.9447,3.0176,3.2036,3.2611,3.2713,3.2341,3.2307,3.2442,3.2814,3.3169,3.3541,3.3914,3.5351,3.6197,3.6197,3.6924,3.7558,3.8079,3.7472,3.7784,3.9084,3.8474,3.8758,3.99,3.99,3.99,3.99,3.99,3.968,3.9276,3.8872,3.8469,3.812,3.8524,3.8707,3.8707,3.8707,3.8707,3.8707,3.8707,3.8707,3.8707,0.0,0.0,0.0,0.0,0.0,0.0,0.0,0.0,1.7823,1.8921,1.9339,1.9889,2.0838,2.0906,2.0871,2.0888,2.1934,2.2815,2.3196,2.5322,2.6876,2.7575,2.8725,2.9847,3.0807,3.1034,3.1619,3.258,3.258,3.3006,3.3799,3.3958,3.4157,3.4392,3.5266,3.5281,3.4777,3.6254,3.6422,3.5702,3.5483,3.4706,3.3321,3.0482,2.9374,2.9184,2.814,2.7889,2.8177,2.8422,2.8237,2.7954,2.821,2.8183,2.7951,2.7421,2.7518,0.0,0.0,0.0,0.0,0.0,0.0,0.0,0.0,2.7903,2.7634,2.762,2.7564,2.78,2.8652,2.8918,2.9558,3.115,3.1529,3.2138,3.3626,3.4336,3.4607,3.432,3.415,3.4286,3.4878,3.5081,3.5419,3.6011,3.6772,3.7212,3.7212,3.7787,3.8312,3.876,3.8605,3.9063,4.0147,3.9499,3.9839,4.1111,4.0598,4.0616,4.1093,4.0463,4.0093,3.9845,3.8872,3.856,3.8689,3.8524,3.856,3.8707,3.8707,3.8707,3.8707,3.8707,3.8707,3.8707,0.0,0.0,0.0,0.0,0.0,0.0,0.0,0.0,0.0,1.8792,1.936,1.9914,2.0555,2.0329,2.0187,2.0362,2.1853,2.3632,2.5646,2.7317,2.8873,3.0377,3.1114,3.1529,3.1663,3.1859,3.273,3.4312,3.4312,3.512,3.6641,3.6427,3.6354,3.637,3.6279,3.6297,3.6472,3.7137,3.71,3.6603,3.7026,3.6266,3.4649,3.3284,3.1697,3.0089,2.9546,2.9175,2.8945,2.8937,2.8482,2.7897,2.7936,2.7936,2.7776,2.7005,2.763,2.8484,2.8017,2.857,2.9731,3.1728,3.1392,3.1091,0.0,3.2157,3.0831,3.0279,2.9935,2.9765,2.9878,3.0455,3.1184,3.2043,3.273,3.3677,3.5165,3.5436,3.596,3.7246,3.6806,3.6434,3.6518,3.7127,3.7567,3.7652,3.8328,3.8734,3.8734,3.8819,3.8918,3.8933,3.8306,3.8498,3.9572,3.9483,4.0019,4.113,4.1735,4.1699,4.1097,4.1179,4.0724,3.9808,3.8285,3.8028,3.8652,3.7918,3.8046,3.8707,3.8707,3.8707,3.8707,3.8707,3.8707,3.8707,0.0,0.0,0.0,0.0,0.0,0.0,0.0,0.0,0.0,0.0,1.876,1.8985,1.9293,1.9073,1.9115,1.9677,2.1611,2.365,2.5662,2.787,2.9682,3.0848,3.1316,3.1782,3.2262,3.2339,3.3189,3.4841,3.4841,3.5454,3.6649,3.6682,3.6623,3.6509,3.7507,3.7747,3.7471,3.8656,3.873,3.8114,3.834,3.7626,3.6358,3.5407,3.3913,3.2099,3.0206,2.9638,0.0,2.9287,2.8737,2.8219,2.8373,2.8218,2.7885,2.761,2.7976,2.8674,2.9315,3.0438,3.1644,3.2488,3.2957,3.3189,3.305,3.2385,3.1741,3.1614,3.1499,3.1512,3.1952,3.2273,3.2713,3.344,3.4201,3.5064,3.6146,3.6671,3.7026,3.7229,3.7736,3.8075,3.8075,3.8345,3.8531,3.8531,3.9208,3.9445,3.9005,3.8988,3.8988,3.8988,3.9016,3.9209,3.966,4.0291,4.0912,4.1495,4.2047,4.1792,4.0887,4.1125,4.0492,3.9166,3.8487,3.8395,3.867,3.834,3.8395,3.8707,3.8707,3.8707,3.8707,3.8707,3.8707,3.8707,0.0,0.0,0.0,0.0,0.0,0.0,0.0,0.0,0.0,0.0,0.0,1.8518,1.8823,1.8575,1.8827,1.9928,2.1777,2.3769,2.5825,2.8324,3.0214,3.1311,3.1806,3.2449,3.323,3.3248,3.4064,3.5697,3.5917,3.6468,3.7294,3.772,3.7802,3.7661,3.905,3.936,3.8989,4.0076,4.0243,3.977,3.9444,3.8588,3.7397,3.634,3.488,3.3094,3.0821,3.0064,3.0063,2.9418,2.8902,2.8572,2.8688,2.8456,2.8139,2.8166,2.8316,2.8729,3.0094,3.1474,3.2603,3.2811,3.4217,3.5171,3.3618,3.3408,3.3575,3.3811,3.366,3.3761,3.4506,3.4472,3.4573,3.5318,3.5723,3.6282,3.7246,3.7686,3.7787,3.7432,3.8159,3.8768,3.8971,3.9174,3.9292,3.9292,3.9783,3.9851,3.9326,3.9292,3.9292,3.9292,3.9709,3.9939,4.0106,4.0884,4.1457,4.1793,4.2042,4.1753,4.1008,4.1144,4.0547,3.9433,3.914,3.9038,3.9019,3.8799,3.8707,3.8707,3.8707,3.8707,3.8707,3.8707,3.8707,3.8707,0.0,0.0,0.0,0.0,0.0,0.0,0.0,0.0,0.0,0.0,0.0,0.0,0.0,1.9472,1.9883,2.168,2.2658,2.4324,2.6961,2.8923,3.0746,3.2478,3.3311,3.41,3.4899,3.4917,3.5752,3.7404,3.8212,3.9001,3.9808,4.0598,4.0965,4.0965,4.102,4.1206,4.1463,4.1212,4.1243,4.1425,4.0327,3.8921,3.7312,3.5679,3.3936,3.2238,3.1506,3.0753,2.999,2.9185,2.8952,2.8929,2.8621,2.8504,2.846,2.8402,2.8482,2.8809,2.9852,3.0849,3.1898,3.3003,3.5147,3.6895,3.6316,3.6761,3.7422,3.7708,3.7161,3.6874,3.7635,3.7178,3.6924,3.7686,3.7212,3.7246,3.8717,3.8345,3.8159,3.8853,3.8345,3.821,3.892,3.9631,4.0054,4.0054,4.007,4.007,4.0054,4.0054,4.0054,4.0054,4.0087,4.0334,4.0868,4.0915,4.1188,4.181,4.1817,4.1817,4.174,4.1507,4.1358,4.1269,4.0291,3.9845,3.979,3.9019,3.8707,3.8707,3.8707,3.8707,3.8707,3.8707,3.8707,3.8707,0.0,0.0,0.0,0.0,0.0,0.0,0.0,0.0,0.0,0.0,0.0,0.0,0.0,0.0,0.0,0.0,2.2954,2.4306,2.6351,2.8718,3.0588,3.1704,3.357,3.4715,3.499,3.5569,3.6395,3.7507,3.8303,3.9111,3.9918,4.0726,4.1111,4.113,4.1662,4.1948,4.206,4.1948,4.1948,4.1894,3.9908,3.9093,3.8726,3.5297,3.3613,3.2847,0.0,3.0033,2.9799,2.9135,2.8902,2.8934,2.9056,2.9034,2.8943,2.8827,2.9777,3.0908,3.1178,3.2323,3.372,3.4806,3.5985,3.696,3.7047,3.7422,3.7648,3.7242,3.6399,3.5625,3.5266,3.5103,3.5197,3.583,3.6842,3.7702,3.821,3.8886,3.9089,3.8362,3.8903,3.9242,3.9005,3.9208,3.9546,4.0037,4.007,4.007,4.007,4.007,4.007,4.007,4.007,4.0221,4.0368,4.1105,4.1241,4.0689,4.0191,4.049,4.1504,4.0578,4.0524,4.1188,4.0844,4.0396,3.9863,3.9606,3.9184,3.8707,3.8707,3.8707,3.8707,3.8707,3.8707,3.8707,0.0,0.0,0.0,0.0,0.0,0.0,0.0,0.0,0.0,0.0,0.0,0.0,0.0,0.0,0.0,0.0,0.0,2.4118,2.5553,2.7562,2.9211,3.0348,3.219,3.346,3.4,3.4548,3.5224,3.604,3.7186,3.8187,3.9025,4.0157,4.0983,4.1552,4.2066,4.2451,4.2708,4.2415,4.2139,4.1647,3.9583,3.8621,3.8094,3.479,3.3273,0.0,3.0302,2.9575,2.961,2.8968,2.8855,2.9026,2.9293,2.9375,2.9444,2.9734,3.0775,3.2063,3.3145,3.407,3.5078,3.6481,3.7292,3.7802,3.7866,3.8058,3.8069,3.7648,3.6239,3.4971,3.4616,3.4243,3.4169,3.4878,3.5839,3.6882,3.7908,3.8401,3.8605,3.8311,3.8886,3.9225,3.9005,3.8988,3.9292,4.002,4.007,4.007,4.007,4.007,4.007,4.007,4.007,4.007,4.007,4.1013,4.1105,4.0368,3.9729,4.0043,4.1202,4.0618,4.082,4.1681,4.1577,4.1075,4.0304,4.001,3.9423,3.8707,3.8707,3.8707,3.8707,3.8707,3.8707,3.8707,0.0,0.0,0.0,0.0,0.0,0.0,0.0,0.0,0.0,0.0,0.0,0.0,0.0,0.0,0.0,0.0,0.0,0.0,2.4687,2.5654,2.6952,2.8646,2.9526,3.0675,3.2154,3.2226,3.2653,3.3397,3.5162,3.6467,3.7314,3.8951,4.0524,4.1992,4.1992,4.2415,4.3057,4.2304,4.1519,4.0624,3.9154,3.7412,3.5592,3.4097,3.2741,3.1469,3.0034,2.9518,2.9384,2.8729,2.8822,2.9267,2.9524,2.9758,3.019,3.1204,3.1666,3.2543,3.5684,3.6002,3.597,3.8042,3.9012,3.9329,3.8794,3.8706,3.876,3.8812,3.6639,3.4934,3.5547,3.4584,3.4007,3.5065,3.4645,3.5184,3.7974,3.7229,3.7038,3.8783,3.8413,3.8294,3.8988,3.9056,3.9343,4.002,4.007,4.007,4.007,4.007,4.007,4.007,4.007,4.007,4.007,4.0607,4.0903,4.0949,4.0417,4.0417,4.0903,4.1534,4.2121,4.2696,4.2465,4.1882,4.1056,4.0286,3.946,3.8707,3.8707,3.8707,3.8707,3.8707,3.8707,3.8707,0.0,0.0,0.0,0.0,0.0,0.0,0.0,0.0,0.0,0.0,0.0,0.0,0.0,0.0,0.0,0.0,0.0,0.0,2.3965,2.5371,2.6627,2.7622,2.9671,3.122,3.2172,3.2799,3.3226,3.3455,3.4532,3.5228,3.5561,3.6637,3.7344,3.7747,3.7796,3.7948,3.8136,3.7904,3.7702,3.7371,3.5781,3.508,3.4709,3.2379,3.1222,3.0791,3.0163,2.9799,2.9467,2.8737,2.9685,3.1294,3.1893,3.2963,3.4023,3.4068,3.5385,3.7044,3.7898,3.8132,3.8487,4.0026,3.9967,3.9469,3.9287,3.9417,3.8905,3.6818,3.5206,3.3774,3.2627,3.2735,3.358,3.5205,3.6294,3.7485,3.9163,3.9264,3.9084,3.8988,3.9309,3.9597,3.9783,3.98,3.9884,4.007,4.007,4.007,4.007,4.007,4.007,4.007,4.007,4.007,4.007,4.0607,4.1133,4.1578,4.0967,4.078,4.0903,4.1534,4.2121,4.2732,4.3049,4.2396,4.1093,4.0891,3.9974,3.8707,3.8707,3.8707,3.8707,3.8707,3.8707,3.8707,0.0,0.0,0.0,0.0,0.0,0.0,0.0,0.0,0.0,0.0,0.0,0.0,0.0,0.0,0.0,0.0,0.0,0.0,0.0,2.4856,2.5942,2.6736,2.842,2.9701,3.0422,3.0872,3.0954,3.0603,3.1872,3.2583,3.2711,3.4027,3.5037,3.5772,3.5846,3.6086,3.6417,3.6066,3.567,0.0,0.0,3.3276,3.2795,3.14,3.0668,3.0313,2.9792,2.9627,2.9755,3.0797,3.2035,3.3291,3.4199,3.5329,3.6408,3.6812,3.7812,3.9001,4.0024,4.0141,4.0242,4.1356,4.1172,4.0489,3.9524,3.9264,3.8477,3.5822,3.3919,3.2327,3.1258,3.2072,3.3341,3.4582,3.6035,3.7595,3.926,3.9124,3.9027,3.9443,3.9834,4.007,4.007,4.007,4.007,4.007,4.007,4.007,4.007,4.007,4.007,4.007,4.007,4.0336,4.0861,4.0625,4.0967,4.181,4.0967,4.0528,4.0577,4.1402,4.1979,4.2324,0.0,4.2268,4.1075,4.0726,3.9827,3.8707,3.8707,3.8707,3.8707,3.8707,3.8707,3.8707,0.0,0.0,0.0,0.0,0.0,0.0,0.0,0.0,0.0,0.0,0.0,0.0,0.0,0.0,0.0,0.0,0.0,0.0,0.0,0.0,2.5188,2.6051,2.672,2.7441,2.8164,2.8182,2.7843,2.7086,2.8756,2.96,2.9802,3.1375,3.2948,3.4423,3.4474,3.4907,3.5588,3.4909,3.4136,3.3333,3.2733,3.1678,3.0476,0.0,3.0471,2.9761,2.9241,2.9347,3.0233,3.3564,3.4824,3.5229,3.6367,3.7356,3.8305,3.943,3.96,3.9863,4.1958,4.1897,4.1423,4.2117,4.2224,4.158,3.9427,3.8631,3.7637,3.5278,3.2951,3.1211,3.0955,3.211,3.3289,3.3881,3.5131,3.6816,3.9129,3.8478,3.8425,4.0097,4.0237,4.0204,4.0204,4.0121,4.007,4.007,4.007,4.007,4.007,4.007,4.007,4.007,4.007,4.0594,4.1664,4.0672,4.072,4.1664,4.0672,4.0171,4.0121,4.1181,4.1609,4.1556,4.2069,4.1812,4.0939,4.0419,3.9735,3.9019,3.9019,3.8946,3.8854,3.8854,3.8854,3.8836,0.0,0.0,0.0,0.0,0.0,0.0,0.0,0.0,0.0,0.0,2.199,2.301,0.0,0.0,0.0,0.0,0.0,0.0,0.0,0.0,0.0,2.5906,2.6619,2.7371,2.8164,2.8182,2.8165,2.8156,2.8513,2.8837,2.9082,2.9494,2.9908,3.0243,3.0309,3.0423,3.0575,3.0488,3.0315,3.0095,2.9996,2.9632,2.9191,2.9664,0.0,0.0,2.9116,2.983,3.103,3.4446,3.6111,3.6972,3.8042,3.991,4.1679,4.1652,4.1863,4.2366,4.3423,4.2899,4.2121,4.2279,4.1791,4.076,3.866,3.7767,3.6667,3.4323,3.3102,3.2116,3.1232,3.2114,3.3567,3.5187,3.6157,3.781,4.0898,4.0717,4.0607,4.1411,4.1041,4.078,4.078,4.0368,4.007,4.007,4.007,4.007,4.007,4.007,4.007,4.007,4.007,4.0417,4.1041,4.0874,4.0874,4.1041,4.0874,4.0528,4.0104,4.0595,4.0559,4.0236,4.1687,0.0,4.0509,4.1492,4.1423,4.0689,4.0689,4.0286,3.968,3.968,3.968,3.9588,0.0,0.0,0.0,0.0,0.0,0.0,0.0,1.9732,2.0391,2.1478,2.2348,2.2919,2.3095,2.3151,2.3295,0.0,0.0,0.0,0.0,0.0,0.0,0.0,0.0,0.0,2.8099,2.8025,2.7895,2.7673,0.0,2.8352,2.8177,2.8338,2.8513,2.868,2.8759,2.8799,2.8857,2.9286,2.9433,2.939,2.9372,2.9163,2.8876,0.0,0.0,0.0,2.914,2.9781,3.0658,3.3366,3.5609,3.762,3.9698,4.1284,4.2397,4.2642,4.2632,4.2723,4.3536,4.3336,4.291,4.2926,4.232,4.1064,3.8616,3.7223,3.5651,3.2951,3.185,3.1194,3.0542,3.1998,3.3634,3.4506,3.6015,3.7888,4.0341,4.0338,4.0551,4.1662,4.1268,4.0903,4.0903,4.04,4.007,4.007,4.007,4.007,4.007,4.007,4.007,4.007,4.007,4.0514,4.1358,4.0797,4.0797,4.1358,4.075,4.0319,4.0104,4.0874,4.1075,4.0884,4.1905,4.1674,4.0773,4.1397,4.1203,4.0524,4.0946,4.0873,4.0524,4.0524,4.0267,3.9827,0.0,0.0,0.0,0.0,0.0,0.0,0.0,2.0274,2.0852,2.2176,2.2502,2.2685,2.2919,2.2944,2.3045,0.0,0.0,0.0,0.0,0.0,0.0,0.0,0.0,0.0,0.0,0.0,0.0,2.7166,2.7951,0.0,0.0,0.0,0.0,0.0,2.8072,2.8054,2.8165,2.8933,2.9231,0.0,0.0,2.9246,0.0,0.0,0.0,0.0,0.0,2.9494,2.9875,3.212,3.4349,3.6689,3.9545,4.1108,4.1992,4.2347,4.2276,4.2331,4.3321,4.3529,4.3442,4.3277,4.2632,4.1313,3.8452,3.6606,3.473,3.2046,3.0924,3.0288,3.0036,3.1698,3.3226,3.359,3.5169,3.7193,3.9536,3.9638,4.0157,4.1948,4.1516,4.1087,4.1087,4.0497,4.007,4.007,4.007,4.007,4.007,4.007,4.007,4.007,4.007,4.0514,4.142,4.0563,4.0563,4.142,4.0625,4.0303,4.0353,4.1288,4.1671,4.1594,4.2087,4.187,4.1217,4.1519,4.124,4.0726,4.1368,4.1515,4.135,4.1167,4.0708,4.0102,0.0,0.0,0.0,0.0,0.0,0.0,0.0,2.0276,2.0941,2.1742,2.2289,2.2632,2.2712,2.2738,2.2816,0.0,0.0,0.0,0.0,0.0,0.0,0.0,0.0,0.0,0.0,0.0,0.0,2.7654,2.7974,0.0,0.0,0.0,0.0,0.0,0.0,2.7158,2.727,2.8073,0.0,0.0,0.0,0.0,0.0,0.0,0.0,0.0,0.0,2.9053,2.9125,3.1887,3.2717,3.299,3.5321,3.8461,4.1079,3.9986,4.0531,4.1846,4.3497,4.3726,4.3314,4.2598,4.1812,4.0449,3.75,3.5652,3.406,3.2429,3.1549,3.0949,3.0661,3.1043,3.1951,3.3623,3.3751,3.5322,4.0121,4.0267,4.072,4.3049,4.2386,4.1725,4.1725,4.0737,4.007,4.007,4.007,4.007,4.007,4.007,4.007,4.007,4.007,4.0171,4.0254,4.0171,4.0171,4.0254,4.0655,4.0844,4.0908,4.1256,4.1214,4.0854,4.1868,4.199,0.0,4.279,4.3222,4.3167,4.324,4.2818,4.2103,4.1387,4.1056,4.0799,0.0,0.0,0.0,0.0,0.0,0.0,1.9517,1.98,2.0298,2.1416,2.1713,2.1958,2.2354,2.2405,2.2497,2.2738,0.0,0.0,0.0,0.0,0.0,0.0,0.0,0.0,0.0,0.0,2.76,2.7864,2.7915,0.0,0.0,0.0,0.0,0.0,0.0,2.7159,2.641,2.7681,0.0,0.0,0.0,0.0,0.0,0.0,0.0,0.0,0.0,0.0,2.8895,2.9966,3.1413,3.2577,3.1501,3.3993,3.7641,3.9156,3.9723,4.0415,4.3005,4.3758,4.3666,4.3143,4.1364,3.9241,3.7433,3.4868,3.2655,3.1884,3.092,3.0335,3.0571,3.1001,3.1446,3.1959,3.3208,3.5098,3.7824,3.876,4.0013,4.2265,4.1665,4.1432,4.2351,4.1457,4.0933,4.1373,4.1001,4.0747,4.0747,4.0324,4.007,4.007,4.007,4.0254,4.0577,4.0237,4.0237,4.0577,4.078,4.0903,4.0967,4.1823,4.2073,4.1956,4.2686,4.2624,0.0,4.308,4.3204,4.2782,4.2782,4.258,4.2194,4.1405,4.0799,4.0286,0.0,0.0,0.0,0.0,0.0,1.8768,1.96,1.9777,2.0216,2.1416,2.1644,2.1846,2.2243,2.2192,2.2203,2.2398,2.247,0.0,0.0,0.0,0.0,0.0,0.0,0.0,0.0,0.0,2.7478,2.7748,2.7748,2.7876,0.0,0.0,2.704,2.6515,0.0,0.0,0.0,0.0,0.0,0.0,0.0,0.0,0.0,0.0,0.0,0.0,0.0,0.0,0.0,0.0,0.0,3.1769,2.9584,3.098,3.3982,3.6876,3.8096,3.9142,4.1907,4.3258,4.3772,4.3373,4.1071,3.8522,3.7155,3.4492,3.2127,3.138,3.0745,3.044,3.0798,3.0981,3.1166,3.1513,3.2762,3.4408,3.6506,3.7624,3.9031,4.1161,4.082,4.0878,4.2017,4.155,4.1508,4.2236,4.1627,4.1305,4.1508,4.0815,4.0307,4.0087,4.007,4.0286,4.0655,4.0286,4.0286,4.0655,4.081,4.0903,4.0949,4.2162,4.2711,4.275,4.325,4.3167,0.0,4.3259,4.3167,4.2653,4.2653,4.2653,4.2525,4.1497,4.0744,4.0194,0.0,0.0,0.0,0.0,0.0,0.0,1.9877,2.0445,2.1057,2.1803,2.2288,2.2552,2.2515,2.2186,2.1998,2.2027,2.2192,0.0,0.0,0.0,0.0,0.0,0.0,0.0,0.0,0.0,2.7213,2.7213,2.7478,2.7659,2.78,2.7335,2.6806,2.6277,0.0,0.0,0.0,0.0,0.0,0.0,0.0,0.0,0.0,0.0,0.0,0.0,0.0,0.0,0.0,0.0,0.0,0.0,0.0,3.0221,3.0494,3.2261,3.5214,3.8325,4.0231,4.2079,4.3375,4.2864,4.0889,3.8545,3.6474,3.4609,3.2841,3.1242,3.1339,3.1758,3.1614,3.1022,3.1102,3.2984,3.2168,3.281,3.7077,3.7365,3.7878,3.9986,4.0146,4.0146,4.0202,4.0837,4.1508,4.2236,4.1627,4.1525,4.2236,4.1593,4.0849,4.0104,4.007,4.0121,4.0121,4.0121,4.0121,4.0121,4.0655,4.0903,4.0949,4.2162,4.2711,4.275,4.325,4.3497,0.0,4.3497,4.3497,4.3479,4.3479,4.3479,4.3277,4.1699,4.1111,4.0873,0.0,0.0,0.0,0.0,0.0,0.0,0.0,2.0119,2.0598,2.1733,2.1993,2.2159,2.249,2.236,2.2203,2.2027,2.2147,0.0,0.0,0.0,0.0,0.0,0.0,0.0,0.0,0.0,2.6485,2.6528,2.713,2.7452,2.76,2.7571,2.7272,2.6763,2.6676,2.6254,0.0,0.0,0.0,0.0,0.0,0.0,2.881,0.0,0.0,0.0,0.0,0.0,0.0,0.0,0.0,0.0,0.0,0.0,0.0,3.132,3.3303,3.5933,3.8194,3.9352,3.9831,3.9283,3.7309,3.5279,3.4545,3.298,3.1782,3.1913,3.1447,3.121,3.1646,3.141,3.1429,3.2326,3.3379,3.4746,3.6631,3.7857,3.9293,4.1125,4.2665,4.3438,4.3071,4.3339,4.3606,4.3826,4.2675,4.2049,4.2286,4.1102,4.0324,4.0087,4.0578,4.0595,4.007,4.007,4.007,4.0138,4.0655,4.0903,4.0949,4.2162,4.2711,4.275,4.325,4.3497,4.3497,4.3497,4.3497,4.3442,4.2892,4.2671,4.2543,4.1497,4.1111,4.0965,0.0,0.0,0.0,0.0,0.0,0.0,0.0,2.0598,2.105,2.1831,2.2148,2.2362,2.2554,2.246,2.2304,2.2089,2.2118,0.0,0.0,0.0,0.0,0.0,0.0,0.0,0.0,2.5184,2.5749,2.5703,2.6454,2.6833,2.6926,2.7339,2.728,2.6828,2.6986,2.6691,0.0,0.0,0.0,0.0,0.0,0.0,2.8128,0.0,0.0,0.0,0.0,0.0,0.0,0.0,0.0,0.0,0.0,0.0,0.0,0.0,3.2001,3.3898,3.6146,3.744,3.7987,3.7269,3.5525,3.3771,3.3315,3.2118,3.1257,3.1839,3.1729,3.1573,3.188,3.1885,3.1933,3.2104,3.3542,3.5058,3.6326,3.8075,4.0055,4.2213,4.3453,4.4091,4.3825,4.4007,4.4147,4.4147,4.325,4.2591,4.2303,4.1424,4.0646,4.0104,4.0544,4.0544,4.007,4.007,4.007,4.0121,4.0449,4.0625,4.0607,4.1613,4.2038,4.2062,4.2884,4.3214,0.0,4.341,4.3497,4.3442,4.2947,4.2745,4.2653,4.1864,4.1552,4.1442,0.0,0.0,0.0,0.0,0.0,0.0,0.0,2.171,2.2171,2.2071,2.2669,2.2995,2.2738,2.2525,2.2377,2.2225,0.0,0.0,0.0,0.0,0.0,0.0,0.0,0.0,2.4086,2.4836,2.5079,2.4827,2.5622,2.5939,2.5843,2.6573,2.6757,2.6468,2.6416,2.6169,0.0,0.0,0.0,0.0,0.0,0.0,0.0,0.0,0.0,0.0,0.0,0.0,0.0,0.0,0.0,0.0,0.0,0.0,0.0,0.0,0.0,0.0,0.0,3.6061,3.7256,3.6374,3.5018,3.3625,3.2658,3.186,0.0,3.1292,3.2014,3.2543,3.2216,3.2395,3.2505,3.2201,3.2893,3.4217,3.6307,3.8239,4.049,4.3139,4.3054,4.2787,4.2836,4.3237,4.3504,4.3504,4.3403,4.3031,4.2337,4.2185,4.1508,4.0121,4.007,4.007,4.007,4.007,4.007,4.007,4.007,4.007,4.0121,4.0707,4.0955,0.0,4.2162,4.2673,4.2693,4.325,4.3479,4.3444,4.3497,4.3497,4.3406,4.2653,4.2344,4.2234,0.0,0.0,0.0,0.0,0.0,0.0,0.0,0.0,0.0,0.0,2.3021,2.3045,2.2868,2.2764,2.2632,0.0,0.0,0.0,0.0,0.0,0.0,0.0,0.0,0.0,2.305,2.4475,2.4819,2.3979,2.5347,2.5678,2.5069,2.521,2.5592,2.616,2.5703,2.582,0.0,0.0,0.0,0.0,0.0,0.0,0.0,0.0,0.0,0.0,2.8042,2.7893,0.0,0.0,0.0,0.0,0.0,0.0,0.0,0.0,3.105,3.176,3.2234,0.0,3.3371,3.3023,3.2334,3.1664,0.0,3.1067,3.1173,3.127,3.1325,3.1351,3.1389,3.2009,3.2383,3.1959,3.3761,3.5717,3.7131,4.0835,4.3524,4.3887,4.4828,4.4876,4.3388,4.3888,4.4316,4.4316,4.3217,4.2472,4.2303,4.1221,4.0443,4.0087,4.007,4.007,4.007,4.007,4.007,4.007,4.007,4.007,4.0121,4.0672,4.0903,4.0949,4.2162,4.244,4.208,4.3069,4.325,4.2939,4.3339,4.3497,4.3461,4.3277,4.2976,4.2558,0.0,0.0,0.0,0.0,0.0,0.0,0.0,0.0,0.0,0.0,0.0,2.3144,2.2952,2.2902,0.0,0.0,0.0,0.0,0.0,0.0,0.0,0.0,0.0,2.2552,2.2623,2.3467,2.3618,2.3056,2.4151,2.4448,2.4062,2.4309,2.4927,2.5874,2.6006,2.6363,0.0,0.0,0.0,0.0,2.7291,0.0,0.0,0.0,0.0,0.0,2.7824,2.7748,0.0,2.76,2.7726,2.7898,0.0,0.0,0.0,0.0,3.0187,3.0832,3.121,3.1637,3.1948,3.1746,3.1411,3.0998,3.0659,3.0647,3.0745,3.0909,3.0916,3.0883,3.0767,3.1861,3.2672,3.2148,3.4528,3.7122,3.9102,4.1777,4.3887,4.482,4.5366,4.5543,4.5283,4.5128,4.4998,4.4998,4.3654,4.2658,4.2303,4.1204,4.0443,4.0087,4.007,4.024,4.0595,4.0257,4.0257,4.0595,4.024,4.007,4.0121,4.0417,4.0528,4.0577,4.1768,4.1937,4.149,4.2657,4.274,4.2152,4.2551,4.2796,4.2949,4.2776,4.2865,4.2996,0.0,0.0,0.0,0.0,0.0,0.0,0.0,0.0,0.0,0.0,0.0,0.0,0.0,0.0,0.0,0.0,0.0,0.0,0.0,0.0,0.0,0.0,0.0,2.2315,2.2487,2.2535,2.2496,2.231,2.2858,2.31,2.302,2.3529,2.4342,2.5471,2.6379,2.6918,0.0,0.0,0.0,2.621,2.6813,0.0,0.0,0.0,0.0,0.0,0.0,0.0,0.0,2.7478,2.7316,2.7192,2.704,0.0,0.0,0.0,0.0,0.0,3.0549,3.1317,3.1849,3.1709,3.1432,3.1089,3.0868,3.0558,3.0348,3.0434,3.0616,3.0704,3.0525,3.2037,3.3202,3.2605,3.5248,3.8467,4.1486,4.2395,4.3503,4.5572,4.5457,4.5672,4.683,4.6164,4.5597,4.5511,4.416,4.3071,4.232,4.1593,4.0849,4.0104,4.029,4.073,4.1373,4.051,4.0392,4.1018,4.0392,4.007,4.007,4.007,4.007,4.0171,0.0,0.0,4.0874,4.208,4.2034,4.1217,4.1618,4.1902,4.2066,4.1998,4.2426,4.2959,0.0,0.0,0.0,0.0,0.0,0.0,0.0,0.0,0.0,0.0,0.0,0.0,0.0,0.0,0.0,0.0,0.0,0.0,0.0,0.0,0.0,2.2056,2.2113,2.2198,2.2332,2.3039,2.3056,2.2304,2.2946,2.2891,2.2166,2.2152,2.3026,2.4601,2.5228,2.5967,2.6758,2.6624,2.6556,2.6556,2.6691,0.0,0.0,0.0,0.0,0.0,0.0,0.0,0.0,2.7087,2.7317,2.7467,2.6758,0.0,0.0,0.0,0.0,0.0,2.9556,3.073,3.1901,3.1942,3.1735,3.1519,3.1399,3.111,3.0756,3.0348,3.0195,3.0363,3.1166,3.2861,3.389,3.3177,3.605,3.9636,4.3208,4.4656,4.5352,4.5399,4.6336,4.6464,4.4981,4.5716,4.6063,4.5545,4.4162,4.303,4.2339,4.1593,4.0849,4.0104,4.1288,4.2016,4.2117,4.0764,4.0138,4.0257,4.0121,4.007,4.007,4.007,4.007,4.0121,0.0,4.075,4.0286,4.1464,4.1205,4.0158,4.1321,4.1458,4.1074,4.2174,4.2021,4.1296,0.0,0.0,0.0,0.0,0.0,0.0,0.0,0.0,0.0,0.0,0.0,0.0,0.0,0.0,0.0,0.0,0.0,0.0,0.0,0.0,0.0,2.2027,2.201,2.2084,2.213,2.2478,2.2541,2.2237,2.2471,2.2362,2.2015,2.2715,2.3649,2.478,2.536,2.5909,2.6314,2.6367,2.6383,2.6399,0.0,0.0,0.0,0.0,0.0,0.0,0.0,0.0,0.0,0.0,2.6911,2.6957,2.6621,0.0,0.0,0.0,0.0,0.0,2.8755,2.9625,3.051,3.127,3.2017,3.2451,3.2012,3.1974,3.1851,3.1262,3.108,3.1305,3.211,3.3423,3.4929,3.649,3.8637,4.0865,4.3041,4.4053,4.4821,4.5533,4.6166,4.6539,4.6527,4.7158,4.7283,4.6578,4.4949,4.3625,4.2877,4.1393,4.0443,4.0087,4.0747,4.1288,4.1694,4.0629,4.0476,4.1271,4.046,4.007,4.007,4.007,4.007,4.0121,0.0,4.0625,4.0171,4.0967,4.068,3.9818,4.0597,4.0769,4.079,4.1836,4.1464,4.0497,0.0,0.0,0.0,0.0,0.0,0.0,0.0,0.0,0.0,0.0,0.0,0.0,0.0,0.0,0.0,0.0,0.0,0.0,0.0,0.0,2.2192,2.2027,2.1998,2.1998,2.1998,2.194,2.1974,2.2152,2.1974,2.1982,2.2224,2.3314,2.4281,2.5076,2.548,2.579,2.599,2.6154,2.6225,2.6241,0.0,0.0,0.0,0.0,0.0,0.0,0.0,0.0,0.0,0.0,0.0,0.0,0.0,0.0,0.0,2.6611,2.6733,2.6872,2.7872,2.8744,2.9576,3.0346,3.1736,3.2846,3.2707,3.2906,3.3007,3.2694,3.2627,3.282,3.345,3.4374,3.6146,3.9251,4.0459,4.1558,4.3033,4.3557,4.4474,4.6232,4.6415,4.6891,4.8196,4.8462,4.8242,4.7439,4.5701,4.4301,4.355,4.1656,4.0474,4.0286,4.0493,4.0781,4.1204,4.0629,4.0916,4.2016,4.0696,4.007,4.007,4.007,4.007,4.0121,4.0528,4.0497,4.0121,4.0528,4.0272,3.9576,3.9965,4.0328,4.0742,4.1236,4.0938,4.0336,0.0,0.0,0.0,0.0,0.0,0.0,0.0,0.0,0.0,0.0,0.0,0.0,0.0,0.0,0.0,0.0,0.0,0.0,0.0,0.0,2.2068,2.1982,2.1998,2.1998,2.1998,2.194,2.194,2.2027,2.1869,2.2175,2.2855,2.3,2.3751,2.4923,2.4781,2.5154,2.5917,2.599,2.6118,2.6295,2.6537,0.0,0.0,0.0,0.0,0.0,0.0,0.0,0.0,0.0,0.0,0.0,0.0,0.0,2.5897,2.5803,2.6156,2.6566,2.671,2.8631,3.0344,2.9486,3.0312,3.1773,3.3419,3.3765,3.3955,3.4705,3.4858,3.4961,3.5329,3.6242,3.7533,3.9376,3.9806,4.1104,4.4453,4.4957,4.5754,4.7901,4.8122,4.8177,4.8306,4.8304,4.805,4.7446,4.5936,4.4767,4.4067,4.2748,4.1605,4.0891,4.1665,4.183,4.1221,4.1153,4.117,4.1271,4.046,4.007,4.007,4.007,4.007,4.007,4.0121,4.0121,4.0121,4.0121,3.973,3.9105,3.985,4.0431,4.0834,4.04,4.0497,4.078,0.0,0.0,0.0,0.0,0.0,0.0,0.0,0.0,0.0,0.0,0.0,0.0,0.0,0.0,0.0,0.0,0.0,0.0,0.0,2.2248,2.2089,2.194,2.1969,2.1969,2.1869,2.1899,2.1899,2.1869,2.1869,2.2252,2.2953,2.3512,2.4149,2.4905,2.5258,2.5509,2.5749,2.6046,2.6118,2.6099,2.6504,2.6657,0.0,0.0,0.0,0.0,0.0,0.0,0.0,0.0,2.6222,2.6115,2.6115,2.6043,2.5954,2.5844,2.5912,2.6053,2.6326,2.803,2.9659,2.9173,3.0385,3.2176,3.3716,3.4423,3.48,3.5009,3.5723,3.6424,3.6642,3.795,3.9071,3.942,4.088,4.2597,4.4314,4.5684,4.6985,4.8155,4.8306,4.8306,4.8306,4.8783,4.8577,4.732,4.6368,4.5162,4.3483,4.2079,4.106,4.0417,4.0747,4.1018,4.1204,4.0747,4.0747,4.1187,4.0443,4.007,4.007,4.007,4.007,4.007,4.007,4.007,4.007,4.007,3.9918,3.9698,3.9969,4.0204,4.0368,4.0154,4.0254,4.0368,0.0,0.0,0.0,0.0,0.0,0.0,0.0,0.0,0.0,0.0,0.0,0.0,0.0,0.0,0.0,0.0,0.0,0.0,2.2453,2.2276,2.2106,2.1928,2.194,2.1928,2.184,2.1911,2.1911,2.1797,2.1869,2.2398,2.3364,2.3896,2.4547,2.5285,2.5796,2.5881,2.5712,2.6134,2.6189,2.6063,2.6435,2.6607,0.0,0.0,0.0,0.0,0.0,0.0,0.0,0.0,2.6239,2.622,2.622,2.6132,2.6026,2.5934,2.5881,2.5905,2.6128,2.7627,2.9046,2.8902,3.0676,3.2816,3.4218,3.503,3.5635,3.6134,3.7075,3.7837,3.7957,3.899,3.9712,3.9347,4.0957,4.2632,4.3678,4.5293,4.6777,4.7807,4.8159,4.8306,4.8306,4.8618,4.8343,4.7205,4.6121,4.4962,4.3625,4.185,4.0827,4.0642,4.0303,4.0324,4.0849,4.0341,4.0341,4.0849,4.0324,4.007,4.007,4.007,4.007,4.007,4.007,4.007,4.007,4.007,4.007,4.007,4.007,4.007,4.007,4.007,4.007,4.007,0.0,0.0,0.0,0.0,0.0,0.0,0.0,0.0,0.0,0.0,0.0,0.0,0.0,0.0,0.0,0.0,0.0,0.0,2.2124,2.2096,2.2039,2.1882,2.1899,2.1899,2.1899,2.201,2.1998,2.1781,2.1886,2.2665,2.4097,2.4114,2.4796,2.601,2.6225,2.6154,2.5934,2.6189,2.6295,2.6295,2.6295,2.6453,2.6691,0.0,0.0,0.0,0.0,0.0,0.0,0.0,2.6312,2.622,2.622,2.622,2.6168,2.597,2.6059,2.6168,2.6043,2.7361,2.8757,2.8565,3.0881,3.3591,3.4966,3.5538,3.6413,3.8548,3.918,3.9262,3.92,3.9279,3.9262,3.92,3.9713,4.0788,4.2705,4.3722,4.4915,4.6852,4.7829,4.8306,4.8306,4.759,4.7113,4.7075,4.5103,4.4118,4.4655,4.2268,4.1178,4.1768,4.0689,4.007,4.007,4.007,4.007,4.007,4.007,4.007,4.007,4.007,4.007,4.007,4.007,4.007,4.007,4.007,4.007,4.007,4.007,4.007,4.007,4.007,4.007,4.007,0.0,0.0,0.0,0.0,0.0,0.0,0.0,0.0,0.0,0.0,0.0,0.0,0.0,0.0,0.0,0.0,0.0,0.0,2.2248,2.2068,2.1899,2.1768,2.184,2.1911,2.1969,2.2068,2.2068,2.2027,2.2551,2.3023,2.3491,2.4478,2.5113,2.5461,2.6027,2.6189,2.599,2.626,2.6243,2.6118,2.6382,2.6504,2.6521,0.0,0.0,0.0,0.0,0.0,0.0,0.0,0.0,0.0,2.6258,2.6364,2.645,2.6168,2.6293,2.6517,2.673,2.8089,2.9571,2.9972,3.2194,3.4532,3.5258,3.5844,3.6751,3.8631,3.8693,3.8584,3.916,3.9591,3.9729,3.9347,4.0187,4.1392,4.3014,4.4219,4.5588,4.712,4.7889,4.8306,4.8306,4.759,4.6874,4.6305,4.5132,4.3958,4.2723,4.1959,4.1241,4.0642,4.0303,4.007,4.007,4.007,4.007,4.007,4.007,4.007,4.007,4.007,4.007,4.007,4.007,4.007,4.007,4.007,4.007,4.007,4.007,4.007,4.007,4.007,4.007,4.007,0.0,0.0,0.0,0.0,0.0,0.0,0.0,0.0,0.0,0.0,0.0,0.0,0.0,0.0,0.0,0.0,0.0,0.0,0.0,2.2039,2.1911,2.1738,2.184,2.1969,2.2186,2.2215,2.2406,2.2779,2.3085,2.3533,2.412,2.4627,2.5146,2.5629,2.5864,2.5959,2.601,2.6225,2.6189,2.6026,2.6347,2.6452,2.6453,0.0,0.0,0.0,0.0,0.0,0.0,0.0,0.0,0.0,2.6258,2.6329,2.6415,2.6256,2.6599,2.7076,2.7261,2.8808,3.046,3.0818,3.3001,3.5318,3.6246,3.6939,3.7814,3.9156,3.9105,3.8967,3.9523,3.9866,3.9968,3.9676,4.0256,4.1257,4.2656,4.4021,4.5374,4.674,4.7755,4.8177,4.7865,4.7113,4.6305,4.548,4.4474,4.3391,4.2239,4.1707,4.115,4.0449,4.0204,4.007,4.007,4.007,4.007,4.007,4.007,4.007,4.007,4.007,4.007,4.007,4.007,4.007,4.007,4.007,4.007,4.007,4.007,4.007,4.007,4.007,4.007,4.007,0.0,0.0,0.0,0.0,0.0,0.0,0.0,0.0,0.0,0.0,2.1493,0.0,0.0,0.0,0.0,0.0,0.0,0.0,0.0,0.0,2.1998,2.1811,2.1899,2.2147,2.2515,2.25,2.2948,2.3891,2.3553,2.4099,2.5479,2.4743,2.508,2.6332,2.5765,2.5696,2.6046,2.6134,2.6099,2.5974,2.6189,2.633,2.6418,2.6759,0.0,0.0,0.0,0.0,0.0,0.0,0.0,0.0,2.6203,2.6203,2.6256,2.6286,2.6966,2.7734,2.7796,2.9471,3.1224,3.136,3.3575,3.6117,3.7672,3.8579,3.9242,3.99,4.002,4.007,4.007,4.007,4.007,4.007,4.007,4.0576,4.1836,4.3219,4.4609,4.5978,4.7277,4.7829,4.7186,4.6305,4.5498,4.4764,4.3505,4.275,4.2616,4.1578,4.0949,4.0827,4.0368,4.0121,4.0154,4.0121,4.0121,4.0154,4.0121,4.007,4.007,4.007,4.007,4.007,4.007,4.007,4.007,4.007,4.007,4.007,4.007,4.007,4.007,4.007,4.007,4.007,0.0,0.0,0.0,0.0,0.0,0.0,0.0,0.0,0.0,0.0,0.0,0.0,0.0,0.0,0.0,0.0,0.0,0.0,0.0,0.0,2.184,2.1797,2.2135,2.2415,2.2659,2.305,2.3687,2.4584,2.4177,2.4555,2.5593,2.5765,2.6168,2.6775,2.6421,2.6283,2.6314,2.6118,2.5937,2.5775,2.6082,2.6241,2.6295,2.6842,2.7038,0.0,0.0,0.0,0.0,0.0,0.0,0.0,2.6312,2.6399,2.6586,2.6886,2.7423,2.813,2.9072,3.0241,3.1517,3.2785,3.5256,3.7636,3.8557,3.9355,3.973,3.934,3.9697,4.007,4.007,4.007,4.007,4.007,4.007,4.0392,4.1291,4.2486,4.3793,4.533,4.6059,4.6599,4.7076,4.581,4.4892,4.4727,4.3832,4.2958,4.2021,4.1768,4.1196,4.0286,4.0171,4.0286,4.0733,4.0336,4.0336,4.0733,4.0286,4.007,4.007,4.007,4.007,4.007,4.007,4.007,4.007,4.007,4.007,4.007,4.007,4.007,4.007,4.007,4.007,4.007,0.0,0.0,0.0,0.0,0.0,0.0,0.0,0.0,0.0,0.0,0.0,0.0,0.0,0.0,0.0,0.0,0.0,0.0,0.0,0.0,2.1857,2.2007,2.2276,2.2487,2.2605,2.3147,2.382,2.4658,2.456,2.5096,2.6116,2.6017,2.6236,2.6725,2.6219,2.603,2.6154,2.6026,2.5791,2.5605,2.6082,2.6189,2.6154,2.6775,2.6973,2.6891,2.6858,0.0,0.0,0.0,0.0,0.0,0.0,0.0,2.6567,2.7105,2.7808,2.8564,2.958,3.0769,3.211,3.3643,3.5732,3.7568,3.8297,3.9056,3.9545,3.9528,3.985,4.007,4.007,4.007,4.007,4.007,4.007,4.0341,4.1102,4.2002,4.3135,4.4572,4.5215,4.5605,4.592,4.5204,4.4544,4.4158,4.3736,4.3014,4.1853,4.181,4.1286,4.0121,4.007,4.0254,4.048,4.0254,4.0254,4.048,4.0254,4.007,4.007,4.007,4.007,4.007,4.007,4.007,4.007,4.007,4.007,4.007,4.007,4.007,4.007,4.007,4.007,4.007,0.0,0.0,0.0,0.0,0.0,0.0,0.0,0.0,0.0,0.0,0.0,0.0,0.0,0.0,0.0,0.0,0.0,0.0,0.0,0.0,0.0,2.2185,2.2349,2.2483,2.262,2.3114,2.3779,2.4644,2.4946,2.5661,2.6657,2.6015,2.605,2.6572,2.5916,2.5746,2.5954,2.5954,2.577,2.5454,2.6046,2.6189,2.6099,2.6657,2.6792,2.6691,2.6691,2.6691,2.664,2.6623,0.0,0.0,0.0,0.0,2.6462,2.7308,2.8065,2.8862,2.9777,3.1162,3.2628,3.4117,3.5569,3.6775,3.754,3.8381,3.9189,3.9799,4.0036,4.007,4.007,4.007,4.007,4.007,4.007,4.029,4.0916,4.1653,4.2544,4.3784,4.4474,4.4815,4.471,4.458,4.4213,4.3534,4.3497,4.3014,4.1853,4.181,4.1286,4.0121,4.007,4.0171,4.0254,4.0171,4.0171,4.0254,4.0171,4.007,4.007,4.007,4.007,4.007,4.007,4.007,4.007,4.007,4.007,4.007,4.007,4.007,4.007,4.007,4.007,4.007,0.0,0.0,0.0,0.0,0.0,0.0,0.0,0.0,0.0,0.0,2.1215,2.1325,0.0,0.0,0.0,0.0,0.0,0.0,2.1797,0.0,0.0,2.2197,2.2118,2.2404,2.3106,2.3501,2.4199,2.5179,2.576,2.6245,2.6606,2.6334,2.6369,2.6691,2.6623,2.6437,2.617,2.6225,2.599,2.5616,2.6026,2.6206,2.6189,2.6607,2.6742,2.6691,2.6691,2.6825,2.6909,2.6674,2.6657,0.0,0.0,0.0,2.6526,2.7734,2.829,2.881,3.0216,3.1429,3.2628,3.4117,3.5131,3.596,3.6772,3.8029,3.9025,3.9139,3.9664,4.007,4.007,4.007,4.007,4.007,4.007,4.0104,4.0206,4.1186,4.2167,4.3058,4.3496,4.3959,4.4654,4.4066,4.3608,4.3497,4.3497,4.3014,4.1853,4.181,4.1286,4.0121,4.007,4.0336,4.078,4.0336,4.0336,4.078,4.0336,4.007,4.007,4.007,4.007,4.007,4.007,4.007,4.007,4.007,4.007,4.007,4.007,4.007,4.007,4.007,4.007,4.007,0.0,0.0,0.0,0.0,0.0,0.0,0.0,0.0,0.0,0.0,0.0,2.1262,0.0,0.0,0.0,2.1634,2.1708,2.1768,2.1797,2.1899,2.1986,2.2089,2.2027,2.235,2.3137,2.3635,2.4332,2.5246,2.5927,2.6329,2.6452,2.6623,2.6691,2.6657,2.6691,2.6487,2.6026,2.6187,2.6079,2.5787,2.6118,2.6045,2.5781,2.6421,2.6437,2.615,2.6639,2.6809,2.6792,2.6775,2.6742,2.6657,2.6521,0.0,0.0,0.0,2.7781,2.8189,2.9772,3.0851,3.1962,3.3508,3.4438,3.5301,3.6502,3.7621,3.8383,3.8398,3.9309,4.007,4.007,4.007,4.007,4.007,4.007,4.0204,4.0497,4.0967,4.1657,4.2708,4.2969,4.3324,4.394,4.3699,4.3497,4.3497,4.3214,4.2675,4.1835,4.149,4.092,4.0121,4.007,4.0204,4.0449,4.0204,4.0204,4.0449,4.0204,4.007,4.007,4.007,4.007,4.007,4.007,4.007,4.007,4.007,4.007,4.007,4.007,4.007,4.007,4.007,4.007,4.007,0.0,0.0,0.0,0.0,0.0,0.0,0.0,0.0,0.0,0.0,0.0,0.0,0.0,0.0,0.0,0.0,2.1768,2.184,2.1797,2.1869,2.1911,2.1969,2.2153,2.2545,2.325,2.3868,2.4562,2.5393,2.5959,2.626,2.6365,2.6708,2.6742,2.6521,2.6708,2.6504,2.5917,2.6151,2.6115,2.5937,2.5955,2.5713,2.5446,2.6134,2.6082,2.571,2.6588,2.6792,2.6674,2.6809,2.6775,2.664,2.6589,2.6554,0.0,0.0,0.0,2.794,2.9432,3.0269,3.1106,3.2747,3.3677,3.4556,3.5893,3.7063,3.7759,3.7658,3.8732,3.9676,3.9561,3.985,4.007,4.007,4.007,4.0286,4.081,4.1041,4.1534,4.2559,4.2826,4.305,4.3444,4.3497,4.3444,4.3304,4.2939,4.2382,4.1621,4.1133,4.0655,4.0121,4.007,4.007,4.007,4.007,4.007,4.007,4.007,4.007,4.007,4.007,4.007,4.007,4.007,4.007,4.007,4.007,4.007,4.007,4.007,4.007,4.007,4.007,4.007,4.007,0.0,0.0,0.0,0.0,0.0,0.0,0.0,0.0,0.0,0.0,0.0,0.0,2.1309,2.1481,2.162,2.1589,2.1664,2.1738,2.1797,2.1869,2.1899,2.1928,2.2521,0.0,2.367,2.4305,2.5111,2.5961,2.5994,2.6206,2.6572,2.6554,2.6468,2.633,2.6858,2.6691,2.6026,2.6189,2.6189,2.5961,2.5306,2.5229,2.5495,2.561,2.5642,2.571,2.6588,2.6893,2.6893,2.6742,2.6792,2.6859,2.6589,2.6554,2.6689,0.0,0.0,0.0,2.9609,2.9921,3.0347,3.21,3.3015,3.366,3.4438,3.6131,3.7369,3.6937,3.7832,3.8532,3.8103,3.9154,4.007,4.007,4.007,4.0286,4.081,4.1402,4.1979,4.2616,4.3142,4.3479,4.3497,4.3497,4.3286,4.2788,4.2711,4.2162,4.0995,4.0903,4.0655,4.0121,4.007,4.007,4.007,4.007,4.007,4.007,4.007,4.007,4.007,4.007,4.007,4.007,4.007,4.007,4.007,4.007,4.007,4.007,4.007,4.007,4.007,4.007,4.007,4.007,0.0,0.0,0.0,0.0,0.0,0.0,0.0,0.0,0.0,0.0,0.0,0.0,0.0,2.1511,2.165,2.162,2.1694,2.1768,2.1738,2.1797,2.1827,2.1768,2.251,2.3143,2.3686,2.4099,2.4661,2.5372,2.563,2.5799,2.5899,2.6555,2.6759,2.6486,2.6758,2.6624,2.617,2.6589,2.664,2.6436,2.6202,2.5916,2.5692,2.6116,2.6015,2.571,2.6588,2.6842,2.6792,2.6825,2.6792,2.6759,2.6606,2.6589,2.6639,2.6786,2.6911,2.7378,2.8972,2.9367,2.9895,3.2192,3.3033,3.3529,3.4271,3.5866,3.7066,3.6336,3.7773,3.8789,3.7826,3.8206,3.8836,3.9309,3.9377,3.9887,4.1288,4.1664,4.2144,4.3087,4.3375,4.3497,4.3497,4.2721,4.2505,4.3178,4.1296,4.0539,4.1438,4.0348,3.981,4.0104,4.007,4.007,4.007,3.9614,3.9614,4.007,3.9597,3.9631,4.007,4.007,4.007,4.007,4.007,4.007,4.007,4.007,4.007,4.007,4.007,4.007,4.007,4.007,4.007,4.007,0.0,0.0,0.0,0.0,0.0,0.0,0.0,0.0,0.0,2.1294,0.0,0.0,0.0,0.0,2.1617,2.1634,2.1738,2.1797,2.1738,2.1768,2.1738,2.1694,2.2417,2.3079,2.3652,2.4183,2.4763,2.5408,2.553,2.5561,2.5561,2.6024,2.6197,2.6168,2.6131,2.6151,2.6295,2.6657,2.6759,2.6657,2.6354,2.6031,2.5819,2.6199,2.6064,2.5742,2.6604,2.6876,2.6775,2.6825,2.6792,2.6742,2.6606,2.6537,2.6503,2.6485,2.6362,2.654,2.8195,2.8588,2.9151,3.1497,3.2409,3.3012,3.3835,3.5254,3.6235,3.5649,3.7091,3.8186,3.7173,3.7223,3.7682,3.8512,3.8633,3.9221,4.0885,4.1064,4.1556,4.3069,4.3137,4.3116,4.3232,4.2341,4.1905,4.2244,4.0182,0.0,4.0438,3.9316,3.8853,3.9343,3.9343,3.9343,3.9343,3.887,3.887,3.9343,3.9106,3.9242,3.9715,3.9969,4.007,4.007,3.9817,3.9851,4.007,4.007,4.007,4.007,4.007,4.007,4.0054,3.98,3.9868,4.0003,0.0,0.0,0.0,0.0,0.0,0.0,0.0,0.0,2.1247,2.1277,0.0,0.0,0.0,0.0,0.0,2.1678,2.1768,2.1797,2.1797,2.1738,2.1694,2.1694,2.234,2.2982,2.3567,2.4578,2.5426,2.6173,2.5681,2.5478,2.5558,2.4833,2.4787,2.5262,2.4873,2.5302,2.6385,2.6385,2.6487,2.6556,2.5682,2.5576,2.5914,2.5754,2.5722,2.5824,2.6669,2.6959,2.691,2.6742,2.6809,2.6893,2.6589,2.6399,2.633,2.645,2.6345,2.6441,0.0,0.0,0.0,2.996,3.105,3.1958,3.3051,3.4217,3.501,3.4748,3.5754,3.6516,3.597,3.6147,3.6715,3.7691,3.7838,3.8329,3.961,3.9621,4.0259,4.2402,4.243,4.2337,4.2587,4.234,4.1487,3.9921,3.9533,3.8978,3.7984,3.7905,3.7905,3.7905,3.7905,3.7905,3.7905,3.7889,3.7889,3.7922,3.8633,3.8971,3.9022,3.9749,4.007,4.0037,3.9309,3.9394,4.0054,4.0054,4.0054,4.0054,4.007,4.0054,3.9935,3.9242,3.9428,3.9817,0.0,0.0,0.0,0.0,0.0,2.1355,2.1355,2.1309,2.1294,0.0,0.0,0.0,2.1277,2.145,2.1573,2.1694,2.1827,2.184,2.1738,2.1768,2.1738,2.1694,2.2403,2.3063,2.3669,2.4083,2.4696,2.5495,2.4879,2.4686,2.4934,2.4638,2.4611,2.4797,2.47,2.5062,2.5848,2.6073,2.6446,2.6809,2.6605,2.6503,2.642,2.6066,2.6134,2.642,2.63,2.6874,2.759,2.6928,2.7131,2.7555,2.6809,2.6503,2.6434,2.6485,2.6399,2.6497,2.7568,0.0,0.0,0.0,0.0,0.0,3.2645,3.3888,3.478,3.4718,3.5617,3.6261,3.5723,3.5827,3.6116,3.6404,3.6835,3.7667,3.9333,3.9552,4.0024,4.1375,4.1123,4.089,4.0962,3.9697,3.9111,0.0,3.781,3.7239,3.8394,3.8091,3.7905,3.7905,3.7905,3.7905,3.7905,3.7364,3.7364,3.7905,3.8108,3.8481,3.9022,3.9749,4.007,4.0037,3.9309,3.9106,3.9292,3.9292,3.9292,3.9343,3.9868,3.9428,3.8548,3.887,3.8785,3.8447,0.0,0.0,0.0,0.0,0.0,2.1417,2.1509,2.1481,2.145,0.0,0.0,0.0,2.134,2.1511,2.165,2.1664,2.1827,2.1869,2.1797,2.1781,2.1781,2.1738,2.2106,2.2751,2.3686,2.3621,2.4099,2.5246,2.4324,2.3988,2.4181,2.3845,2.385,2.4096,2.4168,2.4703,2.5609,2.5846,2.629,2.6893,2.6876,2.6842,2.6775,2.6487,2.6538,2.6759,2.6453,2.7044,2.7826,2.7317,2.7672,2.818,2.7331,2.6991,2.6922,2.6586,2.6399,2.643,2.7076,2.7247,2.7639,2.9144,0.0,0.0,3.1537,3.2893,3.3984,3.386,3.4861,3.5648,3.5357,3.5513,3.5776,3.5879,3.6041,3.6706,3.8408,3.8611,3.8922,3.9964,3.9748,3.9564,3.9619,3.8607,3.8052,3.8397,3.6896,3.6344,3.7332,3.7092,3.6958,3.6958,3.6958,3.6958,3.6958,3.6518,3.6518,3.6958,3.728,3.7669,3.8091,3.8836,3.9174,3.914,3.8379,3.8244,3.8514,3.8193,3.8244,3.8582,3.9005,3.865,3.7922,3.8024,3.799,3.7821,0.0,0.0,2.1464,2.1589,2.1495,2.1509,2.1678,2.1664,2.1634,0.0,2.165,2.1542,2.1448,2.1587,2.1694,2.162,2.1781,2.1899,2.1899,2.184,2.1797,2.1797,2.1664,2.2212,2.3555,2.3093,2.3601,2.518,2.3964,2.3422,2.3505,2.2942,2.2965,2.3422,2.3607,2.4394,2.5609,2.5656,2.6179,2.6893,2.6775,2.6859,2.6992,2.6944,2.6961,2.6978,2.7029,2.7487,2.8078,2.8078,2.8395,2.871,2.802,2.7732,2.7475,2.6786,2.6516,2.6395,2.6329,2.652,2.6927,2.767,2.8733,0.0,3.0362,3.1742,3.2871,3.2639,3.3781,3.4788,3.4788,3.5072,3.5359,3.5651,3.5469,3.5798,3.7153,3.7224,3.7453,3.8432,3.8304,3.8244,3.8408,3.8205,3.7672,3.6729,3.6465,3.6097,3.5622,3.5622,3.5622,3.5622,3.5622,3.5622,3.5622,3.5622,3.5622,3.5622,3.6417,3.6772,3.6806,3.7567,3.7905,3.7872,3.711,3.7161,3.7719,3.6958,3.711,3.7787,3.7872,3.7804,3.7584,3.6992,3.7161,3.7466,0.0,2.1648,2.1617,2.162,2.1648,2.1738,2.1768,2.1768,2.1768,2.1797,2.1664,2.1603,2.1634,2.1694,2.1724,2.1768,2.184,2.1869,2.1811,2.1827,2.1768,2.1708,2.1634,2.1951,2.272,2.2638,2.3177,2.4411,2.3479,2.3227,2.3648,2.3386,2.3345,2.3498,2.4062,2.4825,2.5688,2.5688,2.6211,2.6992,2.6942,2.6942,2.6944,2.709,2.736,2.7654,2.7848,2.8678,2.9668,2.9668,2.9347,2.8921,2.8642,2.8224,2.7702,2.7353,2.725,2.7117,2.6424,2.669,2.7398,2.8337,2.849,0.0,3.1116,3.1767,3.2032,3.2572,3.31,3.3477,3.3467,3.3718,3.4038,3.425,3.5297,3.6211,3.6585,3.6585,3.6788,3.7443,3.7079,3.6817,3.6832,3.6449,3.6076,3.5842,3.5779,3.5694,3.5622,3.5622,3.5622,3.5622,3.5622,3.5622,3.5622,3.5622,3.5622,3.5622,3.6417,3.6772,3.6806,3.7567,3.7905,3.7872,3.711,3.6857,3.6941,3.6163,3.6299,3.706,3.7669,3.7144,3.6129,3.6603,3.6468,3.6028,2.1768,2.1708,2.1708,2.1797,2.1911,2.2056,2.2175,2.2147,2.2118,2.2106,2.1886,2.1797,2.1899,2.1869,2.1899,2.1998,2.2044,2.2032,2.2003,2.1886,2.1797,2.1738,2.1664,2.1917,2.2573,2.2309,2.2661,2.3641,2.2953,2.276,2.3061,2.2977,2.2937,2.2943,2.3701,2.4462,2.5193,2.5615,2.6275,2.7055,2.6975,2.6926,2.6927,2.7345,2.7379,2.7316,2.7827,2.8673,2.9651,3.0395,3.0395,3.0023,2.9576,2.9242,2.8817,2.8226,2.8072,2.7988,2.7454,2.7317,2.7457,2.7918,2.8311,0.0,0.0,3.1093,3.2004,3.2242,3.2745,3.3087,3.3099,3.3247,3.3388,3.3477,3.4534,3.5192,3.4829,3.5913,3.6684,3.644,3.6165,3.6028,3.6028,3.5783,3.5622,3.5622,3.5622,3.5622,3.5622,3.5622,3.5622,3.5622,3.5622,3.5436,3.5064,3.5436,3.5436,3.5064,3.5825,3.6197,3.6214,3.6586,3.6772,3.6738,3.6366,3.6197,3.618,3.5774,3.5859,3.6231,3.662,3.6299,3.5673,3.6062,3.596,3.5622,2.184,2.1781,2.1827,2.2027,2.2169,2.2337,2.2579,2.2535,2.248,2.2415,2.2073,2.1866,2.1953,2.194,2.1924,2.2022,2.2044,2.2128,2.2336,2.2086,2.1906,2.1906,2.1861,2.2061,2.2409,2.2035,2.2182,2.2932,2.249,2.2304,2.2405,2.2586,2.2626,2.2547,2.3391,2.4181,2.4883,2.561,2.6356,2.707,2.6975,2.7011,2.7248,2.7826,2.769,2.7267,2.7994,2.867,2.9397,3.0772,3.123,3.1089,3.0535,3.0209,2.9918,2.8971,2.8779,2.8753,2.8317,2.7964,2.7753,2.7769,2.8364,2.8895,0.0,0.0,0.0,3.1716,3.2326,3.288,3.288,3.288,3.2831,3.273,3.3477,3.3844,3.3018,3.5002,3.6242,3.543,3.5493,3.5577,3.5577,3.5594,3.5577,3.5622,3.5577,3.5577,3.5622,3.5622,3.5622,3.5622,3.5622,3.525,3.4506,3.525,3.5233,3.4506,3.5267,3.5622,3.5622,3.5622,3.5622,3.5622,3.5622,3.5622,3.5622,3.5622,3.5622,3.5622,3.5622,3.5622,3.5622,3.5622,3.5622,3.5622,2.2027,2.1969,2.2027,2.2231,2.2388,2.2525,2.2659,2.2799,2.2738,2.2439,2.1948,2.1598,2.1493,2.1479,2.1462,2.1493,2.1509,2.1894,2.2848,2.2554,2.2297,2.2248,2.2633,2.2432,2.1469,2.1797,2.2106,2.2395,2.222,2.2215,2.2422,2.3028,2.3304,2.3308,2.4066,2.4904,2.576,2.5846,2.6307,2.7007,2.6975,2.745,2.8218,2.8801,2.8952,2.8915,2.9604,2.9905,3.0108,3.1002,3.1252,3.1213,3.1172,3.0675,2.9918,2.8971,2.907,2.917,2.7781,2.8252,2.9138,2.9303,2.9047,2.8949,2.9743,0.0,3.0606,3.0855,0.0,3.2038,3.2038,0.0,0.0,3.1336,3.2303,3.29,3.2219,3.3274,3.4148,3.4337,3.5082,3.5594,3.5537,3.5492,3.552,3.5577,3.5566,3.552,3.5577,3.5622,3.5622,3.5622,3.5622,3.525,3.4506,3.525,3.5233,3.4506,3.5267,3.5622,3.5622,3.5622,3.5622,3.5622,3.5622,3.5622,3.5622,3.5622,3.5622,3.5622,3.5622,3.5622,3.5622,3.5622,3.5622,3.5622,2.222,2.222,2.2287,2.2497,2.2632,2.2816,2.302,2.3387,2.3406,2.2729,2.275,2.2794,2.2723,2.2681,2.2622,2.2681,2.2332,2.2386,2.3087,2.2637,2.2622,2.3194,2.3074,2.2787,2.2287,2.2245,2.2243,2.2254,2.2243,2.2304,2.2355,2.3054,2.3393,2.3427,2.4201,2.5009,2.58,2.5866,2.6356,2.7089,2.7468,2.7911,2.8304,2.8355,2.8352,2.8454,2.9214,2.9448,2.9634,3.0823,3.1213,3.119,3.1213,3.1009,3.0644,3.0152,3.0208,3.0189,2.9571,2.942,2.949,2.9457,2.9287,2.9137,2.9227,2.9943,3.0586,3.0587,0.0,0.0,0.0,0.0,0.0,0.0,3.1924,3.223,3.125,3.2337,3.3304,3.3527,3.3784,3.4153,3.4695,3.5268,3.5594,3.5577,3.5594,3.5594,3.5622,3.5622,3.5622,3.5622,3.5622,3.525,3.4506,3.525,3.5233,3.4506,3.5267,3.5622,3.5622,3.5622,3.5622,3.5622,3.5622,3.5622,3.5622,3.5622,3.5622,3.5622,3.5622,3.5622,3.5622,3.5622,3.5622,3.5622,2.2487,2.2432,2.2487,2.2685,2.3016,2.3405,2.3921,2.4335,2.434,2.3624,2.3764,2.3881,2.3782,2.3557,2.3351,2.318,2.2588,2.2427,2.2841,2.2622,2.2697,2.3173,2.3472,2.3351,2.278,2.2748,2.266,2.253,2.2462,2.2377,2.2327,2.3054,2.3393,2.3427,2.4232,2.5009,2.5705,2.5785,2.6324,2.7089,2.7588,2.793,2.8152,2.8167,2.7994,2.7908,2.8941,2.9296,2.9482,3.0789,3.123,0.0,3.123,3.123,3.114,3.0819,3.0784,3.0861,3.062,3.0032,2.9586,2.9665,2.9542,2.9284,2.8893,2.9593,3.0262,2.9942,3.0459,0.0,0.0,0.0,3.1179,3.0895,0.0,3.1498,3.0676,3.148,3.227,3.26,3.2669,3.2956,0.0,3.4611,3.5183,3.5228,3.5431,3.5594,3.5622,3.5622,3.5622,3.5622,3.5622,3.525,3.4506,3.525,3.5233,3.4506,3.5267,3.5622,3.5622,3.5622,3.5622,3.5605,3.5402,3.5419,3.5605,3.5402,3.5436,3.5622,3.5622,3.5622,3.5622,3.5622,3.5622,3.5622,2.2868,2.2659,2.2569,2.2764,2.3502,2.4445,2.5647,2.5722,2.5595,2.5429,2.4879,2.4315,2.3934,2.3487,2.2905,2.2109,2.1635,2.1549,2.2011,2.2582,2.2433,2.1445,2.3846,2.4249,2.2162,2.307,2.3488,2.3359,2.279,2.2432,2.2327,2.3054,2.3393,2.3427,2.4154,2.4961,2.5688,2.5688,2.6179,2.6893,2.6927,2.7267,2.7909,2.8727,2.8522,2.7992,2.9533,3.0074,0.0,3.1019,3.1235,0.0,0.0,0.0,3.1038,3.0179,3.0365,3.0704,2.9849,0.0,2.9582,3.0311,2.9898,2.9304,2.9288,2.9206,2.905,2.866,2.9132,2.9649,2.9649,3.0296,3.0723,3.0443,3.0501,0.0,0.0,3.045,3.0619,3.1457,3.2182,3.264,3.2729,3.3528,3.4113,3.4264,3.5026,3.552,3.5577,3.5622,3.5622,3.5622,3.5622,3.525,3.4506,3.525,3.5233,3.4506,3.5267,3.5622,3.5622,3.5622,3.5622,3.5571,3.4844,3.4945,3.5554,3.4827,3.4962,3.5622,3.5622,3.5622,3.5622,3.5622,3.5622,3.5622,2.4306,2.4344,2.4268,2.3754,2.4025,2.4627,2.561,2.6074,2.6128,2.5621,2.5626,2.5575,2.524,2.4705,2.4192,2.3823,2.3075,2.2814,2.3222,2.3444,2.3607,2.3692,2.4769,2.4913,2.3893,2.4043,2.4103,2.4012,2.315,2.2959,2.3303,2.3487,2.3965,2.4611,2.5363,2.595,2.6352,2.6352,2.6555,2.6893,2.6893,2.7318,2.7963,2.8166,2.8401,2.8721,2.9736,3.0108,0.0,3.0976,3.123,3.119,3.123,3.123,3.114,3.0847,3.087,3.0925,0.0,0.0,3.0496,3.0584,0.0,0.0,2.8695,2.8918,2.8902,2.78,2.8969,2.9864,2.8784,2.9674,3.0319,2.9633,3.0046,3.0401,0.0,3.0189,3.0158,3.0419,3.1309,3.1913,3.1967,3.2927,3.3755,3.4286,3.4627,3.5053,3.5543,3.5622,3.5622,3.5622,3.5622,3.5504,3.5233,3.5504,3.5487,3.525,3.5504,3.5622,3.5622,3.5622,3.5622,3.5571,3.481,3.4641,3.4844,3.459,3.4641,3.4928,3.5419,3.5318,3.4928,3.5436,3.5622,3.5622,2.522,2.5411,2.5376,2.4646,2.5165,2.5915,2.6774,2.7441,2.7652,2.7181,2.7099,2.6882,2.6399,2.5752,2.5015,2.4269,2.3653,2.3476,2.3692,2.3707,2.3763,2.4006,2.4806,2.4811,2.3935,2.4527,2.468,2.4332,2.3884,2.3687,2.3802,2.3964,2.4393,2.5059,2.5927,2.64,2.6556,2.6657,2.6894,2.7267,2.7538,2.7929,2.837,2.8535,2.8941,2.9539,0.0,3.0497,3.0565,3.1038,3.119,3.119,3.119,3.119,3.119,3.119,3.1151,3.1072,3.1112,3.087,0.0,3.0666,3.0142,0.0,2.8751,0.0,2.8629,2.769,2.8596,2.9411,2.8728,2.9543,3.0168,2.965,2.9978,3.0189,0.0,2.9973,2.9913,2.9886,3.0484,3.098,3.1077,3.1971,3.2794,3.3496,3.4044,3.456,3.5199,3.547,3.5622,3.5622,3.5622,3.5622,3.5622,3.5622,3.5622,3.5622,3.5622,3.5622,3.5605,3.5351,3.5368,3.5554,3.4269,3.3998,3.4455,3.3914,3.4015,3.4523,3.4742,3.4692,3.459,3.5351,3.5622,3.5622,2.5676,2.5849,2.5885,2.5497,2.6792,2.8141,2.8965,2.9598,2.9966,2.9859,2.9067,2.8168,2.7177,2.6548,2.5407,2.3585,2.3483,2.3483,2.3522,2.3451,2.3103,2.2539,2.403,2.4131,2.2454,2.4489,2.5195,2.4442,2.48,2.461,2.3883,2.4405,2.468,2.4781,2.5787,2.626,2.633,2.6556,2.7131,2.7857,2.867,2.9045,2.9146,2.9837,3.0146,3.0323,3.0976,3.119,3.119,3.119,3.119,3.119,3.119,3.119,3.119,3.119,3.119,3.119,3.1055,3.0494,3.0085,3.059,3.0166,0.0,0.0,0.0,2.8256,2.8207,2.8194,2.8401,2.9261,2.9865,3.0231,3.0326,3.013,2.9902,2.9742,2.9738,2.981,2.981,2.9842,2.9989,3.0146,3.0707,3.1336,3.1934,3.3161,3.4097,3.4489,3.5138,3.5543,3.5622,3.5622,3.5622,3.5622,3.5622,3.5622,3.5622,3.5588,3.5588,3.5588,3.4844,3.4878,3.5453,3.3271,3.3119,3.4286,3.2899,3.3152,3.432,3.3744,3.3914,3.453,3.5267,3.5459,3.5476,2.7477,2.7449,2.7394,2.7151,2.7408,2.794,2.8728,2.8914,2.8918,2.8842,2.8952,2.8506,2.7081,2.6883,2.6451,2.5403,2.4948,2.4784,2.4901,2.4664,2.4418,2.4051,2.4595,2.4547,2.3779,2.4862,2.5319,2.5083,2.4737,2.4693,2.4885,2.4367,2.45,2.5217,2.5524,2.5885,2.6295,2.6349,2.6924,2.7857,2.867,2.9369,2.9915,0.0,3.0489,3.104,3.1162,3.119,3.119,3.119,3.119,3.119,3.119,3.119,3.119,3.119,3.119,3.119,3.1151,3.1016,3.0875,3.0925,3.0381,2.9789,0.0,0.0,0.0,0.0,0.0,0.0,0.0,2.9584,3.0194,2.9475,2.9605,2.977,2.9697,2.9637,2.9592,2.9592,2.9798,2.9973,3.006,3.0523,3.1065,3.1639,3.2107,3.2964,3.4421,0.0,3.4762,3.556,3.5622,3.5622,3.5622,3.5622,3.5622,3.556,3.5047,3.5081,3.5588,3.4844,3.459,3.4726,3.3592,3.3017,3.2865,3.3051,3.3017,3.3,3.4472,3.4527,3.3856,3.391,3.3688,3.3428,2.8235,2.8136,2.8025,2.7864,2.794,2.8324,2.9109,2.9723,3.0076,2.9969,2.9911,2.9411,2.8196,2.769,2.7201,2.6673,2.6265,2.6186,2.649,2.5724,2.5092,2.4883,2.4498,2.4092,2.3599,2.4418,2.4895,2.5005,2.4764,2.484,2.5278,2.4687,2.4664,2.5224,2.5454,2.5754,2.6151,2.6716,2.7331,2.7996,2.9025,2.9756,0.0,3.0446,3.0857,3.1252,3.123,3.119,3.119,3.119,3.119,3.119,3.119,3.119,3.119,3.119,3.119,3.119,3.119,3.119,3.119,3.1112,3.0791,3.0347,2.9928,2.9844,2.9688,0.0,2.98,3.0235,0.0,0.0,3.0227,2.9442,2.9484,2.9563,2.9457,2.9412,2.9412,2.9412,2.9637,2.9726,2.9621,3.0156,3.0634,3.0962,3.1361,3.2038,0.0,0.0,3.4275,3.4875,3.5363,3.5622,3.5622,3.5622,3.5453,3.5115,3.4692,3.4556,3.4624,3.3863,3.3694,3.3964,3.2899,3.2378,3.2369,3.2453,3.229,3.2056,3.3311,3.3123,3.2144,3.2067,3.2056,3.2272,2.8504,2.8451,2.8375,2.8145,2.8535,2.9117,2.9812,3.1063,3.1845,3.1608,3.1106,3.0426,2.9453,2.8592,2.7938,2.751,2.7377,2.7585,2.8139,2.6725,2.5746,2.5479,2.4508,2.3628,2.2926,2.3753,2.4364,2.4729,2.4744,2.4997,2.5422,2.5132,2.4966,2.5005,2.5416,2.5717,2.5983,2.7375,2.8012,2.8269,2.9671,3.0243,3.0311,3.0954,3.119,3.119,3.119,3.119,3.119,3.119,3.119,3.119,3.119,3.119,3.119,3.119,3.119,3.119,3.119,3.119,3.119,3.119,3.119,3.1021,3.0229,3.0078,3.0078,3.0078,3.0034,3.0253,0.0,0.0,3.0342,2.9858,2.9681,2.9534,2.9432,2.9478,2.9569,2.9478,2.963,0.0,2.9137,2.975,3.0182,3.0103,3.0702,3.1139,0.0,0.0,3.3884,3.4074,3.5082,3.5622,3.5622,3.552,3.5131,3.4489,3.4286,3.3931,3.3372,3.2628,3.2645,3.3186,3.1901,3.1708,3.2196,3.1654,3.1502,3.1614,3.1295,3.0756,3.0211,3.0199,3.0538,3.1278,2.9058,2.939,2.9559,2.8868,2.9685,3.0404,3.0455,3.0554,3.0617,3.0469,3.0836,3.0353,2.8328,2.9056,2.9171,2.7844,2.8323,2.8762,2.8975,2.8214,2.7501,2.6983,2.6204,2.5287,2.4128,2.3998,2.4477,2.5488,2.4492,2.4705,2.611,2.5234,2.4902,2.5005,2.4966,2.5317,2.6016,2.7981,2.8808,2.8943,3.0412,3.1004,3.1021,3.114,3.119,3.119,3.119,3.119,3.119,3.119,3.119,3.119,3.119,3.119,3.119,3.119,3.119,3.119,3.119,3.119,3.119,3.119,3.119,3.1157,3.1021,3.0948,3.0948,3.0948,3.0965,3.096,3.1038,0.0,0.0,3.0225,3.0182,3.0353,3.0826,3.0908,3.0835,3.058,3.0912,3.0595,2.9231,2.9454,2.9677,2.9649,2.9717,3.0396,0.0,0.0,3.3188,0.0,3.5172,0.0,0.0,0.0,3.4624,3.4472,3.3254,3.2933,3.3372,3.2628,3.2381,3.2459,3.2205,3.1876,3.1522,3.1999,3.2266,3.2223,3.0456,2.9717,2.9722,2.9614,2.8998,2.8553,2.9695,2.9916,3.0025,2.9467,3.0108,3.0644,3.0484,3.0643,3.0802,3.0878,3.1164,3.0938,2.985,2.9942,2.9973,2.96,2.9567,2.9589,2.9677,2.8743,2.7931,2.7257,2.6276,2.5504,2.5069,2.3793,2.4115,2.6116,2.4469,2.4579,2.6286,2.5767,2.5353,2.5005,2.524,2.5891,2.6786,2.7515,0.0,2.9064,2.9313,3.0142,3.1157,3.0784,3.0869,3.119,3.119,3.119,3.119,3.119,3.119,3.119,3.119,3.119,3.119,3.119,3.119,3.119,3.119,3.119,3.119,3.119,3.119,3.119,3.119,3.119,3.119,3.119,3.119,3.1151,3.1015,3.0773,0.0,0.0,0.0,3.0828,3.1232,3.1281,3.1254,3.1075,3.0749,3.0214,2.9382,2.9213,2.9167,2.9106,2.9335,2.9794,0.0,0.0,3.2403,0.0,0.0,0.0,3.5622,0.0,3.4303,3.3914,3.2814,3.2273,3.2256,3.1884,3.1918,3.2313,3.2313,3.2345,3.2426,3.2112,3.1799,3.1376,2.9973,2.9296,2.9042,2.8952,2.8367,2.7806,3.048,3.0653,3.0791,3.049,3.0749,3.0964,3.0817,3.1019,3.1286,3.144,3.144,3.1372,3.1219,3.0675,3.0497,3.092,3.0581,3.0345,3.0345,2.9242,2.8229,2.7466,2.6351,2.5767,2.5745,2.392,2.4062,2.6399,2.4768,2.48,0.0,2.642,2.5932,2.5131,2.5718,2.6307,0.0,0.0,2.7516,2.8634,2.8212,2.9127,3.0666,3.0091,3.0226,3.0751,3.0903,3.097,3.0987,3.114,3.119,3.119,3.119,3.1112,3.1015,3.1015,3.0918,3.0838,3.0838,3.0918,3.1015,3.1015,3.1112,3.119,3.119,3.119,3.119,3.119,3.119,3.1151,3.1015,3.0716,0.0,0.0,0.0,3.1057,3.144,3.15,3.1457,3.1237,3.0465,2.9765,2.9305,2.892,2.8636,2.8494,2.8967,2.9335,2.9425,0.0,0.0,0.0,0.0,3.456,3.5059,0.0,3.3897,3.3169,3.2408,3.1749,3.119,3.119,3.1512,3.2053,3.2246,3.266,3.3191,3.2069,3.1072,3.0237,2.9561,2.8885,2.8334,2.8334,2.7993,2.776,3.1476,3.2184,3.2689,3.2559,3.2393,3.2361,3.2366,3.1698,3.119,3.1247,3.123,3.0976,3.0277,3.0734,3.0852,3.026,3.0751,3.1089,3.1089,3.0374,2.9387,2.8166,2.7748,2.7069,2.601,2.5168,2.5171,2.6043,2.544,2.5711,0.0,2.6941,2.645,2.545,0.0,0.0,0.0,2.6461,2.716,2.7379,2.8474,2.9008,2.9178,2.911,2.9127,2.9279,2.9956,3.0209,3.0311,3.097,3.119,3.119,3.119,3.0821,3.0393,3.0393,2.9995,2.9585,2.9585,2.9995,3.0393,3.0393,3.0797,3.119,3.119,3.119,3.119,3.119,3.119,3.1151,3.1015,3.0617,3.0435,0.0,0.0,3.0808,3.2049,3.2191,3.1867,3.1026,3.0933,3.0296,2.8635,2.8444,2.8235,2.7725,2.8186,2.8936,0.0,0.0,0.0,3.2035,3.3223,3.3701,3.3352,3.3457,3.3119,3.2374,3.1647,3.1258,3.119,3.119,3.1241,3.1326,3.1985,3.2426,3.2558,3.1878,3.0823,2.9612,2.8952,2.8276,2.766,2.766,2.7675,2.7625,3.3059,3.3369,3.3554,3.3362,3.3276,3.3213,3.309,3.2364,3.185,3.185,3.1461,3.1089,3.0784,3.1021,3.0903,3.0176,3.0378,3.0484,3.0306,2.9454,2.8895,2.871,2.769,2.6927,2.6453,2.5165,2.513,2.6414,2.5854,2.6088,2.6993,0.0,0.0,0.0,0.0,2.5377,2.5519,2.5834,2.6374,2.7102,2.7175,2.7931,2.896,2.8467,2.8856,2.9702,2.9989,3.0395,3.0801,3.1106,3.119,3.1151,3.0781,3.0477,3.0208,2.9865,2.9585,2.9406,2.9406,2.9585,2.9848,3.0208,3.0477,3.074,3.1112,3.119,3.119,3.119,3.119,3.119,3.1112,3.0895,3.0634,3.0576,0.0,0.0,3.1783,3.215,3.2137,3.1281,3.0384,2.9499,2.8763,2.8429,2.8186,2.7974,2.8137,2.8398,0.0,0.0,0.0,3.2122,0.0,3.3227,3.392,3.3128,3.2577,3.2273,3.1546,3.119,3.119,3.119,3.1681,3.2519,3.2871,3.3086,3.3131,3.2488,3.1365,3.0073,2.9445,2.8786,2.8143,2.7775,2.7625,2.7625,3.4134,3.4168,3.4254,3.4252,3.4057,3.3879,3.377,3.2899,3.2313,3.2313,3.1647,3.119,3.119,3.119,3.0987,3.048,3.0243,2.9922,2.9502,2.8691,2.8216,2.8319,2.7078,2.642,2.6505,2.5183,2.5002,2.6037,2.5907,2.6078,0.0,0.0,0.0,0.0,2.4689,2.4725,2.5269,2.5052,2.5587,2.6498,2.6138,2.6931,2.8281,2.7943,2.8501,2.9465,2.9702,3.026,3.083,3.0679,3.0751,3.0878,3.0435,3.0081,2.9673,2.9271,2.8996,2.8857,2.8857,2.8996,2.9271,2.9892,3.0166,3.0477,3.1055,3.119,3.119,3.119,3.119,3.119,3.119,3.0935,3.0675,3.0576,0.0,0.0,3.139,3.1479,3.1389,3.0866,2.9619,2.8716,2.8527,2.8204,2.7989,2.794,2.7974,0.0,0.0,0.0,0.0,0.0,0.0,0.0,3.3423,3.2696,3.2171,3.1952,3.1444,3.119,3.1207,3.141,3.2205,3.3398,3.3454,3.3535,3.3547,3.2895,3.1748,3.0447,2.9819,2.9175,2.8517,2.7829,2.7625,2.7625,3.438,3.4644,3.4942,3.5453,3.4962,3.4472,3.4472,3.322,3.2313,3.2313,3.1647,3.119,3.119,3.119,3.119,3.119,3.0531,2.9796,2.9068,2.848,2.7755,2.677,2.6068,2.5793,2.5997,2.5486,2.4934,2.4446,2.5475,0.0,2.5028,0.0,2.5358,2.4954,2.4026,2.364,2.3653,2.4199,2.4712,2.5275,2.5779,2.6297,2.681,2.7554,2.7806,2.7908,2.8721,2.9482,3.0032,2.944,2.97,3.0293,3.0293,2.9496,2.8511,2.8511,2.8091,2.7625,2.7625,2.8042,2.8654,2.9271,2.9848,3.0477,3.1055,3.119,3.119,3.119,3.119,3.119,3.119,3.0699,3.0518,3.1095,0.0,0.0,0.0,3.0182,2.9422,2.9422,2.8873,2.8286,2.766,2.7625,2.7473,2.7233,0.0,0.0,0.0,0.0,0.0,3.0,3.1077,0.0,3.0962,3.1854,3.1918,3.1207,3.119,3.119,3.1207,3.1935,3.2679,3.3398,3.3454,3.3535,3.3547,3.2895,3.1748,3.0447,2.9819,2.9175,2.8517,2.7829,2.7625,2.7625,3.5216,3.5311,3.5379,3.5588,3.5419,3.5267,3.5267,3.3998,3.3051,3.3051,3.1968,3.119,3.119,3.119,3.1004,3.0497,2.977,2.88,0.0,2.7264,2.7029,2.6691,2.5493,2.5184,2.598,2.4665,2.4123,2.4389,0.0,0.0,0.0,2.5354,2.4859,2.404,2.3743,2.361,2.3595,2.3794,2.4142,2.4712,2.5259,2.5762,2.6279,2.6859,2.7368,2.7823,2.8112,2.8434,2.8771,2.8599,2.8151,2.7771,2.8247,2.8135,2.7845,2.7856,2.7444,2.7006,2.7505,2.776,2.8042,2.8638,2.8919,2.9316,3.0351,3.0878,3.119,3.119,3.119,3.119,3.119,3.1055,3.0838,3.0601,3.0705,0.0,3.006,2.9715,2.9343,2.8842,2.8271,2.781,2.7625,2.7625,2.756,2.7473,2.7575,0.0,0.0,0.0,0.0,0.0,3.0555,0.0,3.1854,3.1624,3.1427,3.119,3.119,3.119,3.1224,3.1952,3.2454,3.2696,3.2787,3.2857,3.2841,3.216,3.1562,3.1106,2.9998,2.946,2.9131,2.7993,2.7625,2.7625,3.5622,3.5622,3.5622,3.5622,3.5622,3.552,3.5233,3.4184,3.3305,3.3017,3.1935,3.119,3.119,3.119,0.0,3.0548,2.9583,2.8496,2.7341,2.6893,2.6691,2.6691,2.5779,2.5415,2.5672,2.4444,0.0,2.4116,2.4447,2.4722,2.4887,2.4722,2.426,2.3595,2.3595,2.3595,2.3595,2.3595,2.3921,2.443,2.4973,2.554,2.6066,2.6824,2.7297,2.7523,2.7523,2.7699,2.7816,2.7316,2.6862,2.6512,2.6734,2.6597,2.6596,2.7364,2.7111,2.6737,2.7445,2.7625,2.776,2.8319,2.8511,2.8826,3.0021,3.0757,3.119,3.119,3.119,3.119,3.119,3.119,3.1072,3.0699,3.0841,3.0619,2.9513,2.9248,2.8931,2.8201,2.7792,2.7625,0.0,2.7625,2.752,0.0,2.749,0.0,0.0,0.0,0.0,2.9938,3.0163,3.0817,3.1867,3.1427,3.119,3.119,3.119,3.119,3.1224,3.2239,3.2596,3.2442,3.2773,3.2803,3.2532,3.1796,3.1482,3.1347,3.0103,2.9579,2.9415,2.8068,2.7625,2.7625,3.5622,3.5622,3.5622,0.0,3.5571,3.5301,3.459,3.3829,3.3068,3.2374,3.1647,3.119,3.119,3.119,3.119,3.119,0.0,0.0,2.8236,2.7298,2.6742,2.6691,2.6617,2.6188,2.5259,2.4665,2.4112,2.3595,2.3595,2.3595,2.3595,2.3595,2.3595,2.3595,2.3595,2.3595,2.3595,2.3595,2.3879,2.4389,2.4934,2.5449,2.6007,2.7171,2.7367,2.6961,2.6961,2.7069,2.6981,2.5737,2.5741,2.6222,2.5696,2.5091,2.4941,2.6916,2.7036,2.6677,2.743,2.7625,2.776,2.8319,2.8559,2.8919,3.0021,3.0757,3.119,3.119,3.119,3.119,3.119,3.119,3.119,3.119,3.0699,3.0046,2.9321,2.8825,2.8248,2.7535,0.0,0.0,2.7625,2.7625,2.737,0.0,2.723,0.0,0.0,0.0,2.8685,2.9316,2.9892,3.0477,3.1151,3.1151,3.1151,3.119,3.119,3.1224,3.1309,3.2763,3.3064,3.2433,3.3256,3.3182,3.2492,3.1796,3.1482,3.1347,3.0103,2.9579,2.9415,2.8068,2.7625,2.7625,0.0,0.0,3.5622,3.5622,3.5131,3.4692,3.4523,3.3389,3.2493,3.2347,3.1647,3.119,3.119,3.119,3.119,3.119,3.0362,2.9394,2.8269,2.7788,2.73,2.6725,2.5881,2.5518,2.5799,2.4372,2.3636,2.3595,2.3595,2.3595,2.3595,2.3595,2.3595,2.3595,2.3595,2.3595,2.3595,2.3595,2.3681,2.3837,2.4389,2.4672,2.4831,2.5551,2.5745,2.5631,2.5631,2.5417,2.5045,2.4725,2.4468,2.4368,2.4732,2.4403,2.4238,2.6243,2.6363,2.6093,2.726,2.7625,2.776,2.8319,2.918,2.9951,3.0251,3.0757,3.119,3.119,3.119,3.119,3.119,3.119,3.119,3.119,3.0699,2.992,2.8763,2.857,2.8073,0.0,2.7255,2.7625,2.7625,2.7625,2.75,0.0,0.0,2.755,2.735,2.7635,2.8091,2.8685,2.8873,2.9451,3.0518,3.0518,3.074,3.119,3.119,3.1478,3.2053,3.2983,3.3051,3.2514,3.3265,3.2933,3.1739,3.1582,3.1482,3.1347,3.0103,2.9579,2.9415,2.8068,2.7625,2.7625,3.5622,3.5622,3.5622,3.5622,3.5284,3.4776,3.41,3.3305,3.2544,3.1884,3.1444,3.119,3.119,3.119,3.119,3.119,3.0531,2.9648,2.8648,2.775,2.7112,2.6725,2.6101,2.5862,2.5997,2.4986,2.4151,2.3595,2.3595,2.3595,2.3595,2.3595,2.3445,2.3176,2.3176,2.3176,2.3176,2.3176,2.334,2.3638,2.4184,2.4389,2.4471,2.4989,2.5067,2.4816,2.4816,2.4511,2.4032,2.4032,2.3837,2.367,2.4044,2.3894,2.3864,2.5285,2.5863,2.6321,2.7628,2.8222,2.8496,2.8826,2.9406,2.9892,2.9892,3.0351,3.0797,3.0797,3.1015,3.119,3.119,3.119,3.119,3.119,3.0642,2.9796,2.8563,2.8397,2.7933,2.6733,2.719,2.7625,2.7625,2.7625,2.744,2.7141,2.7445,0.0,2.7625,2.7625,2.786,2.8463,2.8511,2.8966,2.9892,3.0166,3.0601,3.119,3.119,3.1393,3.1816,3.2588,3.259,3.2044,3.2807,3.2516,3.1482,3.1482,3.1482,3.1347,3.0103,2.9579,2.9415,2.8068,2.7625,2.7625,3.547,3.5515,3.5577,3.547,3.5346,3.4861,3.3592,3.322,3.2628,3.136,3.119,3.119,3.119,3.119,3.119,3.119,3.0531,2.9786,2.9025,2.7666,2.6824,2.6708,2.6691,2.6505,2.6104,2.5793,2.5005,2.3709,2.3638,2.3595,2.3595,2.3595,2.3251,2.2637,2.2667,2.2667,2.2637,2.2667,2.3041,2.3638,2.4116,2.4266,2.4307,2.4792,2.4672,2.4266,2.4266,2.3991,2.3595,2.3595,2.3595,2.3595,2.3595,2.3595,2.3729,2.4373,2.5438,2.6634,2.789,2.8779,2.9361,2.9271,2.9406,2.9496,2.9406,2.9805,3.0199,3.0297,3.0725,3.1089,3.1207,3.1219,3.1185,3.1207,3.0709,2.9852,2.8614,0.0,2.8121,2.6768,2.7255,2.7685,2.7625,2.7625,2.7335,2.6782,2.735,2.7724,2.7724,2.7712,2.7996,2.8642,2.8475,2.8638,2.9271,2.9848,3.0526,3.1223,3.1127,3.1194,3.1443,3.2111,3.2044,3.1498,3.2242,3.216,3.1467,3.1362,3.1375,3.124,2.9939,2.943,2.928,2.809,2.7625,2.7625,3.4894,3.5207,3.5407,3.483,3.4186,3.3677,3.344,3.2341,3.1461,3.1224,3.119,3.119,3.119,3.119,3.119,3.119,3.0531,2.9786,2.9025,2.8144,2.7367,2.6725,2.6691,2.6657,2.659,2.5742,2.4942,2.4266,2.3837,2.3595,2.3595,2.3595,2.3148,2.2364,2.2622,2.2566,2.2364,2.2622,2.3041,2.3595,2.3681,2.3709,2.3709,2.3837,2.3794,2.3709,2.3709,2.3681,2.3595,2.3595,2.3595,2.3595,2.3595,2.3595,2.3729,2.4373,2.5102,2.5834,2.6697,2.8093,2.9271,2.8779,2.9406,3.0038,2.954,2.9451,2.9717,3.0266,3.0402,3.0617,3.1186,3.1256,3.1217,3.1288,3.1215,3.0526,2.8732,0.0,2.9275,2.6859,2.7709,2.8238,2.7655,2.7625,2.758,2.7475,2.8053,2.8442,2.8442,2.8261,2.8554,2.9425,2.8312,2.8042,2.8654,2.9225,3.0157,3.1371,3.0786,3.1157,3.2288,3.2417,3.2165,3.1612,3.2299,3.216,3.1437,3.0911,3.0672,3.0537,2.925,2.8757,2.8652,2.791,2.7625,2.7625,3.5207,3.5088,3.4908,3.4605,3.3927,3.3271,3.2865,3.2222,3.1647,3.1241,3.119,3.119,3.119,3.119,3.119,3.119,3.0531,2.9786,2.9025,2.8247,2.7486,2.6725,2.6691,2.6708,2.6704,2.6007,2.5291,2.4564,2.3921,2.3613,2.3595,2.3595,2.3221,2.2536,2.2637,2.2637,2.2536,2.2652,2.3041,2.3595,2.3595,2.3595,2.3595,2.3595,2.3595,2.3595,2.3595,2.3595,2.3595,2.3595,2.3595,2.3595,2.3595,2.3595,2.3655,2.3984,2.524,2.6741,2.7408,2.846,2.9316,2.9042,2.9419,2.9798,2.9517,2.947,2.9564,2.9831,3.0144,3.0441,3.0765,3.0777,3.0882,3.1283,3.0733,0.0,2.9611,2.9781,2.9489,2.8368,2.8757,2.9019,2.8682,2.8652,2.8652,2.8652,2.8951,2.928,2.9609,2.8764,2.8839,3.0073,2.9146,2.8985,2.9562,2.9842,3.0466,3.138,3.1117,3.1085,3.1378,3.1434,3.1263,3.1,3.132,3.1293,3.0956,3.0627,3.0313,2.9909,2.8966,2.8607,2.8517,2.7829,2.7625,2.7625,3.4903,3.4536,3.4192,3.4044,3.3541,3.2949,3.2374,3.2138,3.1833,3.1258,3.119,3.119,3.119,3.1055,3.1004,3.119,3.0362,2.9651,2.9194,2.8484,2.7672,2.6725,2.6691,2.6708,2.6716,2.6253,2.5647,2.4926,2.4157,2.3743,2.3603,2.3608,2.3266,2.2724,2.2724,2.2724,2.2724,2.2724,2.3041,2.3595,2.3595,2.3595,2.3595,2.3595,2.3595,2.3595,2.3595,2.3595,2.3595,2.3595,2.3595,2.3595,2.3595,2.3595,2.3595,2.3595,2.5227,2.721,2.7787,2.8579,2.9134,2.9042,2.9248,2.9438,2.9135,2.93,2.9531,2.9531,2.9998,3.0466,3.0624,3.0609,3.0784,3.1337,0.0,2.9966,0.0,3.0144,2.9824,2.9603,2.9733,2.9744,2.9615,2.9609,2.9579,2.9579,2.9714,2.9998,3.0477,2.9418,2.9276,3.0419,2.9928,2.9818,3.0314,3.0299,3.067,3.1464,3.1142,3.0874,3.0672,3.0437,3.0299,3.0278,3.0277,3.0283,3.0283,3.0118,2.9789,2.928,2.8622,2.8368,2.8293,2.7769,2.7625,2.7625,3.2767,3.3105,3.3304,3.264,3.2453,3.2341,3.229,3.1698,3.1258,3.1207,3.119,3.119,3.119,3.0598,3.0463,3.114,2.9888,2.9262,2.9606,2.9175,2.823,2.6759,2.6691,2.6708,2.6691,2.6243,2.5875,2.5635,2.4776,2.4081,2.3616,2.3616,2.3266,2.2724,2.2724,2.2724,2.2724,2.2724,2.3041,2.3595,2.3595,2.3595,2.3595,2.3595,2.3595,2.3595,2.3595,2.3595,2.3595,2.3595,2.3595,2.3595,2.3595,2.3595,2.3595,2.3595,2.4627,2.5903,2.6552,2.762,2.8415,2.7845,2.8645,2.9166,2.8022,2.8711,2.9612,2.9612,3.0081,3.0649,3.1238,3.136,3.1353,3.1368,0.0,0.0,3.0584,3.0971,3.0887,2.9722,3.0108,3.0223,2.9674,2.9575,2.9579,2.9579,3.0118,3.0447,3.0507,3.0251,3.0214,3.0317,2.9873,2.9633,2.9687,2.9687,3.0335,3.1591,3.032,3.0373,3.1461,3.0236,2.9687,2.9687,2.9678,2.9654,2.9609,2.8996,2.8712,2.8607,2.7919,2.7649,2.7685,2.764,2.7625,2.7625,3.2998,3.285,3.2613,3.2387,3.1924,3.1749,3.2246,3.1664,3.136,3.1799,3.1461,3.119,3.119,3.0548,3.0395,3.114,3.026,2.977,2.9952,2.9803,2.8991,2.7452,2.6945,2.6691,2.6691,2.6532,2.6105,2.5384,2.5267,2.4668,2.3613,2.3621,2.3475,2.3251,2.3251,2.3251,2.3251,2.3251,2.3385,2.3595,2.3595,2.3595,2.3595,2.3595,2.3595,2.3595,2.3595,2.3595,2.3595,2.3595,2.3595,2.3595,2.3595,2.3595,2.3595,2.3595,2.4552,2.5659,2.5914,2.6947,2.791,2.766,2.8574,2.9433,2.8982,2.9205,2.9684,3.0073,3.0036,3.0107,3.0743,3.0853,3.0968,3.1379,0.0,3.1539,3.1689,3.1973,3.2079,3.2005,3.1467,3.121,3.1379,3.1019,3.0791,3.0791,3.1001,3.115,3.115,3.1071,3.0837,3.0329,3.0615,3.0791,3.0791,3.0791,3.0799,3.0934,3.0418,3.0027,2.975,2.9666,2.9355,2.8996,2.94,2.934,2.8951,2.8712,2.8353,2.7934,2.773,2.7625,2.7625,2.7625,2.7625,2.7625,3.2621,3.229,3.1935,3.1935,3.1529,3.136,3.1867,3.1698,3.163,3.1901,3.1698,3.136,3.0903,3.0192,3.0023,3.0661,3.0142,2.9732,2.9762,2.9286,2.8665,2.7823,2.7097,2.6691,2.6691,2.6701,2.6155,2.5024,2.4989,2.4498,2.3601,2.3398,2.3415,2.3595,2.3595,2.3595,2.3595,2.3595,2.3595,2.358,2.3385,2.331,2.331,2.331,2.3263,2.3245,2.3475,2.3445,2.3223,2.352,2.3595,2.3595,2.3595,2.3595,2.3595,2.3595,2.4552,2.5615,2.5615,2.6572,2.7625,2.7625,2.8427,2.928,2.928,2.9579,2.9998,3.0417,3.0342,3.0328,3.0746,3.0821,3.1046,3.1734,3.1616,3.1706,3.2422,3.2512,3.2602,3.2841,3.2273,3.1943,3.2183,3.1735,3.1482,3.1482,3.1482,3.1482,3.1482,3.1482,3.1219,3.0703,3.1219,3.1482,3.1482,3.1315,3.0971,3.0507,3.0088,2.9564,2.8906,2.8936,2.8831,2.8607,2.8846,2.8697,2.8278,2.8278,2.7993,2.7625,2.7625,2.7625,2.7625,2.7625,2.7625,2.7625,3.1072,3.119,3.119,3.119,3.119,3.119,3.119,3.1799,3.2019,3.1309,3.1833,3.1715,3.0277,2.9448,2.9211,2.9656,2.9276,2.9003,2.9034,2.7573,2.7041,2.7772,2.7097,2.6691,2.6691,2.6701,2.6046,2.47,2.3815,2.3474,2.3595,2.2953,2.2996,2.3595,2.3595,2.3595,2.3595,2.3595,2.3595,2.355,2.2921,2.2724,2.2724,2.2667,2.2535,2.243,2.3263,2.3044,2.2438,2.3298,2.3595,2.3595,2.3595,2.3595,2.3595,2.3595,2.4552,2.5615,2.5615,2.6572,2.7625,2.7625,2.8098,2.8607,2.8607,2.9594,3.0507,3.0507,3.1046,3.1467,3.1482,3.1482,3.1749,3.2392,3.1958,3.1764,3.2422,3.2512,3.2273,3.1571,3.2108,3.2258,3.1541,3.1482,3.1482,3.1482,3.1482,3.1482,3.1482,3.1482,3.1482,3.1482,3.1467,3.1467,3.1467,3.0851,3.0507,3.0477,2.9205,2.8951,2.952,2.8188,2.7949,2.8562,2.7874,2.7625,2.7625,2.7625,2.7625,2.7625,2.7625,2.7625,2.7625,2.7625,2.7625,2.7625,3.1,3.0734,3.0542,3.1095,3.119,3.1202,3.12,3.1381,3.1947,3.3157,3.2281,3.136,3.092,2.9736,2.9465,3.0644,2.9685,2.9448,3.047,2.8774,2.802,2.8619,2.7385,2.6691,2.6691,2.6244,2.5702,2.504,2.3418,2.2742,2.2938,2.2274,2.2084,2.2278,2.2742,2.2951,2.2981,2.3415,2.3595,2.355,2.2921,2.2724,2.2607,2.1828,2.1844,2.2315,2.2607,2.2512,2.2438,2.3298,2.3595,2.3595,2.3595,2.3295,2.3131,2.4059,2.4941,2.5704,2.6168,2.6916,2.773,2.8173,2.8801,2.928,2.928,2.9924,3.0507,3.0507,3.0672,3.0956,3.1377,3.1482,3.1541,3.1794,3.2048,3.2287,3.2482,3.2512,3.2617,3.2886,3.2273,3.1928,3.2198,3.1809,3.1482,3.1482,3.1482,3.1482,3.1482,3.1482,3.1482,3.1482,3.1061,3.0806,3.0806,3.0612,3.0283,2.9849,2.9011,2.8442,2.8225,2.8248,2.8143,2.7889,2.8173,2.8008,2.7625,2.7625,2.7625,2.7625,2.7625,2.7625,2.7625,2.7625,2.7625,2.7625,3.0087,2.9968,2.994,3.0418,3.0699,3.0814,3.0742,3.1311,3.2106,3.2912,3.2474,3.1726,3.0852,3.0234,2.9753,2.9465,2.9677,3.0116,3.0717,2.9158,2.8313,2.8518,2.711,2.642,2.6691,2.6049,2.5522,2.5221,2.3239,2.2435,2.2709,2.2278,2.1934,2.1739,2.2637,2.2906,2.2727,2.3325,2.3595,2.352,2.2637,2.2178,2.1932,2.1178,2.1042,2.1355,2.1864,2.2062,2.2181,2.2981,2.3385,2.3595,2.3595,2.334,2.3191,2.3984,2.4881,2.5689,2.6093,2.6871,2.779,2.8427,2.8697,2.8936,2.946,2.9669,2.9819,3.0088,3.0328,3.0627,3.1046,3.1287,3.1556,3.1884,3.2033,3.2213,3.2482,3.2512,3.2557,3.2706,3.2243,3.1973,3.2108,3.1764,3.1482,3.1482,3.1482,3.1482,3.1482,3.1482,3.1347,3.1135,3.0717,3.0387,3.0148,2.9879,2.9564,2.919,2.8502,2.7979,2.7625,2.8008,2.7964,2.764,2.8008,2.7949,2.7625,2.7625,2.7625,2.7625,2.7625,2.7625,2.7625,2.7625,2.7625,2.7625,2.8507,2.8894,2.9236,2.9233,2.9675,3.0051,3.0119,3.1474,3.2178,3.1309,3.2366,3.2406,3.0311,3.0683,3.0006,2.7328,2.9602,3.0887,3.0243,2.8943,2.8113,2.7926,2.6507,2.6023,2.6607,2.5959,2.5413,2.5144,2.3239,2.245,2.2724,2.2664,2.2263,2.1739,2.2966,2.3206,2.2753,2.3281,2.352,2.34,2.2128,2.1337,2.0966,2.0706,2.0228,1.9854,2.1141,2.1605,2.1724,2.2428,2.3056,2.3535,2.358,2.3565,2.355,2.3729,2.4642,2.563,2.5749,2.6662,2.779,2.8427,2.8083,2.797,2.9205,2.9071,2.8846,2.9385,2.9998,3.0432,3.0492,3.1016,3.1601,3.2317,3.1928,3.1676,3.2332,3.2422,3.2198,3.1541,3.2063,3.2198,3.1541,3.1422,3.1377,3.1377,3.1377,3.1407,3.1482,3.1482,3.121,3.0522,3.0507,3.0178,2.9505,2.8951,2.8682,2.8682,2.7934,2.7655,2.7715,2.7655,2.7625,2.7625,2.7625,2.7625,2.7625,2.7625,2.7625,2.7625,2.7625,2.7625,2.7625,2.7625,2.7625,2.7625,2.6489,2.7226,2.7969,2.8005,2.81,2.881,3.0648,3.0742,3.0742,3.1168,3.1484,3.1263,3.0226,3.0051,3.0071,3.0213,3.0806,3.1128,3.097,2.9239,2.8378,2.8721,2.6945,2.6016,2.6156,2.5192,2.4639,2.4576,2.3254,2.2637,2.2709,2.2143,2.1829,2.1724,2.2517,2.2802,2.2724,2.2858,2.2918,2.2757,2.1455,2.0848,2.0691,2.0139,1.9809,1.9794,2.0632,2.0932,2.1111,2.2278,2.2813,2.2966,2.3445,2.3266,2.3176,2.4717,2.5375,2.5839,2.6856,2.74,2.779,2.8427,2.8083,2.7784,2.8622,2.9101,2.9265,2.8891,2.9325,2.9924,3.0417,3.0627,3.0956,3.1644,3.1571,3.1526,3.1676,3.1749,3.1631,3.1497,3.1601,3.1631,3.1482,3.1046,3.0731,3.0731,3.0731,3.0971,3.1437,3.1482,3.121,3.0522,3.0507,2.9953,2.8831,2.9175,2.937,2.9355,2.8143,2.7859,2.8368,2.7814,2.7625,2.7625,2.7625,2.7625,2.7625,2.7625,2.7625,2.7625,2.7625,2.7625,2.7625,2.7625,2.7625,2.7625,2.6669,2.7116,2.7583,2.7596,2.7845,2.8356,2.9313,3.0109,3.045,3.0086,3.0212,3.0061,2.9353,2.9263,2.9567,3.0278,2.9774,2.97,3.0302,2.9138,2.8367,2.819,2.6047,2.5128,2.5694,2.4601,2.4142,2.4389,2.3546,2.2966,2.2724,2.2622,2.2278,2.1739,2.2697,2.2951,2.2739,2.2996,2.279,2.2159,2.1476,2.081,2.019,1.9833,1.969,1.9735,2.0094,2.0632,2.1335,2.2379,2.2877,2.3176,2.349,2.337,2.331,2.4343,2.5106,2.5749,2.6452,2.7096,2.7664,2.8023,2.7844,2.7754,2.8442,2.8607,2.8532,2.8188,2.8652,2.9205,2.9535,3.0088,3.0612,3.0986,3.1315,3.1482,3.1482,3.1482,3.1482,3.1482,3.1482,3.1482,3.1482,3.0911,3.0507,3.0507,3.0806,3.1001,3.1046,3.136,3.121,3.0522,3.0507,3.0043,2.9086,2.94,2.9729,2.9998,2.8682,2.8248,2.8577,2.7889,2.7625,2.7625,2.7625,2.7625,2.7625,2.7625,2.7625,2.7625,2.7625,2.7625,2.7625,2.7625,2.7625,2.7625,2.7111,2.7245,2.7415,2.726,2.7841,2.8227,2.7808,2.9425,3.0288,2.9045,2.9145,2.9049,2.8437,2.8471,2.8605,2.8809,2.8081,2.8124,2.9233,2.8871,2.822,2.7326,2.5129,2.4394,2.54,2.4228,2.3855,2.4451,2.3855,2.3325,2.2847,2.3355,2.3041,2.2069,2.3131,2.331,2.2862,2.3266,2.281,2.1801,2.1615,2.0768,1.9683,1.9685,1.969,1.969,1.969,2.0543,2.1784,2.2323,2.2996,2.3595,2.3595,2.3595,2.3625,2.3744,2.4642,2.563,2.5749,2.6662,2.7625,2.7625,2.7625,2.7775,2.8293,2.7979,2.7625,2.7625,2.8023,2.8457,2.8577,2.9564,3.0372,3.0492,3.1091,3.1482,3.1482,3.1482,3.1437,3.1317,3.1302,3.1302,3.1302,3.0746,3.0342,3.0342,3.0881,3.0941,3.0372,3.1106,3.1165,3.0372,3.0567,3.0328,2.9594,2.9804,3.0118,3.0492,2.943,2.8876,2.8742,2.7934,2.7625,2.7625,2.7625,2.7625,2.7625,2.7625,2.7625,2.7625,2.7625,2.7625,2.7625,2.7625,2.7625,2.7625,2.5179,2.5944,2.6542,2.5974,2.6909,2.7879,2.8306,2.8669,2.8967,2.9268,2.9045,2.8726,2.8339,2.7854,2.7211,2.6502,2.7549,2.8462,2.8844,2.8547,2.8057,2.7326,2.5915,2.5219,2.5416,2.4228,2.3938,2.4567,2.3938,2.355,2.3475,2.3565,2.3505,2.3355,2.352,2.355,2.3445,2.2996,2.2611,2.2144,2.1222,2.0368,1.9683,1.9685,1.969,1.969,1.969,2.0543,2.171,2.1799,2.2622,2.3595,2.3595,2.3595,2.3714,2.4268,2.5016,2.5734,2.6303,2.7006,2.7625,2.7625,2.7625,2.764,2.773,2.7685,2.7625,2.7625,2.7685,2.7889,2.8487,2.9205,2.9879,3.0417,3.1091,3.1482,3.1482,3.1482,3.1258,3.0717,3.0642,3.0642,3.0642,3.0073,2.9699,2.9699,2.9789,2.9804,2.9714,3.0866,3.0971,2.9744,3.0806,3.0806,2.9594,3.0702,3.1001,3.0507,3.0328,2.9968,2.94,2.8143,2.7625,2.7625,2.7625,2.7625,2.7625,2.7625,2.7625,2.7625,2.7625,2.7625,2.7625,2.7625,2.7625,2.7625,2.5345,2.5644,2.5959,2.5659,2.6393,2.712,2.7397,2.804,2.8324,2.789,2.8295,2.8139,2.6917,2.6547,2.6488,2.6837,2.7211,2.7612,2.8104,2.7304,2.6641,2.6377,2.5098,2.4648,2.5179,2.4158,2.3984,2.4807,2.3984,2.3595,2.3595,2.3595,2.3595,2.3595,2.3595,2.3595,2.358,2.331,2.314,2.2938,2.1734,2.0938,2.037,1.9878,1.9449,1.9045,1.8636,1.9734,2.1292,2.1263,2.2058,2.3143,2.3508,2.3377,2.3289,2.4283,2.4791,2.5211,2.5869,2.6512,2.6931,2.6572,2.7036,2.752,2.7111,2.7355,2.773,2.8068,2.7844,2.7904,2.8951,2.9385,2.9789,3.0402,3.1091,3.1482,3.1482,3.1482,3.1362,3.1106,3.0438,3.0273,3.1001,3.0183,2.9717,3.0058,3.0103,3.0103,3.0103,3.1001,3.127,3.0687,3.124,3.1255,3.0672,3.124,3.1317,3.1076,3.0687,3.0178,2.9549,2.8592,2.7934,2.7625,2.7625,2.7625,2.7625,2.7625,2.7625,2.7625,2.7625,2.7625,2.7625,2.7625,2.7625,2.7625]},{"header":{"parameterUnit":"m.s-1","parameterCategory":1,"la1":30.6,"la2":28.766,"lo1":-90.7593,"lo2":-88.6598,"dy":0.0162,"dx":0.0183,"nx":116,"ny":114,"refTime":"2023-09-07T18:00:00:Z","depth":0,"parameterNumber":3,"parameterNumberName":"V-component_of_WINDS"},"data":[0.0,0.0,0.0,0.0,0.0,0.0,0.0,0.0,0.0,0.0,0.0,0.0,0.0,0.0,0.0,0.0,0.0,0.0,0.0,0.0,0.0,0.0,0.0,0.0,0.0,0.0,0.0,0.0,0.0,0.0,0.0,0.0,0.0,0.0,0.0,0.0,0.0,0.0,0.0,0.0,0.0,0.0,0.0,0.0,0.0,0.0,0.0,0.0,0.0,0.0,0.0,0.0,0.0,0.0,0.0,0.0,0.0,0.0,0.0,0.0,0.0,0.0,0.0,0.0,0.0,0.0,0.0,0.0,0.0,0.0,0.0,0.0,0.0,0.0,0.0,0.0,0.0,0.0,0.0,0.0,0.0,0.0,0.0,0.0,0.0,0.0,0.0,0.0,0.0,0.0,0.0,0.0,0.0,0.0,0.0,0.0,0.0,0.0,0.0,0.0,0.0,0.0,0.0,0.0,0.0,0.0,0.0,0.0,0.0,0.0,0.0,0.0,0.0,0.0,0.0,0.0,0.0,0.0,0.0,0.0,0.0,0.0,0.0,0.0,0.0,0.0,0.0,0.0,0.0,0.0,0.0,0.0,0.0,0.0,0.0,0.0,0.0,0.0,0.0,0.0,0.0,0.0,0.0,0.0,0.0,0.0,0.0,0.0,0.0,0.0,0.0,0.0,0.0,0.0,0.0,0.0,0.0,0.0,0.0,0.0,0.0,0.0,0.0,0.0,0.0,0.0,0.0,0.0,0.0,0.0,0.0,0.0,0.0,0.0,0.0,0.0,0.0,0.0,0.0,0.0,0.0,0.0,0.0,0.0,0.0,0.0,0.0,0.0,0.0,0.0,0.0,0.0,0.0,0.0,0.0,0.0,0.0,0.0,0.0,0.0,0.0,0.0,0.0,0.0,0.0,0.0,0.0,0.0,0.0,0.0,0.0,0.0,0.0,0.0,0.0,0.0,0.0,0.0,0.0,0.0,0.0,0.0,0.0,0.0,0.0,0.0,0.0,0.0,0.0,0.0,0.0,0.0,0.0,0.0,0.0,0.0,0.0,0.0,0.0,0.0,0.0,0.0,0.0,0.0,0.0,0.0,0.0,0.0,0.0,0.0,0.0,0.0,0.0,0.0,0.0,0.0,0.0,0.0,0.0,0.0,0.0,0.0,0.0,0.0,0.0,0.0,0.0,0.0,0.0,0.0,0.0,0.0,0.0,0.0,0.0,0.0,0.0,0.0,0.0,0.0,0.0,0.0,0.0,0.0,0.0,0.0,0.0,0.0,0.0,0.0,0.0,0.0,0.0,0.0,0.0,0.0,0.0,0.0,0.0,0.0,0.0,0.0,0.0,0.0,0.0,0.0,0.0,0.0,0.0,0.0,0.0,0.0,0.0,0.0,0.0,0.0,0.0,0.0,0.0,0.0,0.0,0.0,0.0,0.0,0.0,0.0,0.0,0.0,0.0,0.0,0.0,0.0,0.0,0.0,0.0,0.0,0.0,0.0,0.0,0.0,0.0,0.0,0.0,0.0,0.0,0.0,0.0,0.0,0.0,0.0,0.0,0.0,0.0,0.0,0.0,0.0,0.0,0.0,0.0,0.0,0.0,0.0,0.0,0.0,0.0,0.0,0.0,0.0,0.0,0.0,0.0,0.0,0.0,0.0,0.0,0.0,0.0,0.0,0.0,0.0,0.0,0.0,0.0,0.0,0.0,0.0,0.0,0.0,0.0,0.0,0.0,0.0,0.0,0.0,0.0,0.0,0.0,0.0,0.0,0.0,0.0,0.0,0.0,0.0,0.0,0.0,0.0,0.0,0.0,0.0,0.0,0.0,0.0,0.0,0.0,0.0,0.0,0.0,0.0,0.0,0.0,0.0,0.0,0.0,0.0,0.0,0.0,0.0,0.0,0.0,0.0,0.0,0.0,0.0,0.0,0.0,0.0,0.0,0.0,0.0,0.0,0.0,0.0,0.0,0.0,0.0,0.0,0.0,0.0,0.0,0.0,0.0,0.0,0.0,0.0,0.0,0.0,0.0,0.0,0.0,0.0,0.0,0.0,0.0,0.0,0.0,0.0,0.0,0.0,0.0,0.0,0.0,0.0,0.0,0.0,0.0,0.0,0.0,0.0,0.0,0.0,0.0,0.0,0.0,0.0,0.0,0.0,0.0,0.0,0.0,0.0,0.0,0.0,0.0,0.0,0.0,0.0,0.0,0.0,0.0,0.0,0.0,0.0,0.0,0.0,0.0,0.0,0.0,0.0,0.0,0.0,0.0,0.0,0.0,0.0,0.0,0.0,0.0,0.0,0.0,0.0,0.0,0.0,0.0,0.0,0.0,0.0,0.0,0.0,0.0,0.0,0.0,0.0,0.0,0.0,0.0,0.0,0.0,0.0,0.0,0.0,0.0,0.0,0.0,0.0,0.0,0.0,0.0,0.0,0.0,0.0,0.0,0.0,0.0,0.0,0.0,0.0,0.0,0.0,0.0,0.0,0.0,0.0,0.0,0.0,0.0,0.0,0.0,0.0,0.0,0.0,0.0,0.0,0.0,0.0,0.0,0.0,0.0,0.0,0.0,0.0,0.0,0.0,0.0,0.0,0.0,0.0,0.0,0.0,0.0,0.0,0.0,0.0,0.0,0.0,0.0,0.0,0.0,0.0,0.0,0.0,0.0,0.0,0.0,0.0,0.0,0.0,0.0,0.0,0.0,0.0,0.0,0.0,0.0,0.0,0.0,0.0,0.0,0.0,0.0,0.0,0.0,0.0,0.0,0.0,0.0,0.0,0.0,0.0,0.0,0.0,0.0,0.0,0.0,0.0,0.0,0.0,0.0,0.0,0.0,0.0,0.0,0.0,0.0,0.0,0.0,0.0,0.0,0.0,0.0,0.0,0.0,0.0,0.0,0.0,0.0,0.0,0.0,0.0,0.0,0.0,0.0,0.0,0.0,0.0,0.0,0.0,0.0,0.0,0.0,0.0,0.0,0.0,0.0,0.0,0.0,0.0,0.0,0.0,0.0,0.0,0.0,0.0,0.0,0.0,0.0,0.0,0.0,0.0,0.0,0.0,0.0,0.0,0.0,0.0,0.0,0.0,0.0,0.0,0.0,0.0,0.0,0.0,0.0,0.0,0.0,0.0,0.0,0.0,0.0,0.0,0.0,0.0,0.0,0.0,0.0,0.0,0.0,0.0,0.0,0.0,0.0,0.0,0.0,0.0,0.0,0.0,0.0,0.0,0.0,0.0,0.0,0.0,0.0,0.0,0.0,0.0,0.0,0.0,0.0,0.0,0.0,0.0,0.0,0.0,0.0,0.0,0.0,0.0,0.0,0.0,0.0,0.0,0.0,0.0,0.0,0.0,0.0,0.0,0.0,0.0,0.0,0.0,0.0,0.0,0.0,0.0,0.0,0.0,0.0,0.0,0.0,0.0,0.0,0.0,0.0,0.0,0.0,0.0,0.0,0.0,0.0,0.0,0.0,0.0,0.0,0.0,0.0,0.0,0.0,0.0,0.0,0.0,0.0,0.0,0.0,0.0,0.0,0.0,0.0,0.0,0.0,0.0,0.0,0.0,0.0,0.0,0.0,0.0,0.0,0.0,0.0,0.0,0.0,0.0,0.0,0.0,0.0,0.0,0.0,0.0,0.0,0.0,0.0,0.0,0.0,0.0,0.0,0.0,0.0,0.0,0.0,0.0,0.0,0.0,0.0,0.0,0.0,0.0,0.0,0.0,0.0,0.0,0.0,0.0,0.0,0.0,0.0,0.0,0.0,0.0,0.0,0.0,0.0,0.0,0.0,0.0,0.0,0.0,0.0,0.0,0.0,0.0,0.0,0.0,0.0,0.0,0.0,0.0,0.0,0.0,0.0,0.0,0.0,0.0,0.0,0.0,0.0,0.0,0.0,0.0,0.0,0.0,0.0,0.0,0.0,0.0,0.0,0.0,0.0,0.0,0.0,0.0,0.0,0.0,0.0,0.0,0.0,0.0,0.0,0.0,0.0,0.0,0.0,0.0,0.0,0.0,0.0,0.0,0.0,0.0,0.0,0.0,0.0,0.0,0.0,0.0,0.0,0.0,0.0,0.0,0.0,0.0,0.0,0.0,0.0,0.0,0.0,0.0,0.0,0.0,0.0,0.0,0.0,0.0,0.0,0.0,0.0,0.0,0.0,0.0,0.0,0.0,0.0,0.0,0.0,0.0,0.0,0.0,0.0,0.0,0.0,0.0,0.0,0.0,0.0,0.0,0.0,0.0,0.0,0.0,0.0,0.0,0.0,0.0,0.0,0.0,0.0,0.0,0.0,0.0,0.0,0.0,0.0,0.0,0.0,0.0,0.0,0.0,0.0,0.0,0.0,0.0,0.0,0.0,0.0,0.0,0.0,0.0,0.0,0.0,0.0,0.0,0.0,0.0,0.0,0.0,0.0,0.0,0.0,0.0,0.0,0.0,0.0,0.0,0.0,0.0,0.0,0.0,0.0,0.0,0.0,0.0,0.0,0.0,0.0,0.0,0.0,0.0,0.0,0.0,0.0,0.0,0.0,0.0,0.0,0.0,0.0,0.0,0.0,0.0,0.0,0.0,0.0,0.0,0.0,0.0,0.0,0.0,0.0,0.0,0.0,0.0,0.0,0.0,0.0,0.0,0.0,0.0,0.0,0.0,0.0,0.0,0.0,0.0,0.0,0.0,0.0,0.0,0.0,0.0,0.0,0.0,0.0,0.0,0.0,0.0,0.0,0.0,0.0,0.0,0.0,0.0,0.0,0.0,0.0,0.0,0.0,0.0,0.0,0.0,0.0,0.0,0.0,0.0,0.0,0.0,0.0,0.0,0.0,0.0,0.0,0.0,0.0,0.0,0.0,0.0,0.0,0.0,0.0,0.0,0.0,0.0,0.0,0.0,0.0,0.0,0.0,0.0,0.0,0.0,0.0,0.0,0.0,0.0,0.0,0.0,0.0,0.0,0.0,0.0,0.0,0.0,0.0,0.0,0.0,0.0,0.0,0.0,0.0,0.0,0.0,0.0,0.0,0.0,0.0,0.0,0.0,0.0,0.0,0.0,0.0,0.0,0.0,0.0,0.0,0.0,0.0,0.0,0.0,0.0,0.0,0.0,0.0,0.0,0.0,0.0,0.0,0.0,0.0,0.0,0.0,0.0,0.0,0.0,0.0,0.0,0.0,0.0,0.0,0.0,0.0,0.0,0.0,0.0,0.0,0.0,0.0,0.0,0.0,0.0,0.0,0.0,0.0,0.0,0.0,0.0,0.0,0.0,0.0,0.0,0.0,0.0,0.0,0.0,0.0,0.0,0.0,0.0,0.0,0.0,0.0,0.0,0.0,0.0,0.0,0.0,0.0,0.0,0.0,0.0,0.0,0.0,0.0,0.0,0.0,0.0,0.0,0.0,0.0,0.0,0.0,0.0,0.0,0.0,0.0,0.0,0.0,0.0,0.0,0.0,0.0,0.0,0.0,0.0,0.0,0.0,0.0,0.0,0.0,0.0,0.0,0.0,0.0,0.0,0.0,0.0,0.0,0.0,0.0,0.0,0.0,0.0,0.0,0.0,0.0,0.0,0.0,0.0,0.0,0.0,0.0,0.0,0.0,0.0,0.0,0.0,0.0,0.0,0.0,0.0,0.0,0.0,0.0,0.0,0.0,0.0,0.0,0.0,0.0,0.0,0.0,0.0,0.0,0.0,0.0,0.0,0.0,0.0,0.0,0.0,0.0,0.0,0.0,0.0,0.0,0.0,0.0,0.0,0.0,0.0,0.0,0.0,0.0,0.0,0.0,0.0,0.0,0.0,0.0,0.0,0.0,0.0,0.0,0.0,0.0,0.0,0.0,0.0,0.0,0.0,0.0,0.0,0.0,0.0,0.0,0.0,0.0,0.0,0.0,0.0,0.0,0.0,0.0,0.0,0.0,0.0,0.0,0.0,0.0,0.0,0.0,0.0,0.0,0.0,0.0,0.0,0.0,0.0,0.0,0.0,0.0,0.0,0.0,0.0,0.0,0.0,0.0,0.0,0.0,0.0,0.0,0.0,0.0,0.0,0.0,0.0,0.0,0.0,0.0,0.0,0.0,0.0,0.0,0.0,0.0,0.0,0.0,0.0,0.0,-0.577,-0.5289,0.0,0.0,0.0,0.0,0.0,0.0,0.0,0.0,0.0,0.0,0.0,0.0,0.0,0.0,0.0,0.0,0.0,0.0,0.0,0.0,0.0,0.0,0.0,0.0,0.0,0.0,0.0,0.0,0.0,0.0,0.0,0.0,0.0,0.0,0.0,0.0,0.0,0.0,-0.9308,-0.9012,-0.8827,-0.8138,-0.7122,-0.5796,0.0,0.0,0.0,0.0,0.0,0.0,0.0,0.0,0.0,0.0,0.0,0.0,0.0,0.0,0.0,0.0,0.0,0.0,0.0,0.0,0.0,0.0,0.0,0.0,0.0,0.0,0.0,0.0,0.0,0.0,0.0,0.0,0.0,0.0,0.0,0.0,0.0,0.0,0.0,0.0,0.0,0.0,0.0,0.0,0.0,0.0,0.0,0.0,0.0,0.0,0.0,0.0,0.0,0.0,0.0,0.0,0.0,0.0,0.0,0.0,0.0,0.0,0.0,0.0,0.0,0.0,0.0,0.0,0.0,0.0,-0.7494,-0.6784,0.0,0.0,0.0,0.0,0.0,0.0,0.0,0.0,0.0,0.0,0.0,0.0,0.0,0.0,0.0,0.0,0.0,0.0,0.0,0.0,0.0,0.0,0.0,0.0,0.0,0.0,0.0,0.0,0.0,0.0,0.0,0.0,0.0,0.0,0.0,-1.0428,-1.0195,-0.9925,-0.9478,-0.9398,-0.9771,-0.919,-0.832,-0.7161,-0.6594,0.0,0.0,0.0,0.0,0.0,0.0,0.0,0.0,0.0,0.0,0.0,0.0,0.0,0.0,0.0,0.0,0.0,0.0,0.0,0.0,0.0,0.0,0.0,0.0,0.0,0.0,0.0,0.0,0.0,0.0,0.0,0.0,0.0,0.0,0.0,0.0,0.0,0.0,0.0,0.0,0.0,0.0,0.0,0.0,0.0,0.0,0.0,0.0,0.0,0.0,0.0,0.0,0.0,0.0,0.0,0.0,0.0,0.0,0.0,0.0,0.0,0.0,0.0,-0.8147,-0.8611,-0.9575,-0.9365,-0.9755,-1.0559,-0.8867,-0.8233,-0.8338,-0.7858,0.0,0.0,0.0,0.0,0.0,0.0,0.0,0.0,0.0,0.0,0.0,0.0,0.0,0.0,0.0,0.0,0.0,0.0,0.0,0.0,0.0,-1.0582,-1.0459,-1.0596,-1.0567,-1.0499,0.0,0.0,0.0,0.0,0.0,0.0,-1.0687,-1.0475,-1.0143,-0.9665,-0.9198,-0.9361,-1.0097,-0.9357,-0.9468,-1.0266,-0.9665,-0.877,-0.7617,0.0,0.0,0.0,0.0,0.0,0.0,0.0,0.0,0.0,0.0,0.0,0.0,0.0,0.0,0.0,0.0,0.0,0.0,0.0,0.0,0.0,0.0,0.0,0.0,0.0,0.0,0.0,0.0,0.0,0.0,0.0,0.0,0.0,0.0,0.0,0.0,0.0,0.0,0.0,0.0,0.0,-0.7516,-0.7878,0.0,0.0,0.0,0.0,0.0,0.0,0.0,0.0,0.0,0.0,0.0,0.0,0.0,-0.8579,-0.8538,-0.8705,-0.8851,-0.8907,-0.9924,-1.0343,-1.0186,-1.0294,-1.0498,-1.0762,-1.0501,0.0,-1.0187,-0.9636,0.0,0.0,0.0,0.0,0.0,0.0,0.0,0.0,0.0,0.0,0.0,0.0,0.0,0.0,0.0,0.0,0.0,0.0,0.0,0.0,0.0,-1.0567,-1.0663,-1.0618,-1.0925,-1.1032,-1.0693,0.0,0.0,0.0,0.0,-1.084,-1.0649,-1.032,-0.964,-0.8638,-0.8853,-0.9098,-0.937,-0.9828,-1.0519,-1.1405,-1.1557,-1.1006,-0.9887,-0.9066,0.0,0.0,0.0,0.0,0.0,0.0,0.0,0.0,0.0,0.0,0.0,0.0,0.0,0.0,0.0,0.0,0.0,0.0,0.0,0.0,0.0,0.0,0.0,0.0,0.0,0.0,0.0,0.0,0.0,0.0,0.0,0.0,0.0,0.0,0.0,0.0,0.0,0.0,0.0,-0.6877,-0.7126,-0.8081,-0.7143,-0.6563,0.0,0.0,0.0,0.0,0.0,0.0,0.0,0.0,0.0,-0.991,-1.0646,-1.1096,-1.1185,-1.0831,-1.0636,-1.06,-1.0344,-1.0556,-1.1178,-1.1288,-1.1797,-1.2657,-1.2657,-1.2604,-1.2473,-1.1541,-1.1308,-1.1349,0.0,0.0,0.0,0.0,-0.642,-0.6334,0.0,0.0,0.0,0.0,0.0,0.0,0.0,0.0,0.0,0.0,0.0,0.0,-1.0153,-1.0523,-1.0648,-1.0362,-1.0904,-1.1107,-1.0705,-1.0965,0.0,0.0,0.0,-1.0586,-1.0467,-0.9763,-0.899,-0.8073,-0.8467,-0.8762,-0.8999,-1.0041,-1.1057,-1.2101,-1.2638,-1.2464,-1.1713,-1.0871,-0.9764,-0.8481,0.0,0.0,0.0,0.0,0.0,0.0,0.0,0.0,0.0,0.0,0.0,0.0,0.0,0.0,0.0,0.0,0.0,0.0,0.0,0.0,0.0,0.0,0.0,0.0,0.0,0.0,0.0,0.0,0.0,0.0,0.0,0.0,0.0,0.0,0.0,0.0,0.0,-0.7298,-0.7289,-0.8265,-0.7776,-0.7405,0.0,0.0,0.0,0.0,0.0,0.0,-1.0023,-1.0801,-1.1333,-1.166,-1.2718,-1.3383,-1.3539,-1.2783,-1.2299,-1.2164,-1.116,-1.1115,-1.1961,-1.2012,-1.2779,-1.3908,-1.3847,-1.4028,-1.4214,-1.3168,-1.2923,-1.3074,-1.1865,-1.0689,-0.9583,-0.9085,-0.8585,-0.8182,0.0,0.0,0.0,0.0,0.0,0.0,0.0,0.0,0.0,0.0,0.0,-1.1074,-1.0261,-1.0337,-1.0177,-0.9618,-1.0115,-1.0312,-0.9907,-1.063,-1.095,-1.0609,-1.0724,-1.0582,-1.0127,-0.8777,-0.8235,-0.8457,-0.8001,-0.8442,-0.9762,-0.9814,-1.0897,-1.2773,-1.2773,-1.2773,-1.2706,-1.2067,-1.1152,-1.0,-0.8892,0.0,0.0,0.0,0.0,0.0,0.0,0.0,0.0,0.0,0.0,0.0,0.0,0.0,0.0,0.0,0.0,0.0,0.0,0.0,0.0,0.0,0.0,0.0,0.0,0.0,0.0,0.0,0.0,0.0,0.0,0.0,0.0,0.0,0.0,0.0,0.0,0.0,0.0,-0.8691,-1.0003,0.0,0.0,0.0,0.0,-1.0264,-1.0547,-1.1226,-1.2462,-1.3105,-1.38,-1.454,-1.4417,-1.445,-1.4841,-1.4081,-1.3444,-1.2869,-1.3244,-1.2877,-1.2032,-1.2394,-1.2911,-1.3402,-1.3249,-1.3755,-1.4717,-1.4223,-1.4029,-1.4016,-1.3714,-1.3083,-1.2274,-1.1949,-1.122,-1.0451,0.0,0.0,0.0,0.0,0.0,0.0,0.0,0.0,0.0,-1.1057,-1.0695,-1.0349,-1.0047,-1.0185,-1.0144,-0.9842,-1.0714,-1.1125,-1.0739,-1.1168,-1.1479,-1.1551,-1.0656,-0.9724,-0.8777,-0.8221,-0.749,-0.6554,-0.7346,-0.7717,-0.7753,-0.9176,-1.0159,-1.0897,-1.1747,-1.2385,-1.2812,-1.3052,-1.2406,-1.121,-1.0155,-0.8417,0.0,0.0,0.0,0.0,0.0,0.0,0.0,0.0,0.0,0.0,0.0,0.0,0.0,0.0,0.0,0.0,0.0,0.0,0.0,0.0,0.0,0.0,0.0,0.0,0.0,0.0,0.0,0.0,0.0,0.0,0.0,0.0,0.0,0.0,0.0,0.0,0.0,-0.9549,-1.0662,0.0,-1.112,-1.1337,-1.1664,-1.1969,-1.2859,-1.358,-1.4015,-1.4801,-1.5359,-1.5605,-1.6114,-1.5961,-1.5178,-1.4641,-1.3856,-1.2781,-1.238,-1.2579,-1.3354,-1.2866,-1.3386,-1.463,-1.4549,-1.4382,-1.4311,-1.5368,-1.5604,-1.5398,-1.5616,-1.4818,-1.355,-1.3421,-1.2416,-1.1108,0.0,0.0,0.0,0.0,0.0,0.0,0.0,0.0,0.0,-1.1316,-1.0707,-1.0117,-0.9748,-0.97,-0.9562,-0.927,-1.0348,-1.0948,-1.0685,-1.1449,-1.1774,-1.1536,-1.0152,-0.8973,-0.8037,-0.7446,-0.6739,-0.5869,-0.6578,-0.6961,-0.702,-0.8448,-0.934,-0.9865,-1.072,-1.1507,-1.2181,-1.2831,-1.2908,-1.2474,-1.1509,-0.9992,-0.8109,0.0,0.0,0.0,0.0,0.0,0.0,0.0,0.0,0.0,0.0,0.0,0.0,0.0,0.0,0.0,0.0,0.0,0.0,0.0,0.0,0.0,0.0,0.0,0.0,0.0,0.0,0.0,0.0,0.0,0.0,0.0,0.0,0.0,0.0,-0.8826,-0.9624,-0.9879,-1.1143,-1.1997,-1.2125,-1.2791,-1.3442,-1.37,-1.4677,-1.5283,-1.543,-1.626,-1.6719,-1.6719,-1.7226,-1.7036,-1.6129,-1.546,-1.4497,-1.3204,-1.2643,-1.2719,-1.35,-1.3102,-1.3576,-1.4706,-1.4975,-1.4906,-1.4613,-1.6166,-1.6571,-1.6211,-1.6495,-1.546,-1.3858,-1.3677,-1.2671,-1.1414,0.0,0.0,0.0,0.0,0.0,0.0,0.0,-1.1452,-1.1399,-1.193,-1.1387,-1.0524,-0.9402,-0.8952,-0.8429,-0.7771,-0.8933,-0.9703,-0.9658,-1.1443,-1.1862,-1.0479,-0.929,-0.8488,-0.808,-0.6526,-0.6005,-0.6554,-0.5837,-0.6268,-0.7639,-0.7693,-0.8427,-0.974,-0.9792,-1.0198,-1.0846,-1.1501,-1.2589,-1.3716,-1.3082,-1.2073,-1.0855,0.0,0.0,0.0,0.0,0.0,0.0,0.0,0.0,0.0,0.0,0.0,0.0,0.0,0.0,0.0,0.0,0.0,0.0,0.0,0.0,0.0,0.0,0.0,0.0,0.0,0.0,0.0,0.0,0.0,0.0,0.0,0.0,0.0,-0.9059,-0.9326,-0.9613,-0.9928,-1.176,-1.2958,-1.2958,-1.4109,-1.499,-1.54,-1.5859,-1.6318,-1.6748,-1.7588,-1.8057,-1.7979,-1.7833,-1.7719,-1.7626,-1.6556,-1.5391,-1.4186,-1.4186,-1.3575,-1.2405,-1.3134,-1.3492,-1.3564,-1.4418,-1.513,-1.5674,-1.659,-1.667,-1.6315,-1.6394,-1.5259,-1.3448,-1.2969,-1.2266,-1.1529,0.0,0.0,0.0,0.0,0.0,0.0,0.0,-1.1341,-1.1274,-1.193,-1.0865,-0.9847,-0.9354,-0.898,-0.8468,-0.7777,-0.9415,-1.0501,-1.0466,-1.1628,-1.1724,-1.0548,-1.0,-0.9036,-0.7482,-0.6425,-0.5726,-0.538,-0.5726,-0.6073,-0.6483,-0.7632,-0.8435,-0.8827,-0.996,-1.0579,-1.0793,-1.1434,-1.2298,-1.3118,-1.2947,-1.2169,-1.1082,0.0,0.0,0.0,0.0,0.0,0.0,0.0,0.0,0.0,0.0,0.0,0.0,0.0,0.0,0.0,0.0,0.0,0.0,0.0,0.0,0.0,0.0,0.0,0.0,0.0,0.0,0.0,0.0,0.0,0.0,0.0,-1.0188,-1.0857,-1.13,-1.1557,-1.2129,-1.3373,-1.4227,-1.4706,-1.4706,-1.5332,-1.5821,-1.5879,-1.6875,-1.7529,-1.7656,-1.8467,-1.8567,-1.7825,-1.8778,-1.8055,-1.5488,-1.6268,-1.5599,-1.3464,-1.3464,-1.3642,-1.3921,-1.3488,-1.3635,-1.4303,-1.4531,-1.4327,-1.404,-1.563,-1.5435,-1.431,-1.6476,-1.6105,-1.431,-1.4161,-1.3485,-1.2705,0.0,0.0,0.0,0.0,0.0,0.0,0.0,-1.1201,-1.1067,-1.1706,-1.0523,-0.9447,-0.9069,-0.8605,-0.8156,-0.7723,-0.9207,-1.0289,-1.061,-1.1683,-1.1888,-1.0939,-1.015,-0.8976,-0.727,-0.6186,-0.5402,-0.4918,-0.5336,-0.5973,-0.6707,-0.7673,-0.8512,-0.9357,-1.026,-1.0685,-1.0685,-1.1373,-1.195,-1.2373,-1.2905,-1.2856,-1.2371,-1.2167,-1.1518,-1.0733,-1.0415,-0.9789,-0.9005,-0.8244,0.0,0.0,0.0,0.0,0.0,0.0,0.0,0.0,0.0,0.0,0.0,0.0,0.0,0.0,0.0,0.0,0.0,0.0,0.0,0.0,0.0,0.0,0.0,0.0,-1.1914,-1.2721,-1.4212,-1.3602,-1.3561,-1.498,-1.5349,-1.5575,-1.5906,-1.6357,-1.6689,-1.6865,-1.7744,-1.8359,-1.8535,-1.9355,-1.9278,-1.8195,-1.9204,-1.8329,-1.5256,-1.602,-1.5408,-1.3394,-1.3514,-1.3762,-1.3974,-1.3695,-1.3817,-1.4165,-1.4299,-1.4205,-1.4099,-1.5385,-1.5132,0.0,0.0,0.0,0.0,0.0,-1.3292,-1.2749,0.0,0.0,0.0,0.0,0.0,0.0,0.0,-1.1088,-1.0884,-1.1516,-1.0401,-0.9337,-0.8871,-0.8205,-0.7794,-0.7824,-0.8802,-0.9841,-1.0718,-1.1822,-1.2222,-1.1634,-0.9967,-0.8516,-0.7425,-0.5892,-0.5104,-0.4996,-0.4996,-0.5868,-0.7477,-0.7729,-0.873,-1.0392,-1.0591,-1.0719,-1.0725,-1.1368,-1.167,-1.1799,-1.2939,-1.363,-1.3968,-1.3728,-1.3384,-1.2969,-1.235,-1.179,-1.1056,-0.9685,0.0,0.0,0.0,0.0,0.0,0.0,0.0,0.0,0.0,0.0,0.0,0.0,0.0,0.0,0.0,0.0,0.0,0.0,0.0,0.0,0.0,0.0,0.0,0.0,-1.3631,-1.4453,-1.7069,-1.5522,-1.4551,-1.5679,-1.578,-1.6057,-1.6811,-1.7275,-1.7676,-1.8047,-1.8564,-1.9023,-1.9404,-2.0195,0.0,0.0,0.0,-1.8551,-1.6044,-1.5921,-1.5158,-1.3701,-1.3995,-1.3848,-1.3327,-1.3881,-1.3975,-1.3707,-1.3975,-1.44,-1.4933,-1.5323,-1.5293,-1.4955,-1.4955,-1.4402,-1.3556,-1.2765,-1.2445,-1.2373,0.0,0.0,0.0,0.0,0.0,0.0,0.0,-1.118,-1.1238,-1.2172,-1.0766,-0.962,-0.9511,-0.8755,-0.8326,-0.8515,-0.963,-1.1118,-1.2957,-1.2595,-1.228,-1.2233,-0.99,-0.8404,-0.7889,-0.6205,-0.5365,-0.546,-0.546,-0.5733,-0.6224,-0.7739,-0.8595,-0.905,-1.0566,-1.1263,-1.1269,-1.1648,-1.2086,-1.2543,-1.3005,-1.3282,-1.3548,-1.3855,-1.4189,-1.4317,-1.3584,-1.3403,-1.328,-1.1269,-1.0938,-1.1064,-0.9803,-0.9039,0.0,0.0,0.0,0.0,0.0,0.0,0.0,0.0,0.0,0.0,0.0,0.0,0.0,0.0,0.0,0.0,0.0,0.0,0.0,-1.3433,-1.4708,-1.6076,-1.7638,-1.7456,-1.7245,-1.7466,-1.7543,-1.7552,-1.7764,-1.8144,-1.8428,-1.8516,-1.9561,-2.0225,-2.0312,-2.082,-2.0595,-1.9426,-2.0089,-1.8887,-1.5793,-1.655,-1.6011,-1.4008,0.0,0.0,-1.3928,-1.4275,-1.4275,-1.4008,-1.4062,-1.3998,-1.3906,-1.4289,-1.4378,-1.4323,-1.4323,-1.4162,-1.4008,-1.3802,-1.3704,-1.3749,0.0,0.0,0.0,0.0,0.0,0.0,0.0,-1.1132,-1.1077,-1.1426,-1.0474,-0.9719,-0.961,-0.9171,-0.8955,-0.908,-1.0425,-1.1804,-1.3005,-1.3088,-1.2879,-1.2406,-1.0546,-0.9271,-0.8849,-0.7598,-0.7026,-0.7216,-0.7216,-0.7522,-0.8217,-0.8647,-0.9427,-1.0485,-1.1064,-1.1197,-1.1156,-1.1502,-1.1819,-1.2005,-1.249,-1.2943,-1.3542,-1.4154,-1.4286,-1.4067,-1.3929,-1.3747,-1.3364,-1.1888,-1.1897,-1.2266,-1.1203,-1.0808,-1.0478,0.0,0.0,0.0,0.0,0.0,0.0,0.0,0.0,0.0,0.0,0.0,0.0,0.0,0.0,-1.1357,-1.2216,0.0,-1.4034,-1.5551,-1.6491,-1.7422,-1.8496,-1.8828,-1.8887,-1.8672,-1.8652,-1.873,-1.8945,-1.915,-1.9365,-1.958,-2.041,-2.0898,-2.0898,-2.1318,-2.1034,-1.9823,-2.0135,-1.8941,-1.6189,-1.653,-1.5955,-1.4522,-1.4522,-1.4522,-1.4522,-1.4522,-1.4442,-1.4295,-1.4148,-1.4001,-1.3874,-1.4021,-1.4088,-1.4088,-1.4088,-1.4088,-1.4088,-1.4088,-1.4088,-1.4088,0.0,0.0,0.0,0.0,0.0,0.0,0.0,0.0,-1.0762,-1.0542,-1.0013,-0.9701,-0.9662,-0.9418,-0.9402,-0.974,-1.1116,-1.2131,-1.266,-1.3112,-1.3108,-1.2494,-1.117,-1.0204,-0.9787,-0.8899,-0.862,-0.8959,-0.8959,-0.9464,-1.0495,-0.9898,-1.0525,-1.2179,-1.18,-1.1378,-1.0965,-1.1605,-1.1659,-1.1343,-1.2131,-1.2804,-1.3462,-1.4214,-1.4089,-1.3531,-1.3725,-1.3527,-1.2915,-1.1919,-1.2205,-1.2887,-1.2266,-1.2181,-1.2226,-1.1428,-1.077,0.0,0.0,0.0,0.0,0.0,0.0,0.0,0.0,-1.0363,-1.0955,-1.2297,-1.2707,-1.326,-1.4836,-1.5214,-1.5882,-1.7804,-1.8203,-1.8555,-1.9414,-1.9824,-1.998,-1.9814,-1.9717,-1.9795,-2.0137,-2.0254,-2.0449,-2.0791,-2.123,-2.1484,-2.1484,-2.1816,-2.1566,-2.0501,-2.0418,-1.9264,-1.6938,-1.6665,-1.5995,-1.4963,-1.4776,-1.4783,-1.4957,-1.5028,-1.4791,-1.4502,-1.4148,-1.4035,-1.4082,-1.4021,-1.4035,-1.4088,-1.4088,-1.4088,-1.4088,-1.4088,-1.4088,-1.4088,0.0,0.0,0.0,0.0,0.0,0.0,0.0,0.0,0.0,-1.085,-0.9971,-0.9605,-1.0249,-0.9318,-0.9253,-1.0713,-1.1316,-1.2171,-1.3421,-1.2449,-1.2107,-1.266,-1.1018,-1.0093,-1.0059,-0.9211,-0.9,-0.9435,-0.9435,-0.974,-1.0248,-1.105,-1.155,-1.1817,-1.258,-1.2409,-1.15,-1.2787,-1.2594,-1.1541,-1.293,-1.32,-1.2955,-1.3448,-1.37,-1.3712,-1.277,-1.2838,-1.3115,-1.1326,-1.1725,-1.3009,-1.2879,-1.2879,-1.2805,-1.2378,-1.1586,-1.065,-0.9579,-0.9214,-0.9303,-0.9852,-0.9748,-1.0177,0.0,-1.3567,-1.3969,-1.5345,-1.6253,-1.684,-1.7077,-1.7406,-1.7823,-1.8407,-1.8896,-1.9443,-2.0303,-2.0459,-2.0762,-2.1504,-2.125,-2.1035,-2.1084,-2.1435,-2.1689,-2.1738,-2.2129,-2.2363,-2.2363,-2.2412,-2.2357,-2.2252,-2.1894,-2.0578,-1.8243,-1.8202,-1.709,-1.497,-1.519,-1.5177,-1.506,-1.6325,-1.6042,-1.4489,-1.3935,-1.3841,-1.4068,-1.3801,-1.3848,-1.4088,-1.4088,-1.4088,-1.4088,-1.4088,-1.4088,-1.4088,0.0,0.0,0.0,0.0,0.0,0.0,0.0,0.0,0.0,0.0,-0.9559,-0.9414,-0.9672,-0.9458,-0.9635,-1.0462,-1.119,-1.1921,-1.2655,-1.2263,-1.2143,-1.2699,-1.1553,-1.0943,-1.1109,-1.0821,-1.0864,-1.1405,-1.1405,-1.1605,-1.1908,-1.1742,-1.1988,-1.2571,-1.2732,-1.2447,-1.1904,-1.2747,-1.2771,-1.22,-1.2643,-1.3048,-1.3233,-1.3326,-1.3188,-1.2888,-1.2512,-1.2201,0.0,-1.0443,-1.1031,-1.2197,-1.168,-1.2051,-1.2708,-1.251,-1.202,-1.1512,-1.1696,-1.199,-1.2068,-1.1585,-1.224,-1.3578,-1.5499,-1.5534,-1.5653,-1.7254,-1.7821,-1.8193,-1.8447,-1.8633,-1.8887,-1.9307,-1.9746,-2.0244,-2.0869,-2.1172,-2.1377,-2.1494,-2.1787,-2.1982,-2.1982,-2.2139,-2.2246,-2.2246,-2.2637,-2.2773,-2.2519,-2.251,-2.251,-2.251,-2.1627,-2.0738,-1.9774,-1.8361,-1.7683,-1.7613,-1.6141,-1.6043,-1.7145,-1.6303,-1.5341,-1.4255,-1.4008,-1.3975,-1.4075,-1.3955,-1.3975,-1.4088,-1.4088,-1.4088,-1.4088,-1.4088,-1.4088,-1.4088,0.0,0.0,0.0,0.0,0.0,0.0,0.0,0.0,0.0,0.0,0.0,-0.9082,-0.9079,-0.9618,-1.0063,-1.0319,-1.1036,-1.1593,-1.1906,-1.195,-1.2131,-1.2492,-1.1971,-1.181,-1.2177,-1.2184,-1.2398,-1.2993,-1.3073,-1.3273,-1.3574,-1.2896,-1.3016,-1.3707,-1.3351,-1.2979,-1.248,-1.3118,-1.3173,-1.273,-1.2911,-1.3193,-1.3519,-1.3227,-1.2782,-1.2374,-1.2296,-1.1767,-1.0942,-1.0129,-1.0591,-1.1399,-1.094,-1.1425,-1.2235,-1.232,-1.202,-1.2047,-1.332,-1.4013,-1.4261,-1.3927,-1.5056,-1.6588,-1.8064,-1.767,-1.7478,-1.9129,-1.9434,-1.9492,-1.9922,-1.9902,-1.9961,-2.0391,-2.0625,-2.0947,-2.1504,-2.1758,-2.1816,-2.1611,-2.2031,-2.2383,-2.25,-2.2617,-2.2685,-2.2685,-2.2969,-2.3008,-2.2705,-2.2685,-2.2685,-2.2685,-2.1785,-2.1236,-2.0878,-1.9173,-1.8675,-1.9488,-1.7522,-1.7402,-1.8905,-1.6623,-1.5362,-1.494,-1.444,-1.4208,-1.4202,-1.4122,-1.4088,-1.4088,-1.4088,-1.4088,-1.4088,-1.4088,-1.4088,-1.4088,0.0,0.0,0.0,0.0,0.0,0.0,0.0,0.0,0.0,0.0,0.0,0.0,0.0,-0.9708,-1.0406,-1.075,-1.0929,-1.1149,-1.1514,-1.1466,-1.1572,-1.1901,-1.2124,-1.2412,-1.2788,-1.2795,-1.3013,-1.3614,-1.3908,-1.4195,-1.4489,-1.4776,-1.491,-1.491,-1.493,-1.4289,-1.3272,-1.4392,-1.4302,-1.326,-1.4083,-1.407,-1.3581,-1.2986,-1.2688,-1.2537,-1.1937,-1.1498,-1.1138,-1.0839,-1.0681,-1.0744,-1.1274,-1.1516,-1.1571,-1.1764,-1.1725,-1.2007,-1.3762,-1.4303,-1.4874,-1.718,-1.762,-1.8095,-2.0651,-2.0377,-1.9897,-2.1443,-2.1455,-2.1289,-2.1728,-2.1465,-2.1318,-2.1758,-2.1484,-2.1504,-2.2353,-2.2139,-2.2031,-2.2432,-2.2139,-2.206,-2.2471,-2.2881,-2.3125,-2.3125,-2.3135,-2.3135,-2.3125,-2.3125,-2.3125,-2.3125,-2.3028,-2.2473,-2.1275,-2.1185,-2.0648,-1.9497,-1.9389,-1.9389,-1.9464,-1.7833,-1.7131,-1.6989,-1.5265,-1.4502,-1.4482,-1.4202,-1.4088,-1.4088,-1.4088,-1.4088,-1.4088,-1.4088,-1.4088,-1.4088,0.0,0.0,0.0,0.0,0.0,0.0,0.0,0.0,0.0,0.0,0.0,0.0,0.0,0.0,0.0,0.0,-1.034,-1.0568,-1.105,-1.124,-1.1436,-1.1854,-1.2384,-1.2721,-1.2822,-1.2946,-1.3247,-1.3559,-1.3941,-1.4235,-1.4529,-1.4823,-1.4963,-1.497,-1.5164,-1.5061,-1.4688,-1.5061,-1.5061,-1.463,-1.4328,-1.4229,-1.4095,-1.3285,-1.2987,-1.2856,0.0,-1.2058,-1.1588,-1.0749,-1.0591,-1.0674,-1.0218,-1.0281,-1.0534,-1.085,-1.1804,-1.2961,-1.3719,-1.5072,-1.6629,-1.841,-1.9437,-2.0382,-2.215,-2.1824,-2.1192,-2.1393,-2.0385,-1.9444,-1.9649,-1.9258,-1.921,-1.9963,-2.0951,-2.1768,-2.206,-2.2451,-2.2568,-2.2148,-2.2461,-2.2656,-2.2519,-2.2637,-2.2832,-2.3115,-2.3135,-2.3135,-2.3135,-2.3135,-2.3135,-2.3135,-2.3135,-2.2872,-2.2492,-2.0944,-2.0674,-2.1863,-2.1595,-2.0298,-1.7939,-1.796,-1.7201,-1.5708,-1.5068,-1.4703,-1.4509,-1.4416,-1.4262,-1.4088,-1.4088,-1.4088,-1.4088,-1.4088,-1.4088,-1.4088,0.0,0.0,0.0,0.0,0.0,0.0,0.0,0.0,0.0,0.0,0.0,0.0,0.0,0.0,0.0,0.0,0.0,-1.0362,-1.0781,-1.0926,-1.1213,-1.1574,-1.2115,-1.251,-1.2797,-1.3003,-1.3258,-1.3475,-1.3811,-1.4088,-1.43,-1.4616,-1.4917,-1.5124,-1.5311,-1.5451,-1.5545,-1.5438,-1.5337,-1.5261,-1.4309,-1.4153,-1.4338,-1.3355,-1.3107,0.0,-1.294,-1.2554,-1.2114,-1.1192,-1.0717,-1.0421,-0.9518,-0.9262,-0.9496,-1.0529,-1.166,-1.2873,-1.424,-1.5527,-1.692,-1.8789,-1.9724,-2.0632,-2.2416,-2.1973,-2.132,-2.1627,-2.0191,-1.8889,-1.909,-1.8592,-1.836,-1.8937,-1.9866,-2.0761,-2.1447,-2.1726,-2.1842,-2.2119,-2.2451,-2.2646,-2.2519,-2.251,-2.2685,-2.3105,-2.3135,-2.3135,-2.3135,-2.3135,-2.3135,-2.3135,-2.3135,-2.3135,-2.3135,-2.1123,-2.0944,-2.2492,-2.2592,-2.1291,-1.8669,-1.8725,-1.7749,-1.5896,-1.5339,-1.495,-1.4669,-1.4563,-1.4349,-1.4088,-1.4088,-1.4088,-1.4088,-1.4088,-1.4088,-1.4088,0.0,0.0,0.0,0.0,0.0,0.0,0.0,0.0,0.0,0.0,0.0,0.0,0.0,0.0,0.0,0.0,0.0,0.0,-1.067,-1.0692,-1.0821,-1.0996,-1.1482,-1.2083,-1.2909,-1.2938,-1.3027,-1.3324,-1.3586,-1.3725,-1.3858,-1.4273,-1.475,-1.5284,-1.5284,-1.5438,-1.5671,-1.5398,-1.5214,-1.4987,-1.4058,-1.3988,-1.42,-1.3089,-1.3228,-1.3929,-1.3215,-1.2835,-1.2701,-1.2047,-1.1136,-1.0149,-0.9309,-0.8674,-0.8585,-1.0821,-1.1447,-1.2006,-1.5055,-1.5654,-1.5921,-1.8145,-1.8608,-1.9076,-2.1504,-2.1015,-2.0501,-2.2071,-2.0835,-1.9564,-1.9907,-1.9269,-1.8657,-1.8546,-1.8421,-1.8905,-2.0726,-2.0214,-2.032,-2.2279,-2.2178,-2.2109,-2.251,-2.2549,-2.2715,-2.3105,-2.3135,-2.3135,-2.3135,-2.3135,-2.3135,-2.3135,-2.3135,-2.3135,-2.3135,-2.1933,-2.1293,-2.1203,-2.2403,-2.2403,-2.1293,-2.0034,-1.8864,-1.7576,-1.6088,-1.5244,-1.4943,-1.4663,-1.4362,-1.4088,-1.4088,-1.4088,-1.4088,-1.4088,-1.4088,-1.4088,0.0,0.0,0.0,0.0,0.0,0.0,0.0,0.0,0.0,0.0,0.0,0.0,0.0,0.0,0.0,0.0,0.0,0.0,-1.0173,-1.0509,-1.0894,-1.13,-1.1912,-1.2456,-1.2917,-1.3085,-1.3172,-1.3178,-1.3429,-1.3523,-1.3473,-1.3607,-1.3777,-1.3926,-1.385,-1.3718,-1.3598,-1.3609,-1.3536,-1.3418,-1.2759,-1.3029,-1.3672,-1.3082,-1.3172,-1.3628,-1.4065,-1.3502,-1.2508,-1.1977,-1.0951,-0.9867,-0.9979,-1.0156,-1.0564,-1.1981,-1.2879,-1.3575,-1.4358,-1.5213,-1.5844,-1.5465,-1.6862,-1.851,-1.9162,-1.9868,-2.0686,-2.115,-1.9717,-1.8433,-1.8366,-1.8052,-1.7761,-1.7938,-1.9604,-2.0885,-2.0824,-2.1541,-2.2225,-2.251,-2.2695,-2.2861,-2.2969,-2.2978,-2.3027,-2.3135,-2.3135,-2.3135,-2.3135,-2.3135,-2.3135,-2.3135,-2.3135,-2.3135,-2.3135,-2.1933,-2.0845,-1.9943,-2.1212,-2.1569,-2.1293,-2.0034,-1.8864,-1.7591,-1.631,-1.5431,-1.4957,-1.4883,-1.4549,-1.4088,-1.4088,-1.4088,-1.4088,-1.4088,-1.4088,-1.4088,0.0,0.0,0.0,0.0,0.0,0.0,0.0,0.0,0.0,0.0,0.0,0.0,0.0,0.0,0.0,0.0,0.0,0.0,0.0,-1.0423,-1.0812,-1.1143,-1.1772,-1.2303,-1.2757,-1.2946,-1.2901,-1.2676,-1.2877,-1.2835,-1.2721,-1.2722,-1.2752,-1.2843,-1.2694,-1.2602,-1.2539,-1.2419,-1.2369,0.0,0.0,-1.2276,-1.325,-1.2846,-1.3176,-1.3974,-1.421,-1.3502,-1.2325,-1.1209,-1.0178,-0.9389,-0.9404,-0.9715,-1.0354,-1.1784,-1.2928,-1.3907,-1.4469,-1.5108,-1.5448,-1.4746,-1.5805,-1.7082,-1.7494,-1.8623,-1.9605,-1.9856,-1.8898,-1.8104,-1.8047,-1.7596,-1.708,-1.6867,-1.846,-1.9779,-2.0004,-2.1022,-2.1968,-2.2658,-2.2998,-2.3135,-2.3135,-2.3135,-2.3135,-2.3135,-2.3135,-2.3135,-2.3135,-2.3135,-2.3135,-2.3135,-2.3135,-2.2589,-2.1498,-2.1943,-2.1212,-1.9497,-2.1212,-2.212,-2.2031,-2.0305,-1.9131,-1.8403,0.0,-1.5384,-1.495,-1.4823,-1.4496,-1.4088,-1.4088,-1.4088,-1.4088,-1.4088,-1.4088,-1.4088,0.0,0.0,0.0,0.0,0.0,0.0,0.0,0.0,0.0,0.0,0.0,0.0,0.0,0.0,0.0,0.0,0.0,0.0,0.0,0.0,-1.0692,-1.0857,-1.148,-1.2075,-1.2613,-1.2621,-1.2469,-1.2201,-1.2132,-1.2034,-1.1739,-1.1731,-1.1749,-1.1853,-1.1702,-1.1764,-1.1821,-1.1511,-1.1422,-1.1478,-1.0873,-1.153,-1.278,0.0,-1.3091,-1.4275,-1.3869,-1.322,-1.2292,-1.0262,-0.9413,-0.9029,-0.8312,-0.8453,-0.9285,-1.0935,-1.2296,-1.3629,-1.4858,-1.5146,-1.5077,-1.5226,-1.516,-1.5443,-1.6331,-1.7099,-1.7952,-1.8561,-1.8548,-1.8476,-1.86,-1.7891,-1.7053,-1.6433,-1.6945,-1.7857,-1.9085,-1.9817,-2.0755,-2.2456,-2.2765,-2.2862,-2.2862,-2.3047,-2.3135,-2.3135,-2.3135,-2.3135,-2.3135,-2.3135,-2.3135,-2.3135,-2.3135,-2.2041,-1.9761,-2.1854,-2.1765,-1.9761,-2.1854,-2.296,-2.3047,-2.0532,-1.9513,-1.9488,-1.6677,-1.5322,-1.5205,-1.4811,-1.4462,-1.4202,-1.4202,-1.4175,-1.4142,-1.4142,-1.4142,-1.4135,0.0,0.0,0.0,0.0,0.0,0.0,0.0,0.0,0.0,0.0,-1.0785,-1.1099,0.0,0.0,0.0,0.0,0.0,0.0,0.0,0.0,0.0,-1.1197,-1.1713,-1.2186,-1.2613,-1.2621,-1.2466,-1.2097,-1.1956,-1.1578,-1.0946,-1.0735,-1.0444,-1.0192,-0.9994,-0.9959,-0.9934,-0.9759,-0.985,-1.0143,-0.9819,-1.0348,-1.1425,-1.2136,0.0,0.0,-1.3116,-1.3048,-1.2616,-1.0449,-0.9592,-0.9304,-0.8783,-0.8848,-0.9527,-1.0869,-1.2301,-1.346,-1.4004,-1.4771,-1.5331,-1.518,-1.5211,-1.5239,-1.5522,-1.5644,-1.6325,-1.8154,-1.9305,-2.0069,-2.0186,-1.9776,-1.9282,-1.9105,-1.9734,-1.9998,-1.9507,-2.0412,-2.0802,-2.0198,-2.1025,-2.1569,-2.1569,-2.2492,-2.3135,-2.3135,-2.3135,-2.3135,-2.3135,-2.3135,-2.3135,-2.3135,-2.3135,-2.2403,-2.1025,-2.1391,-2.1391,-2.1025,-2.1391,-2.212,-2.3038,-2.035,-1.9672,-2.0281,-1.6843,0.0,-1.6264,-1.5513,-1.5077,-1.481,-1.481,-1.4663,-1.4442,-1.4442,-1.4442,-1.4409,0.0,0.0,0.0,0.0,0.0,0.0,0.0,-1.0272,-1.0615,-1.136,-1.1634,-1.1678,-1.1326,-1.1167,-1.0863,0.0,0.0,0.0,0.0,0.0,0.0,0.0,0.0,0.0,-1.2805,-1.292,-1.2639,-1.2033,0.0,-1.1527,-1.0746,-1.0314,-0.9818,-0.9319,-0.9137,-0.9011,-0.8823,-0.9023,-0.921,-0.9408,-0.9402,-0.997,-1.094,0.0,0.0,0.0,-1.2822,-1.2718,-1.2231,-1.0761,-0.9875,-0.9206,-0.8348,-0.9058,-1.0473,-1.1326,-1.2932,-1.4502,-1.4779,-1.524,-1.5618,-1.5518,-1.5299,-1.5149,-1.5211,-1.5323,-1.5966,-1.7613,-1.9043,-2.0065,-2.0312,-1.9704,-1.9126,-1.9127,-1.9049,-1.8994,-1.8811,-1.9457,-1.9778,-1.9538,-2.0576,-2.1293,-2.1293,-2.2394,-2.3135,-2.3135,-2.3135,-2.3135,-2.3135,-2.3135,-2.3135,-2.3135,-2.3135,-2.2227,-2.0395,-2.1578,-2.1578,-2.0395,-2.1667,-2.258,-2.3038,-2.0491,-1.9592,-1.9941,-1.6718,-1.5581,-1.5754,-1.5375,-1.4997,-1.475,-1.4903,-1.4877,-1.475,-1.475,-1.4656,-1.4496,0.0,0.0,0.0,0.0,0.0,0.0,0.0,-1.0837,-1.1204,-1.2041,-1.2218,-1.2126,-1.1678,-1.1628,-1.1427,0.0,0.0,0.0,0.0,0.0,0.0,0.0,0.0,0.0,0.0,0.0,0.0,-1.2309,-1.2226,0.0,0.0,0.0,0.0,0.0,-0.8717,-0.851,-0.8276,-0.8708,-0.8937,0.0,0.0,-0.9786,0.0,0.0,0.0,0.0,0.0,-1.2444,-1.1768,-1.0981,-1.0093,-0.9148,-0.8315,-0.9396,-1.0958,-1.1446,-1.3228,-1.5094,-1.5341,-1.5629,-1.5812,-1.5752,-1.5411,-1.5037,-1.5147,-1.5633,-1.638,-1.7399,-1.8765,-1.9952,-2.026,-1.952,-1.8894,-1.9004,-1.8308,-1.784,-1.8226,-1.8378,-1.8513,-1.8676,-2.0025,-2.0935,-2.0935,-2.2217,-2.3135,-2.3135,-2.3135,-2.3135,-2.3135,-2.3135,-2.3135,-2.3135,-2.3135,-2.2227,-2.0314,-2.2138,-2.2138,-2.0314,-2.1943,-2.2687,-2.2599,-2.0138,-1.91,-1.9175,-1.6578,-1.5447,-1.541,-1.5214,-1.501,-1.4823,-1.5057,-1.511,-1.505,-1.4983,-1.4816,-1.4596,0.0,0.0,0.0,0.0,0.0,0.0,0.0,-1.0109,-1.0612,-1.1019,-1.1789,-1.2224,-1.2076,-1.2026,-1.1877,0.0,0.0,0.0,0.0,0.0,0.0,0.0,0.0,0.0,0.0,0.0,0.0,-1.3339,-1.2749,0.0,0.0,0.0,0.0,0.0,0.0,-0.8368,-0.8337,-0.8516,0.0,0.0,0.0,0.0,0.0,0.0,0.0,0.0,0.0,-1.2332,-1.1326,-1.1057,-1.0159,-0.9304,-0.9962,-0.9947,-0.9862,-1.0901,-1.2392,-1.3799,-1.4028,-1.4949,-1.5765,-1.5504,-1.5322,-1.5123,-1.5056,-1.6342,-1.773,-1.8161,-1.9428,-2.0582,-2.0974,-2.0547,-2.0257,-2.0604,-1.9782,-1.8979,-1.8496,-1.8034,-1.7389,-1.631,-1.8211,-1.9679,-1.9679,-2.1774,-2.3135,-2.3135,-2.3135,-2.3135,-2.3135,-2.3135,-2.3135,-2.3135,-2.3135,-2.296,-2.2775,-2.296,-2.296,-2.2775,-2.1845,-2.1489,-2.1409,-1.8693,-1.792,-1.8726,-1.6387,-1.5908,0.0,-1.5999,-1.5732,-1.5712,-1.5738,-1.5585,-1.5324,-1.5064,-1.4943,-1.485,0.0,0.0,0.0,0.0,0.0,0.0,-0.9572,-0.9926,-1.0454,-1.1267,-1.1789,-1.2234,-1.2647,-1.2676,-1.2471,-1.2026,0.0,0.0,0.0,0.0,0.0,0.0,0.0,0.0,0.0,0.0,-1.3761,-1.3216,-1.3017,0.0,0.0,0.0,0.0,0.0,0.0,-0.8563,-0.8074,-0.8595,0.0,0.0,0.0,0.0,0.0,0.0,0.0,0.0,0.0,0.0,-1.1164,-1.1204,-1.0511,-0.9882,-1.1155,-1.1539,-1.1688,-1.2534,-1.3003,-1.3523,-1.4703,-1.4854,-1.4823,-1.549,-1.4953,-1.4672,-1.5986,-1.6725,-1.7546,-1.9063,-1.9984,-2.0654,-2.1208,-2.0714,-2.0033,-1.9393,-1.8408,-1.7499,-1.7038,-1.6154,-1.5661,-1.6118,-1.8009,-1.943,-1.9861,-2.2043,-2.3633,-2.3887,-2.3672,-2.3525,-2.3525,-2.3281,-2.3135,-2.3135,-2.3135,-2.2775,-2.2031,-2.2765,-2.2765,-2.2031,-2.1569,-2.1293,-2.1212,-1.8621,-1.7751,-1.8026,-1.6385,-1.5831,0.0,-1.5893,-1.5725,-1.5571,-1.5571,-1.5498,-1.5357,-1.507,-1.485,-1.4663,0.0,0.0,0.0,0.0,0.0,-0.9103,-0.9401,-0.9753,-1.0356,-1.1267,-1.1752,-1.2235,-1.2842,-1.3007,-1.2949,-1.2608,-1.252,0.0,0.0,0.0,0.0,0.0,0.0,0.0,0.0,0.0,-1.4001,-1.3459,-1.3459,-1.3147,0.0,0.0,-1.0651,-0.9782,0.0,0.0,0.0,0.0,0.0,0.0,0.0,0.0,0.0,0.0,0.0,0.0,0.0,0.0,0.0,0.0,0.0,-1.0861,-1.233,-1.2991,-1.3386,-1.3971,-1.4054,-1.415,-1.546,-1.5106,-1.4752,-1.6001,-1.5356,-1.5077,-1.7326,-1.7574,-1.79,-1.9991,-2.0641,-2.1019,-2.1565,-2.1094,-2.0143,-1.8655,-1.7512,-1.6689,-1.6158,-1.501,-1.4787,-1.6318,-1.7749,-1.8953,-1.9929,-2.2325,-2.3965,-2.4385,-2.4033,-2.3848,-2.3965,-2.3564,-2.3271,-2.3144,-2.3135,-2.2677,-2.1845,-2.2677,-2.2677,-2.1845,-2.1471,-2.1293,-2.1203,-1.8772,-1.7692,-1.7598,-1.6386,-1.5712,0.0,-1.5745,-1.5712,-1.5524,-1.5524,-1.5524,-1.5478,-1.5104,-1.483,-1.4629,0.0,0.0,0.0,0.0,0.0,0.0,-0.885,-0.9534,-1.0157,-1.0634,-1.1664,-1.2372,-1.248,-1.2939,-1.3218,-1.317,-1.3007,0.0,0.0,0.0,0.0,0.0,0.0,0.0,0.0,0.0,-1.4469,-1.4469,-1.4001,-1.364,-1.326,-1.2314,-1.1378,-1.0351,0.0,0.0,0.0,0.0,0.0,0.0,0.0,0.0,0.0,0.0,0.0,0.0,0.0,0.0,0.0,0.0,0.0,0.0,0.0,-1.4172,-1.4463,-1.4787,-1.5311,-1.5777,-1.5746,-1.5837,-1.6109,-1.7318,-1.6937,-1.676,-1.8886,-1.9184,-1.9441,-2.0777,-2.1539,-2.1929,-2.2136,-2.1722,-2.088,-1.9236,-1.8107,-1.7171,-1.6508,-1.5286,-1.5112,-1.6665,-1.7041,-1.7874,-1.9825,-2.2288,-2.3965,-2.4385,-2.4033,-2.3975,-2.4385,-2.4014,-2.3584,-2.3154,-2.3135,-2.3047,-2.3047,-2.3047,-2.3047,-2.3047,-2.1845,-2.1293,-2.1203,-1.8772,-1.7692,-1.7598,-1.6386,-1.5832,0.0,-1.5832,-1.5832,-1.5825,-1.5825,-1.5825,-1.5752,-1.5177,-1.4963,-1.4877,0.0,0.0,0.0,0.0,0.0,0.0,0.0,-0.9169,-0.9714,-1.06,-1.1085,-1.1659,-1.2403,-1.2715,-1.2949,-1.317,-1.3045,0.0,0.0,0.0,0.0,0.0,0.0,0.0,0.0,0.0,-1.4008,-1.3883,-1.4123,-1.4139,-1.3761,-1.3151,-1.2357,-1.1429,-1.0981,-1.0408,0.0,0.0,0.0,0.0,0.0,0.0,-1.1059,0.0,0.0,0.0,0.0,0.0,0.0,0.0,0.0,0.0,0.0,0.0,0.0,-1.5446,-1.509,-1.4609,-1.5529,-1.5205,-1.4991,-1.6574,-1.6223,-1.6077,-1.7983,-1.8375,-1.8815,-2.0823,-2.1311,-2.145,-2.1851,-2.1087,-2.0023,-1.8852,-1.8218,-1.7418,-1.6213,-1.5681,-1.5676,-1.6511,-1.8551,-2.0487,-2.1946,-2.39,-2.5176,-2.5303,-2.4639,-2.4277,-2.4414,-2.373,-2.3281,-2.3144,-2.3428,-2.3437,-2.3135,-2.3135,-2.3135,-2.3057,-2.1845,-2.1293,-2.1203,-1.8772,-1.7692,-1.7598,-1.6386,-1.5832,-1.5832,-1.5832,-1.5832,-1.5812,-1.5611,-1.5531,-1.5484,-1.5104,-1.4963,-1.491,0.0,0.0,0.0,0.0,0.0,0.0,0.0,-0.9387,-0.976,-1.053,-1.0862,-1.1394,-1.2246,-1.2578,-1.2813,-1.3142,-1.3094,0.0,0.0,0.0,0.0,0.0,0.0,0.0,0.0,-1.304,-1.3476,-1.3523,-1.4066,-1.4268,-1.4092,-1.393,-1.3305,-1.2297,-1.1945,-1.1399,0.0,0.0,0.0,0.0,0.0,0.0,-1.1507,0.0,0.0,0.0,0.0,0.0,0.0,0.0,0.0,0.0,0.0,0.0,0.0,0.0,-1.5521,-1.5004,-1.5811,-1.5413,-1.5155,-1.6985,-1.6754,-1.6746,-1.8657,-1.9014,-1.9342,-2.0578,-2.0605,-2.07,-2.1403,-2.0216,-1.8904,-1.8535,-1.7834,-1.7005,-1.5984,-1.5869,-1.598,-1.631,-1.9233,-2.1386,-2.197,-2.4143,-2.5488,-2.5488,-2.4971,-2.459,-2.4424,-2.3916,-2.3467,-2.3154,-2.3408,-2.3408,-2.3135,-2.3135,-2.3135,-2.3047,-2.2306,-2.1943,-2.1933,-1.996,-1.9047,-1.8948,-1.7217,-1.648,0.0,-1.6015,-1.5832,-1.5812,-1.5631,-1.5558,-1.5524,-1.5237,-1.5124,-1.5084,0.0,0.0,0.0,0.0,0.0,0.0,0.0,-1.0009,-1.0221,-1.0527,-1.0995,-1.1528,-1.2026,-1.2421,-1.2725,-1.3027,0.0,0.0,0.0,0.0,0.0,0.0,0.0,0.0,-1.2009,-1.2518,-1.2986,-1.334,-1.3839,-1.4157,-1.4251,-1.4503,-1.4078,-1.3053,-1.3027,-1.2552,0.0,0.0,0.0,0.0,0.0,0.0,0.0,0.0,0.0,0.0,0.0,0.0,0.0,0.0,0.0,0.0,0.0,0.0,0.0,0.0,0.0,0.0,0.0,-1.615,-1.6296,-1.8135,-1.8132,-1.8257,-2.0308,-2.069,0.0,-2.0128,-1.9715,-1.9748,-2.0822,-1.9082,-1.7741,-1.8405,-1.7306,-1.6229,-1.5881,-1.6035,-1.6154,-1.6236,-1.9169,-2.0984,-2.0662,-2.3354,-2.5117,-2.5117,-2.5059,-2.4844,-2.4443,-2.4355,-2.3965,-2.3164,-2.3135,-2.3135,-2.3135,-2.3135,-2.3135,-2.3135,-2.3135,-2.3135,-2.3047,-2.1872,-2.132,0.0,-1.8772,-1.7785,-1.7684,-1.6386,-1.5825,-1.592,-1.5832,-1.5832,-1.5798,-1.5524,-1.5517,-1.5476,0.0,0.0,0.0,0.0,0.0,0.0,0.0,0.0,0.0,0.0,-1.1166,-1.1427,-1.1778,-1.1977,-1.2224,0.0,0.0,0.0,0.0,0.0,0.0,0.0,0.0,0.0,-1.2063,-1.2538,-1.2851,-1.3019,-1.3691,-1.3942,-1.3753,-1.3902,-1.3895,-1.3618,-1.3097,-1.2733,0.0,0.0,0.0,0.0,0.0,0.0,0.0,0.0,0.0,0.0,-1.2928,-1.3155,0.0,0.0,0.0,0.0,0.0,0.0,0.0,0.0,-1.6859,-1.7065,-1.7049,0.0,-1.6366,-1.7099,-1.7647,-1.8281,0.0,-2.0368,-2.0633,-2.0307,-1.986,-1.9781,-2.0482,-1.9044,-1.8043,-1.9014,-1.8046,-1.6941,-1.6435,-1.6291,-1.649,-1.7177,-1.9842,-2.1646,-2.1751,-2.4078,-2.5586,-2.5586,-2.4951,-2.4521,-2.4424,-2.3799,-2.335,-2.3144,-2.3135,-2.3135,-2.3135,-2.3135,-2.3135,-2.3135,-2.3135,-2.3135,-2.3047,-2.1854,-2.1293,-2.1203,-1.8772,-1.8234,-1.8956,-1.6749,-1.6386,-1.7131,-1.6204,-1.5832,-1.5818,-1.5752,-1.6282,-1.6979,0.0,0.0,0.0,0.0,0.0,0.0,0.0,0.0,0.0,0.0,0.0,-1.1226,-1.1569,-1.1669,0.0,0.0,0.0,0.0,0.0,0.0,0.0,0.0,0.0,-1.2372,-1.2283,-1.261,-1.2824,-1.2912,-1.3595,-1.3903,-1.3753,-1.4106,-1.4247,-1.4195,-1.3827,-1.3651,0.0,0.0,0.0,0.0,-1.3981,0.0,0.0,0.0,0.0,0.0,-1.3346,-1.3459,0.0,-1.3761,-1.4203,-1.4678,0.0,0.0,0.0,0.0,-1.7166,-1.7533,-1.7658,-1.7088,-1.6542,-1.6968,-1.7501,-1.8259,-1.9158,-1.9903,-2.0253,-1.9786,-1.9225,-1.9018,-1.979,-1.8487,-1.7555,-1.8654,-1.7974,-1.7212,-1.68,-1.6351,-1.63,-1.7093,-1.914,-2.0635,-2.0876,-2.3242,-2.4815,-2.4815,-2.4698,-2.4629,-2.4424,-2.3789,-2.335,-2.3144,-2.3135,-2.3232,-2.3437,-2.3242,-2.3242,-2.3437,-2.3232,-2.3135,-2.3047,-2.2403,-2.212,-2.2031,-1.9588,-1.9222,-2.0124,-1.7669,-1.6944,-1.746,-1.7517,-1.675,-1.5738,-1.7066,-1.721,-1.6828,0.0,0.0,0.0,0.0,0.0,0.0,0.0,0.0,0.0,0.0,0.0,0.0,0.0,0.0,0.0,0.0,0.0,0.0,0.0,0.0,0.0,0.0,0.0,-1.2754,-1.2529,-1.2685,-1.2792,-1.2881,-1.3531,-1.3811,-1.3832,-1.4348,-1.4626,-1.4632,-1.4773,-1.4768,0.0,0.0,0.0,-1.4231,-1.4634,0.0,0.0,0.0,0.0,0.0,0.0,0.0,0.0,-1.4001,-1.4524,-1.4918,-1.4911,0.0,0.0,0.0,0.0,0.0,-1.8175,-1.7628,-1.7024,-1.7038,-1.7423,-1.7949,-1.8365,-1.9281,-1.9897,-1.9295,-1.867,-1.8449,-1.926,-1.7942,-1.7008,-1.8166,-1.7767,-1.7227,-1.7078,-1.638,-1.6157,-1.6812,-1.8251,-1.9269,-1.9638,-2.1896,-2.3484,-2.3692,-2.4352,-2.4617,-2.4434,-2.4014,-2.3584,-2.3154,-2.3262,-2.3516,-2.3887,-2.3389,-2.332,-2.3682,-2.332,-2.3135,-2.3135,-2.3135,-2.3135,-2.296,0.0,0.0,-2.1391,-1.8956,-1.7842,-1.7815,-1.9076,-1.8002,-1.6148,-1.837,-1.8118,-1.6922,0.0,0.0,0.0,0.0,0.0,0.0,0.0,0.0,0.0,0.0,0.0,0.0,0.0,0.0,0.0,0.0,0.0,0.0,0.0,0.0,0.0,-1.3122,-1.3025,-1.288,-1.2764,-1.2903,-1.2912,-1.2813,-1.3381,-1.3551,-1.3319,-1.3641,-1.3972,-1.4419,-1.5009,-1.5296,-1.5294,-1.5449,-1.5487,-1.5409,-1.5332,0.0,0.0,0.0,0.0,0.0,0.0,0.0,0.0,-1.4784,-1.5377,-1.6018,-1.5761,0.0,0.0,0.0,0.0,0.0,-1.8379,-1.8556,-1.8418,-1.6806,-1.6697,-1.6936,-1.6871,-1.8417,-1.9878,-1.9897,-1.9703,-1.9624,-1.9855,-1.8309,-1.7548,-1.9058,-1.8171,-1.7337,-1.7457,-1.6919,-1.6844,-1.7655,-1.8839,-1.9603,-2.0027,-2.1196,-2.2466,-2.3583,-2.3112,-2.3242,-2.4322,-2.4014,-2.3584,-2.3154,-2.3838,-2.4258,-2.4316,-2.3535,-2.3174,-2.3242,-2.3164,-2.3135,-2.3135,-2.3135,-2.3135,-2.3047,0.0,-2.1667,-2.2677,-2.0223,-1.9544,-2.0132,-1.9709,-1.9003,-1.8287,-1.8011,-1.9039,-2.0477,0.0,0.0,0.0,0.0,0.0,0.0,0.0,0.0,0.0,0.0,0.0,0.0,0.0,0.0,0.0,0.0,0.0,0.0,0.0,0.0,0.0,-1.317,-1.316,-1.3074,-1.3035,-1.3175,-1.3145,-1.2968,-1.3303,-1.337,-1.3228,-1.392,-1.4563,-1.5111,-1.577,-1.6033,-1.6046,-1.5921,-1.5931,-1.6019,0.0,0.0,0.0,0.0,0.0,0.0,0.0,0.0,0.0,0.0,-1.5615,-1.6038,-1.5838,0.0,0.0,0.0,0.0,0.0,-1.8942,-1.9147,-1.888,-1.7512,-1.7656,-1.8081,-1.7745,-1.8834,-1.9903,-1.963,-1.9515,-1.9561,-1.9968,-1.9297,-1.8965,-2.0019,-1.8532,-1.7346,-1.7609,-1.691,-1.6647,-1.7251,-1.7837,-1.8332,-1.868,-2.0017,-2.1052,-2.1473,-2.2166,-2.2831,-2.328,-2.3419,-2.335,-2.3144,-2.3525,-2.3838,-2.4072,-2.3457,-2.3369,-2.3828,-2.3359,-2.3135,-2.3135,-2.3135,-2.3135,-2.3047,0.0,-2.1943,-2.296,-2.1212,-2.0616,-2.0839,-2.1246,-2.0438,-1.8912,-1.8736,-2.0223,-2.2217,0.0,0.0,0.0,0.0,0.0,0.0,0.0,0.0,0.0,0.0,0.0,0.0,0.0,0.0,0.0,0.0,0.0,0.0,0.0,0.0,-1.3007,-1.317,-1.3218,-1.3218,-1.3218,-1.3314,-1.3334,-1.3113,-1.3334,-1.3471,-1.3486,-1.4287,-1.5026,-1.5745,-1.6311,-1.6588,-1.6637,-1.6343,-1.6228,-1.6239,0.0,0.0,0.0,0.0,0.0,0.0,0.0,0.0,0.0,0.0,0.0,0.0,0.0,0.0,0.0,-1.7117,-1.761,-1.8211,-1.9066,-1.9206,-1.8933,-1.8324,-1.8508,-1.8773,-1.8223,-1.8903,-1.9735,-1.9839,-1.9798,-1.9818,-2.0099,-2.0147,-2.0036,-2.0107,-1.8974,-1.7962,-1.7935,-1.7268,-1.6739,-1.6941,-1.7123,-1.7299,-1.7542,-1.8724,-1.9491,-1.965,-2.0948,-2.1847,-2.1951,-2.25,-2.2782,-2.2677,-2.3144,-2.3545,-2.3789,-2.3457,-2.3623,-2.4258,-2.3496,-2.3135,-2.3135,-2.3135,-2.3135,-2.3047,-2.212,-2.2217,-2.3047,-2.212,-2.1526,-2.1376,-2.2611,-2.1669,-1.9652,-2.0112,-2.1311,-2.2589,0.0,0.0,0.0,0.0,0.0,0.0,0.0,0.0,0.0,0.0,0.0,0.0,0.0,0.0,0.0,0.0,0.0,0.0,0.0,0.0,-1.3064,-1.3208,-1.3218,-1.3218,-1.3218,-1.3314,-1.3314,-1.317,-1.3467,-1.379,-1.4212,-1.4164,-1.4769,-1.5878,-1.617,-1.6492,-1.6751,-1.6637,-1.64,-1.6114,-1.5788,0.0,0.0,0.0,0.0,0.0,0.0,0.0,0.0,0.0,0.0,0.0,0.0,0.0,-1.6818,-1.6998,-1.756,-1.8173,-1.8101,-1.8416,-1.8777,-1.8784,-1.8304,-1.7612,-1.6753,-1.7577,-1.9113,-2.1267,-2.1466,-2.111,-2.0604,-2.0505,-2.0062,-1.8571,-1.9522,-1.9937,-1.8641,-1.8393,-1.8139,-1.7553,-1.7515,-1.7535,-1.7582,-1.7701,-1.8325,-1.9531,-1.9145,-1.9349,-2.0666,-2.1547,-2.1889,-2.14,-2.3334,-2.415,-2.3799,-2.376,-2.3769,-2.3828,-2.3359,-2.3135,-2.3135,-2.3135,-2.3135,-2.3135,-2.3047,-2.3047,-2.3047,-2.3047,-2.2708,-2.2464,-2.2892,-2.2296,-2.1257,-2.2394,-2.2217,-2.1569,0.0,0.0,0.0,0.0,0.0,0.0,0.0,0.0,0.0,0.0,0.0,0.0,0.0,0.0,0.0,0.0,0.0,0.0,0.0,-1.291,-1.3142,-1.3314,-1.3266,-1.3266,-1.3467,-1.342,-1.342,-1.3467,-1.3467,-1.3703,-1.4204,-1.4338,-1.4944,-1.5942,-1.6403,-1.6804,-1.7043,-1.6513,-1.64,-1.6467,-1.5768,-1.5546,0.0,0.0,0.0,0.0,0.0,0.0,0.0,0.0,-1.6306,-1.6477,-1.6477,-1.6591,-1.6694,-1.6864,-1.7151,-1.7573,-1.8178,-1.8552,-1.8804,-1.8945,-1.9079,-1.8953,-1.8497,-1.9278,-2.0193,-2.0725,-2.0937,-2.0818,-2.0311,-2.1253,-2.1769,-2.063,-2.1167,-2.1238,-1.9846,-1.9392,-1.8745,-1.7765,-1.7582,-1.7582,-1.7582,-1.7756,-1.7921,-1.8046,-1.8499,-1.917,-2.0161,-2.1094,-2.1832,-2.2403,-2.3171,-2.3682,-2.3789,-2.3525,-2.3525,-2.3779,-2.335,-2.3135,-2.3135,-2.3135,-2.3135,-2.3135,-2.3135,-2.3135,-2.3135,-2.3135,-2.3047,-2.292,-2.3076,-2.2862,-2.2492,-2.295,-2.2775,-2.2492,0.0,0.0,0.0,0.0,0.0,0.0,0.0,0.0,0.0,0.0,0.0,0.0,0.0,0.0,0.0,0.0,0.0,0.0,-1.251,-1.2861,-1.3152,-1.3372,-1.3314,-1.3372,-1.3515,-1.3362,-1.3362,-1.3621,-1.3467,-1.3726,-1.4318,-1.4572,-1.519,-1.6108,-1.6434,-1.6807,-1.7099,-1.641,-1.6285,-1.6524,-1.5884,-1.5594,0.0,0.0,0.0,0.0,0.0,0.0,0.0,0.0,-1.6316,-1.6384,-1.6384,-1.6488,-1.6581,-1.6761,-1.6807,-1.6984,-1.7707,-1.8027,-1.8238,-1.8501,-1.8983,-1.933,-1.9163,-2.0225,-2.1201,-2.0968,-2.0976,-2.0974,-2.0716,-2.1835,-2.2582,-2.2036,-2.2354,-2.2075,-2.0483,-2.0047,-1.9256,-1.7637,-1.7528,-1.7582,-1.7582,-1.7695,-1.7595,-1.7181,-1.8168,-1.8739,-1.8743,-2.0412,-2.148,-2.1952,-2.2687,-2.3281,-2.3584,-2.3291,-2.3291,-2.3584,-2.3281,-2.3135,-2.3135,-2.3135,-2.3135,-2.3135,-2.3135,-2.3135,-2.3135,-2.3135,-2.3135,-2.3135,-2.3135,-2.3135,-2.3135,-2.3135,-2.3135,-2.3135,0.0,0.0,0.0,0.0,0.0,0.0,0.0,0.0,0.0,0.0,0.0,0.0,0.0,0.0,0.0,0.0,0.0,0.0,-1.2967,-1.3016,-1.3112,-1.3409,-1.342,-1.342,-1.342,-1.316,-1.3218,-1.361,-1.3478,-1.3889,-1.4767,-1.4777,-1.5419,-1.657,-1.6228,-1.6343,-1.6761,-1.6285,-1.6114,-1.6114,-1.6114,-1.5816,-1.541,0.0,0.0,0.0,0.0,0.0,0.0,0.0,-1.6124,-1.6384,-1.6384,-1.6384,-1.6431,-1.6705,-1.6602,-1.6431,-1.6591,-1.6767,-1.7024,-1.7419,-1.7919,-1.8238,-1.8105,-2.0004,-2.1879,-2.2256,-2.2054,-2.1988,-2.2178,-2.1997,-2.1988,-2.2178,-2.2698,-2.2377,-2.0255,-2.0156,-1.9646,-1.7517,-1.7408,-1.7582,-1.7582,-1.7321,-1.7148,-1.725,-1.7767,-1.7601,-1.6363,-1.9486,-2.0755,-1.9588,-2.1863,-2.3135,-2.3135,-2.3135,-2.3135,-2.3135,-2.3135,-2.3135,-2.3135,-2.3135,-2.3135,-2.3135,-2.3135,-2.3135,-2.3135,-2.3135,-2.3135,-2.3135,-2.3135,-2.3135,-2.3135,-2.3135,-2.3135,-2.3135,0.0,0.0,0.0,0.0,0.0,0.0,0.0,0.0,0.0,0.0,0.0,0.0,0.0,0.0,0.0,0.0,0.0,0.0,-1.2716,-1.3064,-1.342,-1.3668,-1.3515,-1.3362,-1.3266,-1.3064,-1.3064,-1.317,-1.355,-1.3902,-1.4185,-1.4854,-1.5389,-1.5756,-1.6028,-1.6285,-1.6637,-1.6171,-1.6161,-1.64,-1.6009,-1.5768,-1.57,0.0,0.0,0.0,0.0,0.0,0.0,0.0,0.0,0.0,-1.6249,-1.6077,-1.5972,-1.6431,-1.6192,-1.6012,-1.6784,-1.7298,-1.768,-1.8187,-1.9153,-1.9837,-1.9544,-2.0177,-2.1111,-2.2191,-2.2003,-2.1719,-2.1931,-2.2399,-2.2592,-2.2036,-2.2853,-2.3181,-2.1799,-2.121,-2.0297,-1.9038,-1.8144,-1.7582,-1.7582,-1.7321,-1.7061,-1.6854,-1.6874,-1.7316,-1.8466,-1.9455,-2.0674,-2.1952,-2.2687,-2.3135,-2.3135,-2.3135,-2.3135,-2.3135,-2.3135,-2.3135,-2.3135,-2.3135,-2.3135,-2.3135,-2.3135,-2.3135,-2.3135,-2.3135,-2.3135,-2.3135,-2.3135,-2.3135,-2.3135,-2.3135,-2.3135,-2.3135,0.0,0.0,0.0,0.0,0.0,0.0,0.0,0.0,0.0,0.0,0.0,0.0,0.0,0.0,0.0,0.0,0.0,0.0,0.0,-1.3112,-1.3362,-1.3716,-1.3515,-1.3266,-1.2939,-1.289,-1.2871,-1.2888,-1.353,-1.4001,-1.435,-1.4797,-1.5259,-1.5706,-1.5695,-1.6064,-1.657,-1.6228,-1.6285,-1.6581,-1.6066,-1.5894,-1.5816,0.0,0.0,0.0,0.0,0.0,0.0,0.0,0.0,0.0,-1.6249,-1.6134,-1.6029,-1.6327,-1.6141,-1.6029,-1.6706,-1.7395,-1.7942,-1.8335,-1.9439,-2.0391,-2.0299,-2.0581,-2.1177,-2.2493,-2.2464,-2.2272,-2.2361,-2.2785,-2.296,-2.2448,-2.3008,-2.3223,-2.2324,-2.1352,-2.044,-1.96,-1.8331,-1.7535,-1.7422,-1.7148,-1.6854,-1.6553,-1.6739,-1.7421,-1.8696,-1.967,-2.0854,-2.2306,-2.2862,-2.3135,-2.3135,-2.3135,-2.3135,-2.3135,-2.3135,-2.3135,-2.3135,-2.3135,-2.3135,-2.3135,-2.3135,-2.3135,-2.3135,-2.3135,-2.3135,-2.3135,-2.3135,-2.3135,-2.3135,-2.3135,-2.3135,-2.3135,0.0,0.0,0.0,0.0,0.0,0.0,0.0,0.0,0.0,0.0,-1.4025,0.0,0.0,0.0,0.0,0.0,0.0,0.0,0.0,0.0,-1.3218,-1.3563,-1.342,-1.3045,-1.248,-1.2665,-1.2786,-1.277,-1.3462,-1.4195,-1.5008,-1.4794,-1.5219,-1.5979,-1.5481,-1.5746,-1.6513,-1.641,-1.6467,-1.6627,-1.6285,-1.6056,-1.5874,-1.5371,0.0,0.0,0.0,0.0,0.0,0.0,0.0,0.0,-1.6374,-1.6374,-1.6327,-1.6425,-1.6364,-1.6336,-1.6537,-1.7273,-1.8027,-1.8105,-1.919,-2.033,-2.0667,-2.1165,-2.1864,-2.2805,-2.3105,-2.3135,-2.3135,-2.3135,-2.3135,-2.3135,-2.3135,-2.284,-2.2245,-2.1079,-2.0095,-1.9398,-1.8267,-1.7408,-1.7174,-1.6854,-1.656,-1.6293,-1.7028,-1.7598,-1.787,-1.9943,-2.1203,-2.148,-2.2492,-2.3047,-2.295,-2.3047,-2.3047,-2.295,-2.3047,-2.3135,-2.3135,-2.3135,-2.3135,-2.3135,-2.3135,-2.3135,-2.3135,-2.3135,-2.3135,-2.3135,-2.3135,-2.3135,-2.3135,-2.3135,-2.3135,-2.3135,0.0,0.0,0.0,0.0,0.0,0.0,0.0,0.0,0.0,0.0,0.0,0.0,0.0,0.0,0.0,0.0,0.0,0.0,0.0,0.0,-1.3515,-1.3621,-1.3104,-1.2618,-1.2175,-1.2843,-1.3265,-1.3418,-1.41,-1.4536,-1.4851,-1.5481,-1.5646,-1.5381,-1.5641,-1.5871,-1.6046,-1.64,-1.6684,-1.6899,-1.6457,-1.6239,-1.6114,-1.5186,-1.4834,0.0,0.0,0.0,0.0,0.0,0.0,0.0,-1.6124,-1.6019,-1.5974,-1.6719,-1.6477,-1.6159,-1.7296,-1.7813,-1.8105,-1.8643,-1.9947,-2.1293,-2.1926,-2.238,-2.2708,-2.2485,-2.2804,-2.3135,-2.3135,-2.3135,-2.3135,-2.3135,-2.3135,-2.3203,-2.3361,-2.1415,-2.0189,-2.0539,-1.8376,-1.6961,-1.7134,-1.6673,-1.6339,-1.6279,-1.6279,-1.703,-1.9039,-1.9588,-2.0764,-2.2677,-2.296,-2.2677,-2.1658,-2.2589,-2.2589,-2.1658,-2.2677,-2.3135,-2.3135,-2.3135,-2.3135,-2.3135,-2.3135,-2.3135,-2.3135,-2.3135,-2.3135,-2.3135,-2.3135,-2.3135,-2.3135,-2.3135,-2.3135,-2.3135,0.0,0.0,0.0,0.0,0.0,0.0,0.0,0.0,0.0,0.0,0.0,0.0,0.0,0.0,0.0,0.0,0.0,0.0,0.0,0.0,-1.3525,-1.3354,-1.2861,-1.2529,-1.2274,-1.303,-1.3546,-1.3809,-1.4757,-1.5154,-1.5078,-1.5325,-1.5454,-1.543,-1.5521,-1.5873,-1.6343,-1.6581,-1.6909,-1.719,-1.6457,-1.6285,-1.6343,-1.5303,-1.4951,-1.5059,-1.5118,0.0,0.0,0.0,0.0,0.0,0.0,0.0,-1.6042,-1.6773,-1.6709,-1.6658,-1.7511,-1.8034,-1.8446,-1.9228,-2.0216,-2.1255,-2.2222,-2.2549,-2.2716,-2.2707,-2.2892,-2.3135,-2.3135,-2.3135,-2.3135,-2.3135,-2.3135,-2.3291,-2.373,-2.2098,-2.0806,-2.0784,-1.8844,-1.7392,-1.6827,-1.6453,-1.6213,-1.6072,-1.5919,-1.6835,-1.9405,-1.9497,-2.0584,-2.3047,-2.3135,-2.2775,-2.2208,-2.2775,-2.2775,-2.2208,-2.2775,-2.3135,-2.3135,-2.3135,-2.3135,-2.3135,-2.3135,-2.3135,-2.3135,-2.3135,-2.3135,-2.3135,-2.3135,-2.3135,-2.3135,-2.3135,-2.3135,-2.3135,0.0,0.0,0.0,0.0,0.0,0.0,0.0,0.0,0.0,0.0,0.0,0.0,0.0,0.0,0.0,0.0,0.0,0.0,0.0,0.0,0.0,-1.3133,-1.2774,-1.2656,-1.2733,-1.348,-1.4007,-1.4228,-1.5437,-1.5802,-1.5468,-1.5096,-1.5192,-1.5652,-1.5342,-1.5777,-1.6694,-1.6694,-1.6976,-1.7412,-1.6513,-1.6285,-1.6467,-1.5546,-1.5313,-1.541,-1.541,-1.5488,-1.5614,-1.5682,0.0,0.0,0.0,0.0,-1.6216,-1.6816,-1.7114,-1.7342,-1.7715,-1.8173,-1.8838,-1.9697,-2.0227,-2.0912,-2.1892,-2.2271,-2.2512,-2.2862,-2.2999,-2.3135,-2.3135,-2.3135,-2.3135,-2.3135,-2.3135,-2.3262,-2.3623,-2.2381,-2.1212,-2.0533,-1.8993,-1.754,-1.6384,-1.6226,-1.6092,-1.5845,-1.5832,-1.6835,-1.9405,-1.9497,-2.0584,-2.3047,-2.3135,-2.296,-2.2775,-2.296,-2.296,-2.2775,-2.296,-2.3135,-2.3135,-2.3135,-2.3135,-2.3135,-2.3135,-2.3135,-2.3135,-2.3135,-2.3135,-2.3135,-2.3135,-2.3135,-2.3135,-2.3135,-2.3135,-2.3135,0.0,0.0,0.0,0.0,0.0,0.0,0.0,0.0,0.0,0.0,-1.4581,-1.4384,0.0,0.0,0.0,0.0,0.0,0.0,-1.3621,0.0,0.0,-1.3075,-1.3094,-1.3263,-1.361,-1.4543,-1.5048,-1.5129,-1.5941,-1.6083,-1.5672,-1.5823,-1.5766,-1.541,-1.5293,-1.5651,-1.6353,-1.6228,-1.6637,-1.7278,-1.6581,-1.6296,-1.6285,-1.5594,-1.5362,-1.541,-1.541,-1.5254,-1.5147,-1.5556,-1.5546,0.0,0.0,0.0,-1.6335,-1.7499,-1.7678,-1.7655,-1.8426,-1.8606,-1.8838,-1.9697,-2.0283,-2.0762,-2.123,-2.2178,-2.2873,-2.2483,-2.2785,-2.3135,-2.3135,-2.3135,-2.3135,-2.3135,-2.3135,-2.3154,-2.3213,-2.1212,-1.9887,-1.9964,-1.7684,-1.6217,-1.6253,-1.6039,-1.5872,-1.5832,-1.5832,-1.6835,-1.9405,-1.9497,-2.0584,-2.3047,-2.3135,-2.2589,-2.1569,-2.2589,-2.2589,-2.1569,-2.2589,-2.3135,-2.3135,-2.3135,-2.3135,-2.3135,-2.3135,-2.3135,-2.3135,-2.3135,-2.3135,-2.3135,-2.3135,-2.3135,-2.3135,-2.3135,-2.3135,-2.3135,0.0,0.0,0.0,0.0,0.0,0.0,0.0,0.0,0.0,0.0,0.0,-1.4477,0.0,0.0,0.0,-1.3915,-1.3763,-1.3668,-1.3621,-1.342,-1.3276,-1.3142,-1.317,-1.3429,-1.3902,-1.4697,-1.5204,-1.5395,-1.5966,-1.6134,-1.5894,-1.5604,-1.5488,-1.5546,-1.541,-1.5758,-1.6581,-1.6363,-1.6534,-1.6987,-1.64,-1.5961,-1.5644,-1.5486,-1.5264,-1.5098,-1.5226,-1.5323,-1.5391,-1.5381,-1.5439,-1.5546,-1.5778,0.0,0.0,0.0,-1.7276,-1.7359,-1.8066,-1.8355,-1.8546,-1.9346,-1.9883,-2.0381,-2.1074,-2.183,-2.2384,-2.2281,-2.2695,-2.3135,-2.3135,-2.3135,-2.3135,-2.3135,-2.3135,-2.2862,-2.2217,-2.1212,-2.0093,-1.8792,-1.7579,-1.663,-1.6101,-1.5905,-1.5832,-1.5832,-1.648,-1.7677,-1.9397,-2.0124,-2.1302,-2.3047,-2.3135,-2.2862,-2.2306,-2.2862,-2.2862,-2.2306,-2.2862,-2.3135,-2.3135,-2.3135,-2.3135,-2.3135,-2.3135,-2.3135,-2.3135,-2.3135,-2.3135,-2.3135,-2.3135,-2.3135,-2.3135,-2.3135,-2.3135,-2.3135,0.0,0.0,0.0,0.0,0.0,0.0,0.0,0.0,0.0,0.0,0.0,0.0,0.0,0.0,0.0,0.0,-1.3668,-1.3515,-1.3621,-1.3467,-1.3362,-1.3266,-1.3377,-1.3748,-1.4317,-1.4987,-1.5498,-1.579,-1.6064,-1.6171,-1.5999,-1.5498,-1.5439,-1.5778,-1.542,-1.5768,-1.6751,-1.642,-1.6477,-1.6684,-1.6218,-1.568,-1.5139,-1.5241,-1.5059,-1.4844,-1.5119,-1.5391,-1.5556,-1.5323,-1.5381,-1.5614,-1.574,-1.5798,0.0,0.0,0.0,-1.7205,-1.7684,-1.7919,-1.8231,-1.8906,-1.9443,-1.9951,-2.0723,-2.1076,-2.1472,-2.1961,-2.2249,-2.2448,-2.2611,-2.2892,-2.3135,-2.3135,-2.3135,-2.2677,-2.1471,-2.1025,-2.0034,-1.7956,-1.7412,-1.685,-1.592,-1.5832,-1.592,-1.6298,-1.7131,-1.8319,-1.9852,-2.0845,-2.1845,-2.3047,-2.3135,-2.3135,-2.3135,-2.3135,-2.3135,-2.3135,-2.3135,-2.3135,-2.3135,-2.3135,-2.3135,-2.3135,-2.3135,-2.3135,-2.3135,-2.3135,-2.3135,-2.3135,-2.3135,-2.3135,-2.3135,-2.3135,-2.3135,-2.3135,0.0,0.0,0.0,0.0,0.0,0.0,0.0,0.0,0.0,0.0,0.0,0.0,-1.4373,-1.415,-1.3973,-1.402,-1.3868,-1.3716,-1.3621,-1.3467,-1.342,-1.3372,-1.3936,0.0,-1.5298,-1.5935,-1.6307,-1.6539,-1.656,-1.6296,-1.573,-1.5798,-1.5904,-1.6056,-1.5118,-1.541,-1.6581,-1.6285,-1.6285,-1.6539,-1.5967,-1.5461,-1.5018,-1.4861,-1.4805,-1.4844,-1.5119,-1.5215,-1.5215,-1.5362,-1.5313,-1.5274,-1.574,-1.5798,-1.5878,0.0,0.0,0.0,-1.7616,-1.7625,-1.7787,-1.8346,-1.887,-1.9434,-1.9883,-1.9822,-2.0079,-2.1218,-2.0863,-2.0596,-2.1339,-2.2378,-2.3135,-2.3135,-2.3135,-2.2677,-2.1471,-2.0305,-1.9131,-1.787,-1.6669,-1.5825,-1.5832,-1.5832,-1.6292,-1.7505,-1.7692,-1.8772,-2.1114,-2.1293,-2.1845,-2.3047,-2.3135,-2.3135,-2.3135,-2.3135,-2.3135,-2.3135,-2.3135,-2.3135,-2.3135,-2.3135,-2.3135,-2.3135,-2.3135,-2.3135,-2.3135,-2.3135,-2.3135,-2.3135,-2.3135,-2.3135,-2.3135,-2.3135,-2.3135,-2.3135,0.0,0.0,0.0,0.0,0.0,0.0,0.0,0.0,0.0,0.0,0.0,0.0,0.0,-1.4104,-1.3926,-1.3973,-1.3821,-1.3668,-1.3716,-1.3621,-1.3573,-1.3668,-1.4066,-1.4673,-1.5382,-1.5353,-1.556,-1.6008,-1.5629,-1.5349,-1.5256,-1.5177,-1.5371,-1.5836,-1.5294,-1.5526,-1.6353,-1.5662,-1.5536,-1.5806,-1.5588,-1.5189,-1.4758,-1.5078,-1.5019,-1.4844,-1.5119,-1.5264,-1.5313,-1.5254,-1.5313,-1.5371,-1.5672,-1.574,-1.577,-1.6095,-1.6491,-1.6777,-1.6811,-1.687,-1.7086,-1.7661,-1.7749,-1.7734,-1.8126,-1.8275,-1.8279,-1.8514,-1.935,-2.0192,-2.0218,-2.1396,-2.2422,-2.2695,-2.2734,-2.211,-2.0361,-1.9761,-1.8764,-1.6756,-1.6109,-1.5832,-1.5832,-1.6292,-1.6529,-1.6466,-1.8171,-1.9445,-2.0099,-2.1341,-2.2409,-2.3038,-2.3135,-2.3135,-2.3135,-2.2871,-2.2871,-2.3135,-2.2861,-2.2881,-2.3135,-2.3135,-2.3135,-2.3135,-2.3135,-2.3135,-2.3135,-2.3135,-2.3135,-2.3135,-2.3135,-2.3135,-2.3135,-2.3135,-2.3135,-2.3135,0.0,0.0,0.0,0.0,0.0,0.0,0.0,0.0,0.0,-1.443,0.0,0.0,0.0,0.0,-1.3905,-1.3915,-1.3716,-1.3621,-1.3716,-1.3668,-1.3716,-1.3821,-1.4213,-1.4774,-1.5433,-1.5184,-1.5324,-1.5877,-1.5189,-1.4907,-1.4907,-1.4649,-1.4897,-1.5491,-1.4935,-1.5251,-1.6114,-1.5546,-1.5371,-1.5468,-1.5369,-1.5029,-1.4534,-1.4974,-1.4972,-1.4788,-1.5052,-1.5205,-1.5303,-1.5254,-1.5313,-1.5362,-1.5672,-1.5788,-1.5846,-1.5914,-1.6155,-1.6424,-1.636,-1.6422,-1.6577,-1.7101,-1.7051,-1.6821,-1.7054,-1.7004,-1.6896,-1.6718,-1.7691,-1.8522,-1.8635,-1.9896,-2.1211,-2.2123,-2.2305,-2.1741,-2.0162,-1.9477,-1.8502,-1.664,-1.6021,-1.5906,-1.6379,-1.6465,-1.6718,-1.739,-1.8737,0.0,-2.0272,-2.1569,-2.2432,-2.2715,-2.2715,-2.2715,-2.2715,-2.2441,-2.2441,-2.2715,-2.2578,-2.2656,-2.293,-2.3076,-2.3135,-2.3135,-2.2988,-2.3008,-2.3135,-2.3135,-2.3135,-2.3135,-2.3135,-2.3135,-2.3125,-2.2978,-2.3018,-2.3096,0.0,0.0,0.0,0.0,0.0,0.0,0.0,0.0,-1.4534,-1.4419,0.0,0.0,0.0,0.0,0.0,-1.381,-1.3668,-1.3621,-1.3621,-1.3716,-1.3821,-1.3821,-1.437,-1.4996,-1.5599,-1.5583,-1.5811,-1.6275,-1.5431,-1.4933,-1.4756,-1.441,-1.4528,-1.5104,-1.4144,-1.4535,-1.5853,-1.5853,-1.5758,-1.5642,-1.5355,-1.4841,-1.4364,-1.4571,-1.4627,-1.4685,-1.4935,-1.5098,-1.5225,-1.5362,-1.5323,-1.5293,-1.574,-1.6019,-1.6056,-1.5972,-1.6144,-1.6362,0.0,0.0,0.0,-1.6693,-1.6859,-1.6903,-1.6659,-1.6138,-1.5771,-1.6203,-1.5732,-1.5594,-1.6678,-1.8022,-1.9522,-2.1433,-2.1846,-2.1575,-2.073,-1.9324,-1.8241,-1.7672,-1.6288,-1.604,-1.7531,-1.6359,-1.6973,-2.0341,-1.9281,-1.9434,-2.1709,-2.1885,-2.1885,-2.1885,-2.1885,-2.1885,-2.1885,-2.1875,-2.1875,-2.1894,-2.2305,-2.25,-2.2529,-2.2949,-2.3135,-2.3115,-2.2695,-2.2744,-2.3125,-2.3125,-2.3125,-2.3125,-2.3135,-2.3125,-2.3057,-2.2656,-2.2764,-2.2988,0.0,0.0,0.0,0.0,0.0,-1.4269,-1.4269,-1.4373,-1.443,0.0,0.0,0.0,-1.4419,-1.4197,-1.401,-1.3821,-1.3573,-1.3515,-1.3716,-1.3668,-1.3716,-1.3821,-1.4272,-1.4835,-1.5444,-1.5269,-1.5357,-1.57,-1.5023,-1.4468,-1.4035,-1.4082,-1.4209,-1.4316,-1.3974,-1.4324,-1.5074,-1.4601,-1.4735,-1.5323,-1.5129,-1.5071,-1.5177,-1.5739,-1.5625,-1.5254,-1.5881,-1.5909,-1.5609,-1.5469,-1.5507,-1.567,-1.5713,-1.5846,-1.5961,-1.5914,-1.6019,-1.6158,-1.6077,0.0,0.0,0.0,0.0,0.0,-1.5396,-1.4735,-1.4229,-1.438,-1.403,-1.4101,-1.5164,-1.6707,-1.7909,-1.825,-2.0,-2.0879,-1.929,-1.8654,-1.7715,-1.5986,-1.6095,-1.6417,-1.6862,-1.7778,-1.8446,0.0,-1.9578,-2.0114,-2.0522,-2.1441,-2.1885,-2.1885,-2.1885,-2.1885,-2.1885,-2.1572,-2.1572,-2.1885,-2.2002,-2.2217,-2.2529,-2.2949,-2.3135,-2.3115,-2.2695,-2.2578,-2.2685,-2.2685,-2.2685,-2.2715,-2.3018,-2.2764,-2.2256,-2.2441,-2.2393,-2.2197,0.0,0.0,0.0,0.0,0.0,-1.4176,-1.4035,-1.415,-1.4197,0.0,0.0,0.0,-1.4326,-1.4104,-1.3926,-1.3868,-1.3573,-1.3467,-1.3621,-1.361,-1.361,-1.3716,-1.4083,-1.4634,-1.5382,-1.4904,-1.4913,-1.5395,-1.4543,-1.392,-1.3542,-1.3422,-1.3494,-1.3772,-1.3604,-1.4048,-1.4785,-1.4326,-1.4573,-1.5215,-1.5205,-1.5186,-1.5303,-1.5758,-1.571,-1.5371,-1.5816,-1.593,-1.5904,-1.5771,-1.5977,-1.6269,-1.6019,-1.6058,-1.6097,-1.5974,-1.6019,-1.6117,-1.6029,-1.597,-1.5877,-1.5989,0.0,0.0,-1.4539,-1.4132,-1.3644,-1.2998,-1.2947,-1.324,-1.3838,-1.5258,-1.6398,-1.6826,-1.8662,-1.9826,-1.9045,-1.8313,-1.7738,-1.717,-1.7077,-1.7306,-1.7951,-1.8414,-1.8972,-1.9459,-1.9721,-2.0042,-2.027,-2.0986,-2.1338,-2.1338,-2.1338,-2.1338,-2.1338,-2.1084,-2.1084,-2.1338,-2.1523,-2.1748,-2.1992,-2.2422,-2.2617,-2.2598,-2.2158,-2.208,-2.2236,-2.2051,-2.208,-2.2275,-2.2519,-2.2314,-2.1894,-2.1953,-2.1934,-2.1836,0.0,0.0,-1.414,-1.402,-1.4093,-1.4035,-1.381,-1.3868,-1.3915,0.0,-1.3926,-1.4057,-1.4129,-1.3952,-1.3821,-1.3973,-1.361,-1.342,-1.342,-1.3515,-1.3621,-1.3621,-1.3868,-1.4424,-1.5297,-1.4641,-1.4604,-1.5204,-1.4116,-1.3455,-1.3231,-1.2717,-1.2795,-1.3455,-1.3288,-1.3801,-1.4785,-1.4664,-1.4811,-1.5215,-1.5303,-1.5196,-1.5039,-1.5322,-1.5332,-1.5341,-1.5449,-1.579,-1.6211,-1.6211,-1.656,-1.6911,-1.6505,-1.6417,-1.6427,-1.6095,-1.609,-1.6175,-1.6134,-1.5856,-1.5704,-1.6136,-1.5682,0.0,-1.4239,-1.4132,-1.3784,-1.2529,-1.2546,-1.292,-1.292,-1.4081,-1.5466,-1.653,-1.7588,-1.8536,-1.9444,-1.8357,-1.8065,-1.9477,-1.8682,-1.8447,-1.9782,-1.884,-1.8988,-2.0992,-1.9902,-1.9599,-2.0566,-2.0566,-2.0566,-2.0566,-2.0566,-2.0566,-2.0566,-2.0566,-2.0566,-2.0566,-2.1025,-2.123,-2.125,-2.1689,-2.1885,-2.1865,-2.1426,-2.1455,-2.1777,-2.1338,-2.1426,-2.1816,-2.1865,-2.1826,-2.1699,-2.1357,-2.1455,-2.1631,0.0,-1.3858,-1.3905,-1.3973,-1.3858,-1.3716,-1.3668,-1.3668,-1.3668,-1.3621,-1.3868,-1.3962,-1.3915,-1.3821,-1.3773,-1.3668,-1.3515,-1.3467,-1.3563,-1.3573,-1.3668,-1.3763,-1.3915,-1.4323,-1.4967,-1.4842,-1.4765,-1.474,-1.4317,-1.375,-1.2974,-1.3164,-1.3275,-1.3362,-1.3753,-1.4189,-1.4608,-1.4608,-1.4754,-1.5039,-1.5088,-1.5088,-1.5244,-1.6197,-1.6277,-1.6047,-1.6982,-1.7232,-1.7129,-1.7129,-1.6943,-1.6782,-1.6872,-1.6542,-1.6236,-1.6517,-1.6536,-1.6455,-1.6352,-1.6516,-1.6707,-1.6775,-1.6119,0.0,-1.594,-1.5152,-1.4345,-1.4332,-1.3795,-1.3441,-1.3777,-1.5544,-1.6602,-1.579,-1.6179,-1.7175,-1.8843,-1.8843,-1.8442,-1.7859,-1.8386,-1.8861,-1.9173,-1.9687,-2.0203,-2.0693,-2.0449,-2.0401,-2.0566,-2.0566,-2.0566,-2.0566,-2.0566,-2.0566,-2.0566,-2.0566,-2.0566,-2.0566,-2.1025,-2.123,-2.125,-2.1689,-2.1885,-2.1865,-2.1426,-2.1279,-2.1328,-2.0879,-2.0957,-2.1396,-2.1748,-2.1445,-2.0859,-2.1133,-2.1055,-2.0801,-1.3668,-1.3763,-1.3763,-1.3621,-1.3362,-1.3122,-1.2997,-1.3045,-1.3094,-1.3152,-1.3478,-1.3621,-1.342,-1.3467,-1.342,-1.3218,-1.318,-1.3238,-1.3286,-1.3478,-1.3621,-1.3716,-1.3868,-1.4233,-1.48,-1.4418,-1.4229,-1.4275,-1.3791,-1.3273,-1.2783,-1.2934,-1.3043,-1.3113,-1.3478,-1.384,-1.4253,-1.4419,-1.4639,-1.4843,-1.5029,-1.5156,-1.5312,-1.6188,-1.6208,-1.5851,-1.6638,-1.6974,-1.7119,-1.7549,-1.7549,-1.7334,-1.7248,-1.6968,-1.6806,-1.696,-1.6951,-1.69,-1.6989,-1.6987,-1.6908,-1.6941,-1.651,0.0,0.0,-1.5333,-1.4924,-1.4355,-1.3984,-1.3875,-1.4049,-1.4977,-1.5836,-1.6057,-1.6472,-1.7355,-1.9108,-1.8695,-1.839,-1.8868,-1.9432,-1.9766,-1.9766,-2.0245,-2.0566,-2.0566,-2.0566,-2.0566,-2.0566,-2.0566,-2.0566,-2.0566,-2.0566,-2.0459,-2.0244,-2.0459,-2.0459,-2.0244,-2.0684,-2.0898,-2.0908,-2.1123,-2.123,-2.1211,-2.0996,-2.0898,-2.0889,-2.0654,-2.0703,-2.0918,-2.1143,-2.0957,-2.0596,-2.082,-2.0762,-2.0566,-1.3515,-1.361,-1.3573,-1.317,-1.2929,-1.2638,-1.2323,-1.2363,-1.2461,-1.2618,-1.3132,-1.3399,-1.3256,-1.3314,-1.3304,-1.3102,-1.318,-1.323,-1.3223,-1.36,-1.3888,-1.3888,-1.3994,-1.419,-1.4622,-1.3903,-1.3593,-1.3711,-1.3116,-1.2813,-1.2676,-1.2713,-1.2801,-1.3018,-1.3234,-1.3542,-1.4007,-1.4269,-1.4534,-1.4775,-1.5029,-1.5204,-1.526,-1.5904,-1.5906,-1.5663,-1.6162,-1.6553,-1.6973,-1.7677,-1.794,-1.7949,-1.7541,-1.7441,-1.736,-1.7236,-1.7292,-1.7448,-1.7523,-1.7389,-1.7174,-1.7184,-1.6959,-1.6515,0.0,0.0,0.0,-1.4287,-1.4308,-1.4553,-1.4553,-1.4553,-1.5135,-1.6857,-1.7242,-1.7806,-1.9449,-1.8415,-1.8268,-2.0352,-2.0595,-2.0644,-2.0644,-2.0654,-2.0644,-2.0566,-2.0644,-2.0644,-2.0566,-2.0566,-2.0566,-2.0566,-2.0566,-2.0352,-1.9922,-2.0352,-2.0342,-1.9922,-2.0361,-2.0566,-2.0566,-2.0566,-2.0566,-2.0566,-2.0566,-2.0566,-2.0566,-2.0566,-2.0566,-2.0566,-2.0566,-2.0566,-2.0566,-2.0566,-2.0566,-2.0566,-1.317,-1.3266,-1.317,-1.29,-1.2666,-1.2421,-1.2175,-1.1868,-1.19,-1.2374,-1.3188,-1.3826,-1.4025,-1.4082,-1.4071,-1.4025,-1.4035,-1.4015,-1.4001,-1.4507,-1.4898,-1.5006,-1.4419,-1.4153,-1.4345,-1.3621,-1.3152,-1.293,-1.2958,-1.289,-1.2686,-1.3161,-1.3387,-1.3457,-1.3824,-1.409,-1.4279,-1.4326,-1.4582,-1.497,-1.5029,-1.5138,-1.5321,-1.5965,-1.6214,-1.636,-1.7006,-1.7266,-1.7383,-1.7629,-1.7862,-1.793,-1.7726,-1.7532,-1.736,-1.7236,-1.764,-1.7963,-1.7276,-1.7739,-1.8385,-1.8045,-1.7453,-1.6967,-1.6999,0.0,-1.6531,-1.5806,0.0,-1.6324,-1.6324,0.0,0.0,-1.791,-1.7539,-1.7585,-1.9073,-1.873,-1.8928,-2.0327,-2.0562,-2.0654,-2.0829,-2.0906,-2.0819,-2.0644,-2.0741,-2.0819,-2.0644,-2.0566,-2.0566,-2.0566,-2.0566,-2.0352,-1.9922,-2.0352,-2.0342,-1.9922,-2.0361,-2.0566,-2.0566,-2.0566,-2.0566,-2.0566,-2.0566,-2.0566,-2.0566,-2.0566,-2.0566,-2.0566,-2.0566,-2.0566,-2.0566,-2.0566,-2.0566,-2.0566,-1.2958,-1.2958,-1.2803,-1.2471,-1.2224,-1.1877,-1.1477,-1.166,-1.1926,-1.2085,-1.274,-1.3293,-1.3452,-1.3561,-1.366,-1.3561,-1.4091,-1.4261,-1.3872,-1.463,-1.5115,-1.5207,-1.4489,-1.4101,-1.4199,-1.33,-1.2842,-1.2783,-1.2842,-1.2813,-1.2842,-1.3311,-1.3506,-1.3525,-1.3902,-1.4221,-1.4449,-1.4411,-1.4534,-1.4862,-1.5226,-1.5313,-1.5368,-1.5961,-1.6205,-1.6263,-1.6782,-1.7002,-1.7109,-1.7706,-1.793,-1.8008,-1.793,-1.7813,-1.7782,-1.7849,-1.8061,-1.8319,-1.7944,-1.8117,-1.8338,-1.8317,-1.8035,-1.7681,-1.7302,-1.755,-1.757,-1.6607,0.0,0.0,0.0,0.0,0.0,0.0,-1.8062,-1.8235,-1.9056,-1.9334,-1.9618,-2.0046,-2.03,-2.0521,-2.0641,-2.0671,-2.0654,-2.0644,-2.0654,-2.0654,-2.0566,-2.0566,-2.0566,-2.0566,-2.0566,-2.0352,-1.9922,-2.0352,-2.0342,-1.9922,-2.0361,-2.0566,-2.0566,-2.0566,-2.0566,-2.0566,-2.0566,-2.0566,-2.0566,-2.0566,-2.0566,-2.0566,-2.0566,-2.0566,-2.0566,-2.0566,-2.0566,-2.0566,-1.2529,-1.2627,-1.2529,-1.2126,-1.1917,-1.1669,-1.1091,-1.1542,-1.1937,-1.1972,-1.2635,-1.3238,-1.3455,-1.3807,-1.3962,-1.3791,-1.4599,-1.4844,-1.4273,-1.5044,-1.5527,-1.5557,-1.481,-1.445,-1.4443,-1.3333,-1.282,-1.3008,-1.2773,-1.2725,-1.2891,-1.3311,-1.3506,-1.3525,-1.3849,-1.4221,-1.4617,-1.4514,-1.4592,-1.4862,-1.5292,-1.5482,-1.5605,-1.6017,-1.6162,-1.6194,-1.6709,-1.6914,-1.7021,-1.7687,-1.794,0.0,-1.794,-1.794,-1.7978,-1.8063,-1.8315,-1.8452,-1.8398,-1.8314,-1.8219,-1.8537,-1.855,-1.8299,-1.7706,-1.8134,-1.8273,-1.72,-1.7321,0.0,0.0,0.0,-1.791,-1.8472,0.0,-1.8833,-1.8983,-1.9576,-1.9969,-1.988,-2.0216,-2.0494,0.0,-2.0591,-2.0621,-2.0544,-2.0663,-2.0654,-2.0566,-2.0566,-2.0566,-2.0566,-2.0566,-2.0352,-1.9922,-2.0352,-2.0342,-1.9922,-2.0361,-2.0566,-2.0566,-2.0566,-2.0566,-2.0557,-2.0439,-2.0449,-2.0557,-2.0439,-2.0459,-2.0566,-2.0566,-2.0566,-2.0566,-2.0566,-2.0566,-2.0566,-1.1778,-1.2175,-1.2382,-1.1977,-1.2039,-1.1989,-1.1352,-1.1519,-1.1799,-1.2061,-1.3159,-1.4251,-1.4956,-1.5472,-1.5742,-1.5553,-1.6009,-1.6092,-1.5556,-1.6033,-1.6374,-1.6456,-1.5708,-1.53,-1.5374,-1.3862,-1.3221,-1.3486,-1.2828,-1.2627,-1.2891,-1.3311,-1.3506,-1.3525,-1.3945,-1.4266,-1.4608,-1.4608,-1.4811,-1.5215,-1.5234,-1.5584,-1.6113,-1.6336,-1.6301,-1.6243,-1.7051,-1.7363,0.0,-1.7639,-1.7852,0.0,0.0,0.0,-1.792,-1.7688,-1.8065,-1.8449,-1.8202,0.0,-1.8485,-1.894,-1.8864,-1.8669,-1.8659,-1.8786,-1.8596,-1.7563,-1.7765,-1.808,-1.808,-1.8294,-1.8643,-1.9208,-1.9152,0.0,0.0,-1.9306,-1.9695,-1.9944,-2.0404,-2.0594,-2.0452,-2.0647,-2.07,-2.0487,-2.0735,-2.0819,-2.0644,-2.0566,-2.0566,-2.0566,-2.0566,-2.0352,-1.9922,-2.0352,-2.0342,-1.9922,-2.0361,-2.0566,-2.0566,-2.0566,-2.0566,-2.0537,-2.0117,-2.0176,-2.0527,-2.0107,-2.0185,-2.0566,-2.0566,-2.0566,-2.0566,-2.0566,-2.0566,-2.0566,-1.2653,-1.2538,-1.2299,-1.2103,-1.1913,-1.1747,-1.1671,-1.2159,-1.2814,-1.3551,-1.3626,-1.425,-1.5925,-1.5891,-1.5786,-1.5918,-1.6919,-1.727,-1.6717,-1.6877,-1.7151,-1.7531,-1.6009,-1.5342,-1.5814,-1.4518,-1.3916,-1.4073,-1.3841,-1.3932,-1.4491,-1.4676,-1.4758,-1.4861,-1.524,-1.5286,-1.5138,-1.5138,-1.5177,-1.5215,-1.5215,-1.5456,-1.5901,-1.6098,-1.6315,-1.6582,-1.7168,-1.7383,0.0,-1.7794,-1.794,-1.8008,-1.794,-1.794,-1.7978,-1.7899,-1.8093,-1.8307,0.0,0.0,-1.8415,-1.8834,0.0,0.0,-1.8281,-1.8512,-1.8501,-1.754,-1.8102,-1.8661,-1.8249,-1.8633,-1.9038,-1.9061,-1.9141,-1.9274,0.0,-1.9605,-1.9866,-2.0038,-2.0139,-2.0136,-1.9975,-1.9981,-2.0082,-2.0297,-2.0295,-2.034,-2.0624,-2.0566,-2.0566,-2.0566,-2.0566,-2.0498,-2.0342,-2.0498,-2.0488,-2.0352,-2.0498,-2.0566,-2.0566,-2.0566,-2.0566,-2.0537,-2.0098,-2.0,-2.0117,-1.9971,-2.0,-2.0166,-2.0449,-2.0391,-2.0166,-2.0459,-2.0566,-2.0566,-1.2712,-1.2325,-1.2036,-1.2288,-1.2206,-1.2222,-1.2414,-1.3015,-1.3787,-1.4529,-1.4182,-1.4672,-1.6576,-1.6248,-1.6168,-1.6758,-1.7583,-1.7851,-1.7531,-1.7543,-1.7664,-1.7763,-1.6732,-1.6267,-1.645,-1.5626,-1.5198,-1.5204,-1.4925,-1.5018,-1.531,-1.5563,-1.569,-1.5735,-1.5966,-1.5941,-1.5642,-1.5468,-1.5449,-1.5505,-1.566,-1.5882,-1.6133,-1.6475,-1.6709,-1.6883,0.0,-1.7607,-1.7646,-1.792,-1.8008,-1.8008,-1.8008,-1.8008,-1.8008,-1.8008,-1.8076,-1.8212,-1.8144,-1.8093,0.0,-1.87,-1.8471,0.0,-1.8229,0.0,-1.8239,-1.7641,-1.8218,-1.8647,-1.8302,-1.8912,-1.9312,-1.9071,-1.9283,-1.9605,0.0,-1.9933,-1.9987,-2.0064,-2.0081,-1.9927,-1.9703,-1.9784,-1.99,-1.9829,-2.0054,-2.0256,-2.0322,-2.0478,-2.0566,-2.0566,-2.0566,-2.0566,-2.0566,-2.0566,-2.0566,-2.0566,-2.0566,-2.0566,-2.0557,-2.041,-2.042,-2.0527,-1.9785,-1.9629,-1.9893,-1.958,-1.9639,-1.9932,-2.0059,-2.0029,-1.9971,-2.041,-2.0566,-2.0566,-1.2041,-1.1712,-1.1728,-1.2505,-1.2923,-1.3272,-1.3584,-1.4118,-1.4615,-1.505,-1.497,-1.5454,-1.7064,-1.667,-1.6817,-1.7934,-1.7938,-1.7938,-1.8049,-1.8076,-1.7888,-1.7373,-1.7862,-1.7856,-1.7386,-1.7227,-1.6994,-1.6642,-1.6105,-1.5678,-1.5436,-1.5924,-1.6181,-1.617,-1.6192,-1.6171,-1.6056,-1.5642,-1.5664,-1.6164,-1.6553,-1.6685,-1.6743,-1.7227,-1.7317,-1.7243,-1.7794,-1.8008,-1.8008,-1.8008,-1.8008,-1.8008,-1.8008,-1.8008,-1.8008,-1.8008,-1.8008,-1.8008,-1.8202,-1.7962,-1.781,-1.8562,-1.8395,0.0,0.0,0.0,-1.7915,-1.7883,-1.8048,-1.8268,-1.8373,-1.9026,-1.9539,-1.932,-1.966,-2.0074,-2.0346,-2.0248,-2.0107,-2.0107,-2.0129,-1.9944,-1.9671,-2.0133,-2.006,-1.9283,-2.0123,-2.0386,-1.9912,-2.0389,-2.0624,-2.0566,-2.0566,-2.0566,-2.0566,-2.0566,-2.0566,-2.0566,-2.0547,-2.0547,-2.0547,-2.0117,-2.0137,-2.0469,-1.9209,-1.9121,-1.9795,-1.8994,-1.9141,-1.9814,-1.9482,-1.958,-2.0036,-2.0361,-2.0575,-2.0585,-1.2522,-1.2582,-1.2701,-1.3169,-1.3442,-1.3778,-1.4167,-1.4495,-1.5214,-1.6568,-1.6214,-1.621,-1.7252,-1.7126,-1.6932,-1.6894,-1.7388,-1.8089,-1.9107,-1.8417,-1.8484,-1.9738,-1.8703,-1.8247,-1.8578,-1.7816,-1.7401,-1.74,-1.6764,-1.6656,-1.7103,-1.7062,-1.7075,-1.717,-1.7135,-1.6729,-1.6114,-1.5989,-1.6018,-1.6164,-1.6553,-1.6786,-1.7012,0.0,-1.7426,-1.7562,-1.7901,-1.8008,-1.8008,-1.8008,-1.8008,-1.8008,-1.8008,-1.8008,-1.8008,-1.8008,-1.8008,-1.8008,-1.8076,-1.7997,-1.8006,-1.8307,-1.8075,-1.781,0.0,0.0,0.0,0.0,0.0,0.0,0.0,-1.8666,-1.9236,-1.9233,-1.9781,-2.027,-2.041,-2.0464,-2.0529,-2.0529,-2.0194,-1.9933,-1.9802,-1.9446,-1.9318,-1.9579,-1.9675,-1.9807,-1.9873,0.0,-2.0681,-2.0634,-2.0566,-2.0566,-2.0566,-2.0566,-2.0566,-2.0634,-2.0234,-2.0254,-2.0547,-2.0117,-1.9971,-2.0049,-1.9394,-1.9062,-1.8975,-1.9082,-1.9062,-1.9053,-1.9902,-2.0542,-2.0747,-1.9974,-2.0042,-2.0585,-1.2645,-1.2674,-1.292,-1.3216,-1.3778,-1.4277,-1.4672,-1.5145,-1.5824,-1.6956,-1.658,-1.6555,-1.7533,-1.7052,-1.6915,-1.7488,-1.7467,-1.7829,-1.8895,-1.869,-1.8823,-1.9353,-1.9054,-1.8907,-1.9025,-1.8484,-1.817,-1.8084,-1.7583,-1.7474,-1.77,-1.769,-1.7756,-1.7744,-1.7412,-1.6965,-1.642,-1.6212,-1.6019,-1.6001,-1.6758,-1.7093,0.0,-1.7578,-1.7726,-1.7862,-1.794,-1.8008,-1.8008,-1.8008,-1.8008,-1.8008,-1.8008,-1.8008,-1.8008,-1.8008,-1.8008,-1.8008,-1.8008,-1.8008,-1.8008,-1.8144,-1.7957,-1.7787,-1.7805,-1.7755,-1.775,0.0,-1.7906,-1.8167,0.0,0.0,-1.9257,-1.9673,-2.0169,-2.0604,-2.0722,-2.0786,-2.0786,-2.0786,-2.0464,-2.0335,-2.0453,-1.9584,-1.9235,-1.963,-1.9692,-1.9825,0.0,0.0,-2.0696,-2.0645,-2.0623,-2.0566,-2.0566,-2.0566,-2.0469,-2.0273,-2.0029,-1.9951,-1.999,-1.9551,-1.9453,-1.9609,-1.8994,-1.9072,-1.9545,-1.9596,-1.9788,-2.0128,-2.0214,-2.0298,-2.0281,-1.9554,-2.0128,-2.1058,-1.2617,-1.2593,-1.2857,-1.3124,-1.4072,-1.4916,-1.5272,-1.5828,-1.6401,-1.6895,-1.6714,-1.6779,-1.761,-1.6842,-1.687,-1.8382,-1.7694,-1.7405,-1.8099,-1.88,-1.8792,-1.7924,-1.8976,-1.9391,-1.8983,-1.8894,-1.878,-1.872,-1.8309,-1.7995,-1.7801,-1.8009,-1.8139,-1.8084,-1.7468,-1.7022,-1.6793,-1.6367,-1.6091,-1.5994,-1.7045,-1.7461,-1.75,-1.7871,-1.8008,-1.8008,-1.8008,-1.8008,-1.8008,-1.8008,-1.8008,-1.8008,-1.8008,-1.8008,-1.8008,-1.8008,-1.8008,-1.8008,-1.8008,-1.8008,-1.8008,-1.8008,-1.8008,-1.791,-1.7718,-1.7629,-1.7629,-1.7629,-1.778,-1.7909,0.0,0.0,-1.933,-2.014,-2.0399,-2.068,-2.0994,-2.0929,-2.0801,-2.0929,-2.0747,0.0,-2.1169,-2.0161,-1.9507,-1.9736,-2.0034,-2.0222,0.0,0.0,-2.0663,-2.0575,-2.0562,-2.0566,-2.0566,-2.0508,-2.0283,-1.9912,-1.9795,-1.959,-1.9268,-1.8838,-1.8848,-1.916,-1.8418,-1.9052,-2.0709,-2.036,-2.095,-2.1931,-2.0518,-1.9878,-1.9713,-1.9518,-2.0598,-2.1799,-1.3243,-1.3783,-1.402,-1.3924,-1.4962,-1.5912,-1.6108,-1.6503,-1.6797,-1.7064,-1.7446,-1.7348,-1.652,-1.686,-1.7012,-1.6648,-1.6683,-1.7282,-1.8459,-1.8235,-1.8289,-1.8806,-1.8691,-1.8626,-1.8766,-1.8002,-1.8112,-1.9206,-1.8123,-1.7867,-1.8283,-1.8334,-1.8259,-1.8084,-1.8139,-1.7645,-1.6814,-1.6647,-1.6548,-1.6626,-1.7559,-1.79,-1.791,-1.7978,-1.8008,-1.8008,-1.8008,-1.8008,-1.8008,-1.8008,-1.8008,-1.8008,-1.8008,-1.8008,-1.8008,-1.8008,-1.8008,-1.8008,-1.8008,-1.8008,-1.8008,-1.8008,-1.8008,-1.7988,-1.791,-1.7958,-1.7958,-1.7958,-1.7968,-1.8055,-1.8192,0.0,0.0,-1.9441,-1.9507,-1.9711,-2.0307,-2.0361,-2.0506,-2.0919,-2.046,-2.0443,-2.114,-2.0624,-2.0302,-2.0377,-2.052,-2.0214,0.0,0.0,-2.0638,0.0,-2.0409,0.0,0.0,0.0,-1.999,-1.9902,-1.9199,-1.9014,-1.9268,-1.8838,-1.8601,-1.874,-1.8594,-1.9153,-2.0276,-2.0582,-2.1458,-2.2458,-2.103,-2.1099,-2.1793,-2.0736,-2.1458,-2.2712,-1.4005,-1.4269,-1.4402,-1.4611,-1.5507,-1.6294,-1.6551,-1.7073,-1.7427,-1.7293,-1.7542,-1.7504,-1.6889,-1.72,-1.7305,-1.709,-1.707,-1.7342,-1.792,-1.7874,-1.788,-1.8127,-1.7975,-1.8024,-1.813,-1.7526,-1.7682,-1.8714,-1.8024,-1.794,-1.8406,-1.8464,-1.8336,-1.8084,-1.7755,-1.7218,-1.6657,-1.6207,0.0,-1.6612,-1.6924,-1.7402,-1.7988,-1.7773,-1.7822,-1.8008,-1.8008,-1.8008,-1.8008,-1.8008,-1.8008,-1.8008,-1.8008,-1.8008,-1.8008,-1.8008,-1.8008,-1.8008,-1.8008,-1.8008,-1.8008,-1.8008,-1.8008,-1.8008,-1.8008,-1.8008,-1.8008,-1.8008,-1.8008,-1.8076,-1.8269,-1.8674,0.0,0.0,0.0,-2.002,-2.0186,-2.0217,-2.0296,-2.0568,-2.0353,-2.038,-2.0862,-2.1031,-2.1094,-2.1146,-2.0828,-2.0477,0.0,0.0,-2.0346,0.0,0.0,0.0,-2.0566,0.0,-1.9805,-1.958,-1.8945,-1.8633,-1.8623,-1.8408,-1.8428,-1.8562,-1.8562,-1.9435,-2.0857,-2.207,-2.2787,-2.3006,-2.2078,-2.1876,-2.2084,-2.1521,-2.2063,-2.2921,-1.5031,-1.5033,-1.5018,-1.5619,-1.6264,-1.6812,-1.7082,-1.7639,-1.7881,-1.7608,-1.7608,-1.7569,-1.7483,-1.7532,-1.7607,-1.7852,-1.7656,-1.7519,-1.7519,-1.7658,-1.7554,-1.708,-1.7194,-1.7298,-1.7366,-1.6983,-1.7322,-1.8313,-1.7912,-1.8101,0.0,-1.8758,-1.8669,-1.8343,-1.7511,-1.7084,0.0,0.0,-1.6128,-1.6615,-1.637,-1.6816,-1.7705,-1.7373,-1.7451,-1.7754,-1.7842,-1.7881,-1.7891,-1.7978,-1.8008,-1.8008,-1.8008,-1.8144,-1.8269,-1.8269,-1.8395,-1.8529,-1.8529,-1.8395,-1.8269,-1.8269,-1.8144,-1.8008,-1.8008,-1.8008,-1.8008,-1.8008,-1.8008,-1.8076,-1.8269,-1.8731,0.0,0.0,0.0,-2.0169,-1.9933,-1.9875,-1.9944,-2.0286,-2.0356,-2.0553,-2.0903,-2.1498,-2.1874,-2.1963,-2.1336,-2.0828,-2.07,0.0,0.0,0.0,0.0,-2.0256,-2.0446,0.0,-1.957,-1.915,-1.8711,-1.833,-1.8008,-1.8008,-1.8193,-1.8506,-1.8523,-1.9819,-2.1865,-2.3514,-2.4058,-2.373,-2.32,-2.2669,-2.2137,-2.2137,-2.2567,-2.2884,-1.656,-1.6933,-1.7107,-1.7312,-1.7863,-1.8123,-1.8033,-1.8025,-1.8008,-1.7949,-1.794,-1.7794,-1.748,-1.7744,-1.7812,-1.7471,-1.7754,-1.7949,-1.7949,-1.7625,-1.7224,-1.6757,-1.6427,-1.6345,-1.657,-1.6111,-1.6819,-1.8748,-1.7979,-1.834,0.0,-1.9574,-1.9483,-1.9353,0.0,0.0,0.0,-1.7348,-1.7054,-1.7108,-1.6773,-1.6748,-1.6846,-1.6807,-1.6816,-1.6904,-1.7295,-1.7441,-1.75,-1.7881,-1.8008,-1.8008,-1.8008,-1.8519,-1.9177,-1.9177,-1.9759,-2.0333,-2.0333,-1.9759,-1.9177,-1.9177,-1.8596,-1.8008,-1.8008,-1.8008,-1.8008,-1.8008,-1.8008,-1.8076,-1.8269,-1.8854,-1.911,0.0,0.0,-1.9251,-1.8784,-1.8773,-1.9243,-2.0536,-2.0571,-2.0919,-2.1972,-2.2123,-2.2359,-2.2957,-2.242,-2.1411,0.0,0.0,0.0,-1.9344,-2.0359,-2.0551,-1.9843,-1.9511,-1.9121,-1.8691,-1.8271,-1.8047,-1.8008,-1.8008,-1.8037,-1.8086,-1.8467,-2.0163,-2.2797,-2.3804,-2.4408,-2.4628,-2.4079,-2.3517,-2.3005,-2.3005,-2.3017,-2.3078,-1.7578,-1.7743,-1.7935,-1.8209,-1.8445,-1.86,-1.8817,-1.8592,-1.8389,-1.8389,-1.8164,-1.7949,-1.7773,-1.791,-1.7842,-1.7422,-1.7539,-1.7512,-1.7234,-1.6834,-1.6515,-1.6326,-1.5906,-1.5704,-1.5816,-1.6187,-1.695,-1.8154,-1.8442,-1.8954,-1.9701,0.0,0.0,0.0,0.0,-1.8437,-1.854,-1.7755,-1.7374,-1.7183,-1.6734,-1.6617,-1.6636,-1.6436,-1.666,-1.7148,-1.7314,-1.7549,-1.7783,-1.7959,-1.8008,-1.8076,-1.8586,-1.9044,-1.9431,-1.9955,-2.0333,-2.059,-2.059,-2.0333,-1.9944,-1.9431,-1.9044,-1.8654,-1.8144,-1.8008,-1.8008,-1.8008,-1.8008,-1.8008,-1.8144,-1.8472,-1.8865,-1.8921,0.0,0.0,-1.9381,-1.9605,-1.9887,-2.0217,-2.0687,-2.1236,-2.1675,-2.2111,-2.242,-2.2653,-2.2482,-2.2087,0.0,0.0,0.0,-2.017,0.0,-1.967,-1.9881,-1.9223,-1.8809,-1.8633,-1.8213,-1.8008,-1.8008,-1.8008,-1.8291,-1.887,-1.9848,-2.1384,-2.3307,-2.426,-2.4949,-2.5234,-2.4707,-2.4155,-2.3615,-2.3203,-2.3078,-2.3078,-1.863,-1.8648,-1.8695,-1.9182,-1.9171,-1.9168,-1.9399,-1.8994,-1.8562,-1.8562,-1.8271,-1.8008,-1.8008,-1.8008,-1.7891,-1.7598,-1.7461,-1.7275,-1.6947,-1.6398,-1.6127,-1.6104,-1.5871,-1.5718,-1.569,-1.6589,-1.7345,-1.7978,-1.8737,-1.9297,0.0,0.0,0.0,0.0,-1.903,-1.8887,-1.9042,-1.8285,-1.7668,-1.7291,-1.6732,-1.6422,-1.6328,-1.6133,-1.6455,-1.7012,-1.7148,-1.7471,-1.789,-1.8071,-1.8295,-1.8462,-1.911,-1.9628,-2.0204,-2.0782,-2.1164,-2.1353,-2.1353,-2.1164,-2.0782,-1.9879,-1.9497,-1.9044,-1.8202,-1.8008,-1.8008,-1.8008,-1.8008,-1.8008,-1.8008,-1.8405,-1.8798,-1.8921,0.0,0.0,-1.9425,-2.0054,-2.0482,-2.014,-2.0933,-2.1639,-2.1889,-2.2334,-2.2665,-2.2726,-2.2653,0.0,0.0,0.0,0.0,0.0,0.0,0.0,-1.9492,-1.8877,-1.8574,-1.8447,-1.8154,-1.8008,-1.8018,-1.8135,-1.8594,-1.938,-2.0803,-2.2196,-2.3599,-2.4564,-2.5253,-2.5548,-2.5021,-2.4481,-2.3929,-2.3351,-2.3078,-2.3078,-1.9749,-1.9601,-1.9669,-2.0469,-2.0185,-1.9902,-1.9902,-1.918,-1.8562,-1.8562,-1.8271,-1.8008,-1.8008,-1.8008,-1.8008,-1.8008,-1.7627,-1.7376,-1.7379,-1.6609,-1.6105,-1.6085,-1.6368,-1.6511,-1.6482,-1.7191,-1.795,-1.8673,-1.8765,0.0,-2.0177,0.0,-2.0171,-2.0207,-1.9982,-1.9836,-1.9759,-1.8992,-1.8286,-1.7534,-1.6821,-1.6036,-1.5478,-1.5908,-1.6135,-1.6194,-1.6582,-1.7021,-1.7514,-1.8307,-1.8921,-1.9299,-1.9299,-2.0462,-2.1877,-2.1877,-2.2445,-2.3078,-2.3078,-2.2506,-2.169,-2.0782,-1.9944,-1.9044,-1.8202,-1.8008,-1.8008,-1.8008,-1.8008,-1.8008,-1.8008,-1.8721,-1.8977,-1.8134,0.0,0.0,0.0,-1.9507,-2.0602,-2.0602,-2.1365,-2.2199,-2.3005,-2.3078,-2.3258,-2.3569,0.0,0.0,0.0,0.0,0.0,-1.9857,-1.9703,0.0,-1.8512,-1.8577,-1.8428,-1.8018,-1.8008,-1.8008,-1.8018,-1.8437,-1.8867,-1.938,-2.0803,-2.2196,-2.3599,-2.4564,-2.5253,-2.5548,-2.5021,-2.4481,-2.3929,-2.3351,-2.3078,-2.3078,-2.0332,-2.0284,-2.0323,-2.0547,-2.0449,-2.0361,-2.0361,-1.9629,-1.9082,-1.9082,-1.8457,-1.8008,-1.8008,-1.8008,-1.79,-1.7607,-1.7187,-1.6796,0.0,-1.598,-1.5605,-1.5644,-1.5852,-1.6121,-1.6472,-1.7351,-1.8096,-1.8715,0.0,0.0,0.0,-1.9987,-1.9951,-1.9905,-1.9834,-1.9811,-1.9798,-1.9527,-1.9032,-1.8286,-1.7523,-1.681,-1.6104,-1.5742,-1.5801,-1.6145,-1.623,-1.6917,-1.7718,-1.7958,-1.8899,-1.9992,-2.0335,-2.0819,-2.1463,-2.2457,-2.2623,-2.2661,-2.2977,-2.2884,-2.2506,-2.1678,-2.1302,-2.0719,-1.9243,-1.8462,-1.8008,-1.8008,-1.8008,-1.8008,-1.8008,-1.8202,-1.8529,-1.8844,-1.9561,0.0,-1.9802,-2.1,-2.1812,-2.1537,-2.2187,-2.2823,-2.3078,-2.3078,-2.3125,-2.3258,-2.3138,0.0,0.0,0.0,0.0,0.0,-1.9937,0.0,-1.8577,-1.835,-1.8144,-1.8008,-1.8008,-1.8008,-1.8027,-1.8447,-1.9213,-2.0431,-2.1804,-2.3221,-2.4636,-2.5581,-2.6133,-2.6101,-2.5172,-2.472,-2.4443,-2.3489,-2.3078,-2.3078,-2.0566,-2.0566,-2.0566,-2.0566,-2.0566,-2.0508,-2.0342,-1.9736,-1.9228,-1.9062,-1.8437,-1.8008,-1.8008,-1.8008,0.0,-1.7637,-1.708,-1.6619,-1.6347,-1.5762,-1.541,-1.541,-1.5797,-1.6269,-1.6912,-1.776,0.0,-1.9097,-1.9621,-1.9841,-1.9885,-1.9841,-1.9821,-1.9798,-1.9798,-1.9798,-1.9798,-1.9798,-1.9371,-1.8661,-1.7895,-1.7146,-1.6446,-1.5879,-1.5999,-1.6538,-1.6538,-1.7224,-1.8237,-1.8425,-1.9249,-2.0344,-2.0981,-2.1061,-2.1156,-2.2658,-2.2749,-2.2435,-2.2927,-2.3078,-2.2884,-2.2125,-2.1877,-2.1428,-1.9683,-1.8664,-1.8008,-1.8008,-1.8008,-1.8008,-1.8008,-1.8008,-1.8212,-1.8721,-1.9272,-1.9695,-1.9813,-2.125,-2.21,-2.164,-2.2506,-2.3078,0.0,-2.3078,-2.299,0.0,-2.2965,0.0,0.0,0.0,0.0,-2.1158,-1.9965,-1.8977,-1.8398,-1.8144,-1.8008,-1.8008,-1.8008,-1.8008,-1.8027,-1.8613,-1.9585,-2.0868,-2.2419,-2.3833,-2.5075,-2.6094,-2.6533,-2.642,-2.5259,-2.482,-2.4682,-2.3552,-2.3078,-2.3078,-2.0566,-2.0566,-2.0566,0.0,-2.0537,-2.0381,-1.9971,-1.9531,-1.9092,-1.8691,-1.8271,-1.8008,-1.8008,-1.8008,-1.8008,-1.8008,0.0,0.0,-1.6715,-1.592,-1.5439,-1.541,-1.6073,-1.6764,-1.7523,-1.8251,-1.9008,-1.9798,-1.9798,-1.9798,-1.9798,-1.9798,-1.9798,-1.9798,-1.9798,-1.9798,-1.9798,-1.9798,-1.9423,-1.8715,-1.795,-1.7246,-1.6648,-1.6326,-1.6607,-1.7259,-1.7259,-1.7916,-1.898,-1.9394,-1.9841,-2.0304,-2.1182,-2.1054,-2.0928,-2.2585,-2.2686,-2.2385,-2.2915,-2.3078,-2.2884,-2.2125,-2.1815,-2.1302,-1.9683,-1.8664,-1.8008,-1.8008,-1.8008,-1.8008,-1.8008,-1.8008,-1.8008,-1.8008,-1.8721,-1.9141,-1.868,-2.0466,-2.1675,-2.1128,0.0,0.0,-2.3078,-2.3078,-2.2865,0.0,-2.2849,0.0,0.0,0.0,-2.1616,-2.0719,-1.9879,-1.9044,-1.8076,-1.8076,-1.8076,-1.8008,-1.8008,-1.8027,-1.8076,-1.8916,-1.9867,-2.1062,-2.275,-2.4108,-2.5158,-2.6094,-2.6533,-2.642,-2.5259,-2.482,-2.4682,-2.3552,-2.3078,-2.3078,0.0,0.0,-2.0566,-2.0566,-2.0283,-2.0029,-1.9932,-1.9277,-1.876,-1.8582,-1.8271,-1.8008,-1.8008,-1.8008,-1.8008,-1.8008,-1.7529,-1.7056,-1.6735,-1.6205,-1.5762,-1.543,-1.5705,-1.6179,-1.6754,-1.7626,-1.8633,-1.9798,-1.9798,-1.9798,-1.9798,-1.9798,-1.9798,-1.9798,-1.9798,-1.9798,-1.9798,-1.9798,-1.9695,-1.9475,-1.8715,-1.834,-1.8124,-1.7479,-1.7366,-1.7534,-1.7534,-1.8046,-1.8787,-1.8887,-1.9376,-1.9998,-2.0661,-2.0476,-2.0338,-2.202,-2.2121,-2.1895,-2.2874,-2.3078,-2.2884,-2.2125,-2.091,-1.9824,-1.9365,-1.8664,-1.8008,-1.8008,-1.8008,-1.8008,-1.8008,-1.8008,-1.8008,-1.8008,-1.8721,-1.9337,-1.9493,-2.0853,-2.1933,0.0,-2.2668,-2.3078,-2.3078,-2.3078,-2.3075,0.0,0.0,-2.3015,-2.2949,-2.2882,-2.2445,-2.1616,-2.1365,-2.0526,-1.8977,-1.8977,-1.8654,-1.8008,-1.8008,-1.8174,-1.8506,-1.9043,-2.0452,-2.2451,-2.3184,-2.448,-2.6164,-2.6383,-2.6533,-2.642,-2.5259,-2.482,-2.4682,-2.3552,-2.3078,-2.3078,-2.0566,-2.0566,-2.0566,-2.0566,-2.0371,-2.0078,-1.9687,-1.9228,-1.8789,-1.8408,-1.8154,-1.8008,-1.8008,-1.8008,-1.8008,-1.8008,-1.7627,-1.7203,-1.6707,-1.6346,-1.5891,-1.543,-1.5528,-1.5848,-1.6482,-1.7334,-1.8448,-1.9798,-1.9798,-1.9798,-1.9798,-1.9798,-1.9673,-1.9447,-1.9447,-1.9447,-1.9447,-1.9447,-1.9585,-1.9747,-1.898,-1.8715,-1.8608,-1.7907,-1.7797,-1.8112,-1.8112,-1.8555,-1.9202,-1.9202,-1.9475,-1.9861,-2.0175,-2.0049,-2.0024,-2.1217,-2.1225,-2.1125,-2.2273,-2.2249,-2.1865,-2.1428,-2.059,-1.9879,-1.9879,-1.9243,-1.8596,-1.8596,-1.8269,-1.8008,-1.8008,-1.8008,-1.8008,-1.8008,-1.8777,-1.935,-1.9266,-2.0726,-2.1922,-2.2135,-2.2714,-2.3078,-2.3078,-2.3078,-2.3025,-2.2774,-2.2927,0.0,-2.3078,-2.3078,-2.2763,-2.1939,-2.1877,-2.1239,-1.9879,-1.9497,-1.8844,-1.8008,-1.8008,-1.8125,-1.8369,-1.9484,-2.0963,-2.2646,-2.3727,-2.5063,-2.6533,-2.6533,-2.6533,-2.642,-2.5259,-2.482,-2.4682,-2.3552,-2.3078,-2.3078,-2.0789,-2.0712,-2.0644,-2.0789,-2.0613,-2.0127,-1.9394,-1.918,-1.8838,-1.8105,-1.8008,-1.8008,-1.8008,-1.8008,-1.8008,-1.8008,-1.7627,-1.7197,-1.6758,-1.6297,-1.5879,-1.542,-1.541,-1.569,-1.6312,-1.7153,-1.8251,-1.9631,-1.9747,-1.9798,-1.9798,-1.9798,-1.951,-1.8995,-1.902,-1.902,-1.8995,-1.902,-1.9334,-1.9747,-1.9097,-1.8874,-1.8821,-1.8178,-1.834,-1.8874,-1.8874,-1.9254,-1.9798,-1.9798,-1.9798,-1.9798,-1.9798,-1.9798,-1.9911,-2.0542,-2.0416,-2.0345,-2.1595,-2.1295,-2.0655,-2.0782,-2.059,-2.0462,-2.059,-2.0009,-1.9518,-1.9581,-1.8828,-1.8221,-1.8291,-1.8115,-1.8095,-1.8291,-1.9003,-1.9479,-1.9119,0.0,-2.1872,-2.1968,-2.2668,-2.3128,-2.3078,-2.3078,-2.2937,-2.2472,-2.2949,-2.3263,-2.3263,-2.346,-2.3181,-2.2378,-2.2147,-2.1678,-2.0782,-1.9944,-1.9075,-1.83,-1.8427,-1.8466,-1.8429,-2.0261,-2.1614,-2.2571,-2.4296,-2.5581,-2.6521,-2.6433,-2.6327,-2.6214,-2.5121,-2.4695,-2.4569,-2.3466,-2.3078,-2.3078,-2.1593,-2.1155,-2.0857,-2.1659,-2.0541,-1.9443,-1.9307,-1.8672,-1.8164,-1.8027,-1.8008,-1.8008,-1.8008,-1.8008,-1.8008,-1.8008,-1.7627,-1.7197,-1.6758,-1.6331,-1.588,-1.543,-1.541,-1.5468,-1.5584,-1.6877,-1.8038,-1.8874,-1.9475,-1.9798,-1.9798,-1.9798,-1.951,-1.9016,-1.8982,-1.9019,-1.9016,-1.8982,-1.9334,-1.9798,-1.9695,-1.9631,-1.9631,-1.9475,-1.9527,-1.9631,-1.9631,-1.9695,-1.9798,-1.9798,-1.9798,-1.9798,-1.9798,-1.9798,-1.9911,-2.0542,-2.0147,-1.9912,-2.1716,-2.1459,-2.0782,-2.1491,-2.059,-1.9694,-2.0398,-2.0526,-2.052,-2.0996,-2.0028,-1.9225,-1.9677,-1.8781,-1.8388,-1.9551,-1.9886,-2.0301,-2.126,0.0,-2.2261,-2.2043,-2.2639,-2.3071,-2.3103,-2.3078,-2.304,-2.2952,-2.354,-2.3866,-2.3866,-2.5003,-2.5262,-2.4364,-2.3443,-2.2506,-2.169,-2.0846,-2.015,-1.9603,-2.0474,-2.0622,-2.0274,-2.1865,-2.3049,-2.393,-2.4672,-2.5581,-2.6496,-2.5937,-2.5737,-2.5624,-2.4544,-2.413,-2.4042,-2.3315,-2.3078,-2.3078,-2.1155,-2.0668,-2.0358,-2.0793,-1.9984,-1.9209,-1.8975,-1.8603,-1.8271,-1.8037,-1.8008,-1.8008,-1.8008,-1.8008,-1.8008,-1.8008,-1.7627,-1.7197,-1.6758,-1.6309,-1.5869,-1.543,-1.541,-1.5576,-1.5966,-1.6648,-1.7545,-1.8679,-1.9028,-1.9379,-1.9798,-1.9798,-1.9484,-1.8994,-1.8995,-1.8995,-1.8994,-1.9007,-1.9334,-1.9798,-1.9798,-1.9798,-1.9798,-1.9798,-1.9798,-1.9798,-1.9798,-1.9798,-1.9798,-1.9798,-1.9798,-1.9798,-1.9798,-1.9798,-1.9849,-2.0125,-2.0257,-2.0334,-2.0747,-2.0772,-2.0719,-2.1101,-2.1179,-2.1255,-2.1643,-2.1707,-2.1777,-2.2073,-2.1205,-2.0533,-2.0751,-2.0275,-2.0151,-2.1101,-2.142,0.0,-2.2721,-2.3268,-2.3668,-2.3803,-2.413,-2.4242,-2.4067,-2.4042,-2.4042,-2.4042,-2.4293,-2.4569,-2.4845,-2.5673,-2.5853,-2.5234,-2.4456,-2.3577,-2.2786,-2.2385,-2.1831,-2.1166,-2.1586,-2.1564,-2.1065,-2.2525,-2.3452,-2.3895,-2.4913,-2.5568,-2.5975,-2.5699,-2.5435,-2.5096,-2.4305,-2.4004,-2.3929,-2.3351,-2.3078,-2.3078,-2.0559,-2.0141,-1.984,-2.0054,-1.9561,-1.9023,-1.8691,-1.8555,-1.8379,-1.8047,-1.8008,-1.8008,-1.8008,-1.793,-1.79,-1.8008,-1.7529,-1.7119,-1.6855,-1.6445,-1.5977,-1.543,-1.541,-1.5654,-1.6212,-1.6405,-1.7056,-1.8193,-1.8536,-1.897,-1.9544,-1.9722,-1.9522,-1.8983,-1.8983,-1.8983,-1.8983,-1.8983,-1.9334,-1.9798,-1.9798,-1.9798,-1.9798,-1.9798,-1.9798,-1.9798,-1.9798,-1.9798,-1.9798,-1.9798,-1.9798,-1.9798,-1.9798,-1.9798,-1.9798,-1.9798,-2.0428,-2.0974,-2.0468,-2.0574,-2.0974,-2.1101,-2.194,-2.2691,-2.2763,-2.2995,-2.3176,-2.3176,-2.2503,-2.1932,-2.2046,-2.1833,-2.1857,-2.256,0.0,-2.3412,0.0,-2.4628,-2.5136,-2.5396,-2.5394,-2.5291,-2.496,-2.4845,-2.482,-2.482,-2.4933,-2.5172,-2.5573,-2.6142,-2.636,-2.6095,-2.5224,-2.4471,-2.3791,-2.3779,-2.3427,-2.2651,-2.273,-2.2534,-2.208,-2.325,-2.3779,-2.3869,-2.4959,-2.541,-2.541,-2.5272,-2.4996,-2.4569,-2.4017,-2.3803,-2.374,-2.3301,-2.3078,-2.3078,-2.0575,-1.999,-1.9618,-2.0594,-1.9596,-1.8672,-1.8643,-1.8301,-1.8047,-1.8018,-1.8008,-1.8008,-1.8008,-1.7666,-1.7588,-1.7978,-1.7256,-1.6894,-1.7352,-1.6929,-1.6299,-1.5449,-1.541,-1.542,-1.5488,-1.6161,-1.6564,-1.6648,-1.8001,-1.873,-1.8785,-1.9467,-1.9522,-1.8983,-1.8983,-1.8983,-1.8983,-1.8983,-1.9334,-1.9798,-1.9798,-1.9798,-1.9798,-1.9798,-1.9798,-1.9798,-1.9798,-1.9798,-1.9798,-1.9798,-1.9798,-1.9798,-1.9798,-1.9798,-1.9798,-1.9798,-2.0573,-2.1544,-2.1985,-2.197,-2.2002,-2.275,-2.2785,-2.2787,-2.2997,-2.3879,-2.4628,-2.4628,-2.3928,-2.3518,-2.397,-2.2994,-2.2571,-2.3961,0.0,0.0,-2.5324,-2.5988,-2.6148,-2.5497,-2.5375,-2.536,-2.5344,-2.5037,-2.482,-2.482,-2.5272,-2.5548,-2.5598,-2.6881,-2.7565,-2.7538,-2.5741,-2.4755,-2.4691,-2.4691,-2.4455,-2.4023,-2.4443,-2.4377,-2.4032,-2.4484,-2.4691,-2.4691,-2.4793,-2.4883,-2.4845,-2.433,-2.4092,-2.4004,-2.3427,-2.3201,-2.3128,-2.309,-2.3078,-2.3078,-1.9827,-1.935,-1.9019,-1.9364,-1.8805,-1.833,-1.8523,-1.8281,-1.8105,-1.8359,-1.8164,-1.8008,-1.8008,-1.7637,-1.7549,-1.7978,-1.7471,-1.7187,-1.738,-1.7207,-1.6738,-1.585,-1.5557,-1.541,-1.541,-1.61,-1.6711,-1.7203,-1.8189,-1.8929,-1.9379,-1.9645,-1.9698,-1.951,-1.951,-1.951,-1.951,-1.951,-1.9623,-1.9798,-1.9798,-1.9798,-1.9798,-1.9798,-1.9798,-1.9798,-1.9798,-1.9798,-1.9798,-1.9798,-1.9798,-1.9798,-1.9798,-1.9798,-1.9798,-1.9798,-2.0602,-2.1531,-2.1744,-2.2213,-2.2702,-2.3005,-2.3555,-2.4048,-2.4104,-2.4506,-2.4908,-2.5234,-2.476,-2.4489,-2.5006,-2.4652,-2.4633,-2.5524,0.0,-2.5884,-2.659,-2.6829,-2.7037,-2.7094,-2.6521,-2.6189,-2.6564,-2.6143,-2.5837,-2.5837,-2.6013,-2.6138,-2.6138,-2.6655,-2.7162,-2.767,-2.6496,-2.5837,-2.5837,-2.5837,-2.5615,-2.505,-2.5186,-2.4863,-2.4091,-2.4564,-2.4632,-2.433,-2.4669,-2.4619,-2.4293,-2.4092,-2.3791,-2.3439,-2.3165,-2.3078,-2.3078,-2.3078,-2.3078,-2.3078,-1.8929,-1.8643,-1.8437,-1.8437,-1.8203,-1.8105,-1.8398,-1.8301,-1.8262,-1.8418,-1.8301,-1.8105,-1.7842,-1.7432,-1.7334,-1.7792,-1.7402,-1.7252,-1.7357,-1.7165,-1.6717,-1.6145,-1.5644,-1.541,-1.541,-1.6123,-1.6743,-1.7279,-1.8073,-1.8798,-1.9455,-1.9546,-1.9648,-1.9798,-1.9798,-1.9798,-1.9798,-1.9798,-1.9798,-1.9786,-1.9623,-1.956,-1.956,-1.956,-1.9434,-1.9333,-1.9698,-1.9673,-1.9573,-1.9736,-1.9798,-1.9798,-1.9798,-1.9798,-1.9798,-1.9798,-2.0602,-2.1493,-2.1493,-2.2297,-2.3078,-2.3078,-2.3853,-2.4569,-2.4569,-2.482,-2.5172,-2.5523,-2.546,-2.5448,-2.5799,-2.5862,-2.605,-2.6628,-2.6647,-2.6722,-2.7205,-2.7281,-2.7356,-2.7557,-2.708,-2.6804,-2.7005,-2.6747,-2.6533,-2.6533,-2.6533,-2.6533,-2.6533,-2.6533,-2.6782,-2.7284,-2.6782,-2.6533,-2.6533,-2.6276,-2.5988,-2.5598,-2.5247,-2.4808,-2.4255,-2.428,-2.4192,-2.4004,-2.4205,-2.4079,-2.3728,-2.3728,-2.3489,-2.3078,-2.3078,-2.3078,-2.3078,-2.3078,-2.3078,-2.3078,-1.8212,-1.8008,-1.8008,-1.8008,-1.8008,-1.8008,-1.8008,-1.8359,-1.8486,-1.8076,-1.8379,-1.8311,-1.748,-1.7002,-1.6865,-1.7382,-1.6988,-1.6914,-1.7359,-1.6568,-1.6088,-1.6115,-1.5644,-1.541,-1.541,-1.6123,-1.6513,-1.6504,-1.7462,-1.8175,-1.8685,-1.8921,-1.9296,-1.9798,-1.9798,-1.9798,-1.9798,-1.9798,-1.9798,-1.9761,-1.9233,-1.8983,-1.8983,-1.902,-1.8659,-1.8326,-1.9434,-1.9422,-1.9079,-1.9636,-1.9798,-1.9798,-1.9798,-1.9798,-1.9798,-1.9798,-2.0602,-2.1493,-2.1493,-2.2297,-2.3078,-2.3078,-2.3577,-2.4004,-2.4004,-2.4833,-2.5598,-2.5598,-2.605,-2.6521,-2.6533,-2.6533,-2.664,-2.718,-2.6816,-2.6653,-2.7205,-2.7281,-2.708,-2.6609,-2.6942,-2.7067,-2.6584,-2.6533,-2.6533,-2.6533,-2.6533,-2.6533,-2.6533,-2.6533,-2.6533,-2.6533,-2.6521,-2.6521,-2.6521,-2.5887,-2.5598,-2.5573,-2.4506,-2.4293,-2.477,-2.3653,-2.3452,-2.3966,-2.3389,-2.3078,-2.3078,-2.3078,-2.3078,-2.3078,-2.3078,-2.3078,-2.3078,-2.3078,-2.3078,-2.3078,-1.909,-1.8926,-1.8716,-1.8134,-1.8008,-1.8105,-1.8378,-1.8301,-1.8259,-1.8379,-1.8264,-1.8105,-1.7852,-1.7168,-1.7012,-1.7782,-1.7139,-1.7002,-1.777,-1.7034,-1.6505,-1.6523,-1.5811,-1.541,-1.541,-1.6639,-1.7255,-1.729,-1.8214,-1.8747,-1.8908,-1.8607,-1.853,-1.8694,-1.9083,-1.9258,-1.9284,-1.9648,-1.9798,-1.9761,-1.9233,-1.8983,-1.897,-1.8561,-1.8329,-1.8313,-1.897,-1.9143,-1.9079,-1.9636,-1.9798,-1.9798,-1.9798,-1.9547,-1.9409,-2.0188,-2.0928,-2.1568,-2.1958,-2.2585,-2.3165,-2.364,-2.4167,-2.4569,-2.4569,-2.5109,-2.5598,-2.5598,-2.5737,-2.5975,-2.6445,-2.6533,-2.6584,-2.6678,-2.6892,-2.7092,-2.7256,-2.7281,-2.7369,-2.7595,-2.708,-2.6791,-2.7017,-2.6691,-2.6533,-2.6533,-2.6533,-2.6533,-2.6533,-2.6533,-2.6533,-2.6533,-2.6063,-2.585,-2.585,-2.5686,-2.541,-2.5046,-2.4343,-2.3866,-2.3578,-2.3703,-2.3615,-2.3401,-2.364,-2.3502,-2.3078,-2.3078,-2.3078,-2.3078,-2.3078,-2.3078,-2.3078,-2.3078,-2.3078,-2.3078,-2.0009,-1.9835,-1.9629,-1.91,-1.8721,-1.8607,-1.8838,-1.8536,-1.8257,-1.8337,-1.828,-1.8133,-1.7812,-1.728,-1.7178,-1.7704,-1.7307,-1.7212,-1.7734,-1.6919,-1.6429,-1.6465,-1.6049,-1.5718,-1.541,-1.6835,-1.7623,-1.7578,-1.8568,-1.8992,-1.897,-1.8694,-1.8405,-1.8242,-1.8995,-1.9221,-1.907,-1.9572,-1.9798,-1.9736,-1.8995,-1.8692,-1.8649,-1.8088,-1.7735,-1.7604,-1.8427,-1.8677,-1.8778,-1.9284,-1.9623,-1.9798,-1.9798,-1.9585,-1.9459,-2.0125,-2.0878,-2.1556,-2.1895,-2.2548,-2.3215,-2.3853,-2.4079,-2.428,-2.472,-2.4895,-2.5021,-2.5247,-2.5448,-2.5699,-2.605,-2.637,-2.6596,-2.6753,-2.6879,-2.703,-2.7256,-2.7281,-2.7318,-2.7444,-2.7055,-2.6829,-2.6942,-2.6653,-2.6533,-2.6533,-2.6533,-2.6533,-2.6533,-2.6533,-2.642,-2.6126,-2.5774,-2.5498,-2.5297,-2.5071,-2.4808,-2.4494,-2.3916,-2.3477,-2.3078,-2.3502,-2.3464,-2.309,-2.3502,-2.3452,-2.3078,-2.3078,-2.3078,-2.3078,-2.3078,-2.3078,-2.3078,-2.3078,-2.3078,-2.3078,-2.0807,-2.0705,-2.0662,-2.0565,-1.9922,-1.9422,-1.928,-1.8912,-1.8484,-1.8076,-1.8312,-1.8241,-1.75,-1.736,-1.7324,-1.741,-1.7437,-1.7475,-1.7461,-1.6626,-1.615,-1.6123,-1.6403,-1.6182,-1.5517,-1.6938,-1.7712,-1.7688,-1.8568,-1.9005,-1.8983,-1.8933,-1.8681,-1.8242,-1.9271,-1.9472,-1.9008,-1.9535,-1.9736,-1.9635,-1.8568,-1.8143,-1.8066,-1.7529,-1.6974,-1.666,-1.7739,-1.8129,-1.8229,-1.8819,-1.9346,-1.9748,-1.9786,-1.9773,-1.9761,-1.9911,-2.0677,-2.1506,-2.1606,-2.2372,-2.3215,-2.3853,-2.3565,-2.3366,-2.4506,-2.4393,-2.4205,-2.4657,-2.5172,-2.5536,-2.5586,-2.6025,-2.6634,-2.7118,-2.6791,-2.6697,-2.713,-2.7205,-2.7017,-2.6584,-2.6904,-2.7017,-2.6584,-2.6483,-2.6445,-2.6445,-2.6445,-2.6471,-2.6533,-2.6533,-2.6189,-2.5611,-2.5598,-2.5322,-2.4757,-2.4293,-2.4067,-2.4067,-2.3439,-2.3103,-2.3153,-2.3103,-2.3078,-2.3078,-2.3078,-2.3078,-2.3078,-2.3078,-2.3078,-2.3078,-2.3078,-2.3078,-2.3078,-2.3078,-2.3078,-2.3078,-2.1165,-2.1272,-2.1268,-2.0068,-2.0136,-2.008,-1.9431,-1.921,-1.8838,-1.8086,-1.8086,-1.7959,-1.7451,-1.7089,-1.7014,-1.7356,-1.7696,-1.7881,-1.7881,-1.7052,-1.655,-1.6582,-1.6512,-1.6415,-1.6265,-1.7722,-1.8483,-1.8436,-1.883,-1.8995,-1.897,-1.8581,-1.8317,-1.8229,-1.8894,-1.9133,-1.8983,-1.9096,-1.9146,-1.9095,-1.8003,-1.7571,-1.7516,-1.6898,-1.6622,-1.6609,-1.7313,-1.7564,-1.7714,-1.8694,-1.9058,-1.9271,-1.9673,-1.9522,-1.9447,-2.074,-2.1292,-2.1681,-2.2535,-2.289,-2.3215,-2.3853,-2.3565,-2.3314,-2.4017,-2.4418,-2.4556,-2.4243,-2.4607,-2.5109,-2.5523,-2.5699,-2.5975,-2.6553,-2.6609,-2.6571,-2.6697,-2.664,-2.6659,-2.6546,-2.6634,-2.6659,-2.6533,-2.605,-2.5787,-2.5787,-2.5787,-2.5988,-2.6496,-2.6533,-2.6189,-2.5611,-2.5598,-2.5134,-2.4192,-2.4481,-2.4644,-2.4632,-2.3615,-2.3376,-2.3803,-2.3339,-2.3078,-2.3078,-2.3078,-2.3078,-2.3078,-2.3078,-2.3078,-2.3078,-2.3078,-2.3078,-2.3078,-2.3078,-2.3078,-2.3078,-2.218,-2.2253,-2.2236,-2.1464,-2.127,-2.1078,-2.0621,-1.9834,-1.9306,-1.9259,-1.8878,-1.8602,-1.852,-1.8553,-1.8656,-1.892,-1.8877,-1.8921,-1.9212,-1.8385,-1.7812,-1.7873,-1.7652,-1.7677,-1.7991,-1.8792,-1.9032,-1.8715,-1.9152,-1.9271,-1.8983,-1.8982,-1.8694,-1.8242,-1.9045,-1.9258,-1.8995,-1.9296,-1.9208,-1.8925,-1.81,-1.7617,-1.732,-1.6716,-1.6522,-1.6559,-1.6861,-1.7313,-1.7903,-1.8695,-1.9196,-1.9447,-1.971,-1.961,-1.956,-2.0426,-2.1066,-2.1606,-2.2196,-2.2736,-2.3213,-2.3514,-2.3364,-2.3288,-2.3866,-2.4004,-2.3941,-2.3653,-2.4042,-2.4506,-2.4782,-2.5247,-2.5686,-2.6,-2.6276,-2.6533,-2.6533,-2.6533,-2.6533,-2.6533,-2.6533,-2.6533,-2.6533,-2.5937,-2.5598,-2.5598,-2.585,-2.6013,-2.605,-2.6314,-2.6189,-2.5611,-2.5598,-2.5209,-2.4406,-2.4669,-2.4946,-2.5172,-2.4067,-2.3703,-2.3979,-2.3401,-2.3078,-2.3078,-2.3078,-2.3078,-2.3078,-2.3078,-2.3078,-2.3078,-2.3078,-2.3078,-2.3078,-2.3078,-2.3078,-2.3078,-2.2749,-2.2862,-2.2902,-2.2874,-2.2445,-2.2053,-2.1922,-2.07,-1.9952,-2.0527,-1.9938,-1.9594,-1.9727,-2.0121,-2.0404,-2.0455,-2.003,-1.9968,-2.0565,-1.975,-1.9214,-1.9134,-1.8936,-1.9059,-1.9579,-1.9707,-1.9577,-1.9018,-1.9577,-1.9572,-1.9171,-1.9597,-1.9334,-1.8518,-1.9409,-1.956,-1.9183,-1.9522,-1.9396,-1.8951,-1.8298,-1.7816,-1.7338,-1.6739,-1.6522,-1.6522,-1.6522,-1.7237,-1.8279,-1.8731,-1.9296,-1.9798,-1.9798,-1.9798,-1.9823,-1.9924,-2.0677,-2.1506,-2.1606,-2.2372,-2.3078,-2.3078,-2.3078,-2.3203,-2.374,-2.3477,-2.3078,-2.3078,-2.3514,-2.3879,-2.3979,-2.4808,-2.5485,-2.5586,-2.6088,-2.6533,-2.6533,-2.6533,-2.6496,-2.6395,-2.6382,-2.6382,-2.6382,-2.5799,-2.546,-2.546,-2.5912,-2.5963,-2.5485,-2.6101,-2.6151,-2.5485,-2.5649,-2.5448,-2.4833,-2.5008,-2.5272,-2.5586,-2.4695,-2.423,-2.4117,-2.3439,-2.3078,-2.3078,-2.3078,-2.3078,-2.3078,-2.3078,-2.3078,-2.3078,-2.3078,-2.3078,-2.3078,-2.3078,-2.3078,-2.3078,-2.1222,-2.1769,-2.2272,-2.1794,-2.238,-2.2677,-2.2015,-2.1702,-2.1336,-2.0685,-2.0527,-2.0301,-1.9935,-1.9504,-1.9499,-1.997,-1.9832,-1.9929,-2.0574,-2.0081,-1.9555,-1.9134,-1.9352,-1.9526,-1.9591,-1.9707,-1.9997,-2.0432,-1.9997,-1.9761,-1.9698,-1.9773,-1.9723,-1.9597,-1.9736,-1.9761,-1.9673,-1.9296,-1.9057,-1.8913,-1.7886,-1.7473,-1.7338,-1.6739,-1.6522,-1.6522,-1.6522,-1.7237,-1.8216,-1.8292,-1.8982,-1.9798,-1.9798,-1.9798,-1.9899,-2.0454,-2.0991,-2.1594,-2.2071,-2.2661,-2.3078,-2.3078,-2.3078,-2.309,-2.3165,-2.3128,-2.3078,-2.3078,-2.3128,-2.3401,-2.3904,-2.4506,-2.5071,-2.5523,-2.6088,-2.6533,-2.6533,-2.6533,-2.6345,-2.5774,-2.5711,-2.5711,-2.5711,-2.5234,-2.4921,-2.4921,-2.4996,-2.5008,-2.4933,-2.59,-2.5988,-2.4958,-2.585,-2.585,-2.4833,-2.5762,-2.6013,-2.5598,-2.5448,-2.5146,-2.4669,-2.3615,-2.3078,-2.3078,-2.3078,-2.3078,-2.3078,-2.3078,-2.3078,-2.3078,-2.3078,-2.3078,-2.3078,-2.3078,-2.3078,-2.3078,-2.1267,-2.1518,-2.1782,-2.1531,-2.2146,-2.2555,-2.2186,-2.2006,-2.1832,-2.1595,-2.1419,-2.1205,-2.0842,-2.0555,-2.0788,-2.1636,-2.1355,-2.138,-2.1957,-2.1236,-2.072,-2.0423,-1.9964,-1.9871,-2.0208,-1.9915,-2.0125,-2.0723,-2.0125,-1.9798,-1.9798,-1.9798,-1.9798,-1.9798,-1.9798,-1.9798,-1.9786,-1.956,-1.9246,-1.8908,-1.8157,-1.7647,-1.7321,-1.6753,-1.6685,-1.6998,-1.7302,-1.7925,-1.8673,-1.8647,-1.9429,-2.0295,-1.9901,-2.0055,-2.0424,-2.0648,-2.0894,-2.1154,-2.1707,-2.2246,-2.2598,-2.2297,-2.2686,-2.299,-2.2749,-2.2852,-2.3165,-2.3552,-2.3364,-2.3414,-2.4293,-2.4657,-2.4996,-2.5511,-2.6088,-2.6533,-2.6533,-2.6533,-2.6433,-2.6101,-2.5315,-2.5178,-2.6013,-2.5103,-2.4716,-2.5222,-2.5259,-2.5259,-2.5259,-2.6013,-2.6239,-2.5749,-2.6214,-2.6226,-2.5737,-2.6214,-2.6395,-2.6076,-2.5749,-2.5322,-2.4795,-2.3991,-2.3439,-2.3078,-2.3078,-2.3078,-2.3078,-2.3078,-2.3078,-2.3078,-2.3078,-2.3078,-2.3078,-2.3078,-2.3078,-2.3078]}]]